GFSGL_850_thetae_000.txt.gz
Theta_e
344 328 325 331 329 326 327 321 321 322 323 324 327 327 324 321 326 328 328 328 329 331 330 327 327 327 325 326 325 323 319 320 319 318 318 318 320 319 320 322 328 330 331
349 329 325 332 330 328 326 323 320 320 322 322 324 323 325 325 326 325 326 327 329 328 327 328 328 328 322 324 326 325 322 322 320 317 317 319 321 320 320 322 323 328 332
349 330 327 332 330 327 322 321 319 319 319 321 324 325 325 326 326 329 329 331 333 331 329 327 324 322 321 321 324 325 325 324 321 320 319 319 319 319 320 321 322 323 330
348 338 330 330 330 329 323 321 319 319 321 325 327 328 329 327 328 329 329 331 330 328 324 323 322 322 323 322 323 323 322 322 320 319 319 319 319 319 319 320 321 322 326
347 341 335 330 333 331 326 323 322 320 323 327 329 330 330 327 327 330 328 328 328 325 323 323 323 322 321 322 324 324 324 324 320 320 319 319 319 320 319 320 320 322 322
348 343 337 331 334 332 326 323 323 321 325 331 330 329 327 324 326 330 329 326 325 323 323 323 323 322 321 322 323 323 323 322 321 321 320 318 318 319 319 320 320 321 322
348 344 339 336 332 333 328 321 322 322 325 332 331 329 328 326 328 329 328 327 326 323 322 323 324 322 321 322 321 321 321 320 320 320 318 318 318 317 318 320 321 321 320
347 342 337 336 333 334 329 320 321 324 327 331 332 331 329 327 326 328 328 327 325 322 322 321 321 320 322 322 322 321 321 320 320 319 318 318 317 317 318 320 321 321 321
346 339 337 334 334 335 326 321 323 328 331 334 333 324 331 330 328 325 326 327 325 322 322 322 322 322 321 320 322 322 321 321 321 319 317 317 317 316 319 320 321 321 321
344 339 337 333 335 332 322 323 327 332 336 335 334 331 328 329 328 327 326 325 323 322 322 322 323 320 319 322 322 321 322 321 319 320 320 318 317 317 319 320 320 322 324
344 339 336 335 334 327 327 329 333 337 336 335 333 327 325 327 327 325 325 324 324 323 322 321 318 317 319 321 321 322 319 317 319 320 320 318 317 317 319 319 321 324 325
338 337 338 338 338 339 334 336 336 335 334 333 330 323 325 325 326 324 325 324 322 321 317 316 318 319 321 320 321 320 318 317 318 320 319 317 317 317 319 320 321 329 328
340 340 337 334 331 333 336 335 337 334 333 331 324 325 326 327 326 325 323 322 321 316 315 315 318 320 320 320 320 318 316 316 318 319 318 318 317 317 319 320 321 329 331
338 335 333 330 326 327 331 334 333 333 331 328 324 322 325 326 324 323 322 321 318 315 312 313 319 321 320 319 318 315 315 316 317 318 318 318 317 317 318 319 319 324 331
330 325 325 325 324 327 332 335 332 328 328 327 324 325 325 323 321 321 320 318 316 314 313 314 320 321 318 316 315 315 316 316 316 317 318 318 318 318 317 319 320 320 321
325 325 322 323 326 330 331 331 329 327 326 325 325 325 322 321 320 319 319 317 315 313 315 317 318 317 315 314 315 315 314 314 315 316 318 318 319 319 317 318 319 319 320
327 324 323 329 329 330 328 328 327 325 325 324 325 324 322 321 318 317 317 314 311 314 315 315 314 314 313 313 312 310 309 310 312 314 315 316 317 318 317 317 318 319 319
326 333 334 331 329 328 327 328 325 325 325 323 322 321 320 319 317 315 314 312 313 314 314 312 313 311 311 310 308 306 305 306 307 308 312 312 314 316 318 318 317 319 318
328 328 327 326 327 327 326 325 323 325 323 323 321 318 317 316 315 314 313 310 310 310 311 312 310 310 309 309 307 305 304 304 304 305 307 310 311 313 315 318 318 318 320
321 320 324 327 328 327 325 325 324 323 320 319 316 315 315 314 313 312 311 309 310 310 310 309 309 309 308 305 303 299 299 301 301 302 303 305 307 307 311 315 318 319 319
321 326 325 324 323 322 322 324 323 320 315 315 317 316 313 308 307 307 308 308 308 308 307 306 306 305 305 303 298 294 295 299 299 300 300 301 301 302 305 310 316 318 318
327 326 325 323 323 323 322 322 319 317 317 317 317 314 312 310 307 305 306 307 306 305 304 303 301 300 299 296 293 295 296 298 298 299 299 299 299 300 301 304 311 315 315
324 322 323 323 322 321 321 321 318 319 318 318 316 314 311 309 307 305 305 306 305 304 303 301 297 296 294 292 293 294 296 296 297 297 298 298 299 299 299 301 302 308 312
321 322 322 320 320 318 321 320 319 317 316 316 315 312 310 308 307 305 303 305 304 302 302 297 296 295 292 292 293 294 295 296 296 296 297 297 298 298 299 299 300 300 301
319 317 314 314 313 315 315 316 315 313 313 313 313 311 309 307 306 304 303 302 302 300 297 295 295 294 294 292 292 293 293 294 295 295 295 295 296 297 298 298 298 299 299
315 313 312 314 313 312 312 312 312 312 312 310 310 309 307 306 305 304 303 301 300 297 296 295 295 294 294 293 293 292 292 293 293 294 295 295 295 295 296 297 297 297 298

GFSGL_850_thetae_003.txt.gz
Theta_e
337 338 337 341 326 325 320 319 319 319 318 321 323 325 325 322 319 321 326 328 328 329 329 331 329 326 328 329 327 325 325 325 323 321 323 320 316 318 319 319 319 319 320
345 340 342 342 326 329 323 321 319 319 320 321 322 322 322 323 324 325 324 326 327 327 327 329 329 329 329 328 324 322 324 324 324 324 323 320 318 317 318 319 319 319 320
347 345 346 344 328 330 326 323 322 319 319 319 319 319 320 321 323 325 328 329 329 329 324 325 324 324 323 323 323 324 324 324 324 323 322 320 318 318 318 319 318 318 319
347 347 346 347 332 329 329 324 321 320 319 319 321 322 322 323 325 327 329 329 325 325 325 323 322 322 322 321 320 321 323 324 324 324 323 321 319 319 318 318 318 318 318
346 348 347 347 336 327 330 323 321 320 319 320 323 324 326 327 326 324 325 327 326 323 323 321 322 323 323 323 320 320 322 323 322 322 322 320 320 319 318 318 317 318 318
347 347 349 347 336 329 330 326 323 321 320 320 324 326 328 327 325 323 324 327 326 324 324 322 321 321 322 322 320 321 322 322 321 321 320 320 319 318 317 317 316 317 318
347 350 349 340 338 331 330 331 323 320 321 321 325 328 327 326 327 327 328 328 326 327 325 322 320 320 320 320 320 322 321 321 321 321 319 319 319 317 317 317 316 317 318
348 350 350 345 338 332 332 332 325 320 321 324 324 329 331 331 331 329 328 326 326 326 325 321 321 320 320 321 321 321 320 321 321 320 321 320 318 317 318 317 316 317 318
349 350 347 343 342 333 333 330 320 320 321 328 327 330 330 328 329 326 327 326 325 324 324 321 322 321 322 322 320 320 321 321 321 319 317 318 319 320 318 315 317 318 318
349 349 348 344 340 332 332 331 325 325 323 332 332 333 332 330 328 325 327 328 324 323 323 322 322 322 321 318 320 321 321 321 320 318 316 318 320 318 316 316 318 317 317
350 349 344 341 338 336 337 337 336 334 332 335 333 330 330 330 325 325 326 324 322 323 323 320 319 316 318 320 321 320 320 320 318 315 318 319 318 316 316 317 319 317 319
350 348 345 340 339 338 336 335 334 328 327 334 330 330 330 325 322 324 325 324 324 321 319 317 314 315 318 320 320 318 319 317 315 316 317 318 318 316 316 316 319 318 321
346 345 341 339 335 334 332 328 327 329 326 331 330 328 324 322 323 326 325 324 321 320 319 317 314 315 318 319 319 318 316 315 315 316 317 317 317 318 317 315 318 318 322
342 341 340 339 336 332 331 326 325 328 331 331 328 328 324 324 325 325 323 321 321 320 318 316 312 315 319 319 317 316 314 315 315 315 316 317 318 318 317 315 318 319 320
339 334 327 324 324 328 329 326 325 331 329 328 328 327 324 325 324 322 320 320 320 319 318 317 315 316 319 319 316 314 314 314 314 315 316 317 317 317 316 316 318 318 318
325 322 325 325 327 328 324 327 331 332 330 328 326 325 324 323 322 322 321 320 319 318 317 314 316 318 317 314 313 313 311 311 310 312 313 314 315 315 316 316 318 318 319
328 330 328 327 323 321 326 329 327 328 327 326 325 325 324 323 322 320 318 317 317 313 312 314 315 315 313 312 311 310 309 307 307 307 308 310 312 314 316 317 317 319 318
325 323 324 326 330 329 328 327 327 327 324 323 323 322 322 320 318 317 315 314 313 312 313 313 313 312 311 310 309 308 308 307 306 305 305 306 308 310 315 316 318 319 318
327 328 328 328 328 328 328 327 326 325 323 322 322 322 318 316 316 315 314 314 313 310 310 310 310 310 309 309 307 305 301 300 302 302 302 303 304 306 312 316 318 318 320
326 326 326 326 326 325 325 324 323 323 322 321 320 317 315 315 313 311 310 309 309 309 310 310 309 309 307 306 306 303 297 297 300 300 300 301 301 302 307 314 317 317 319
321 320 322 324 323 323 323 322 322 321 320 318 315 316 315 313 310 308 306 307 307 308 308 307 306 305 304 303 300 295 295 298 298 299 299 299 299 300 302 310 314 316 317
323 324 325 326 325 323 323 323 321 321 319 315 316 317 315 312 310 309 306 305 307 306 306 304 302 299 298 296 294 295 297 298 297 298 298 298 299 299 300 302 309 313 314
325 324 323 323 323 323 323 322 321 319 316 317 317 317 315 312 311 309 306 305 306 306 304 303 299 296 293 292 293 294 295 296 297 297 297 298 298 298 298 299 300 303 309
320 320 321 322 322 321 320 320 319 319 318 317 317 317 315 312 311 308 306 304 305 305 303 302 295 295 292 292 293 294 295 295 296 295 296 296 297 297 297 298 299 299 301
320 319 316 314 314 314 317 318 317 316 314 314 314 314 312 311 309 307 305 304 302 301 300 296 294 294 294 292 292 292 293 294 294 295 295 295 295 296 296 297 297 298 298
315 315 313 313 313 312 312 312 311 312 312 311 312 311 310 310 308 307 305 304 302 300 297 295 295 294 294 293 294 294 293 292 293 294 294 294 294 295 295 296 296 296 297

GFSGL_850_thetae_006.txt.gz
Theta_e
328 329 330 332 336 335 325 319 319 319 320 322 319 321 322 324 321 319 318 323 324 325 326 327 327 328 328 328 328 329 328 323 323 321 322 321 320 321 321 317 317 318 318
333 337 335 335 336 343 329 322 320 318 318 319 319 320 322 323 322 323 322 322 325 328 330 331 327 328 326 328 328 327 324 324 326 324 322 322 323 322 321 318 318 319 318
341 343 346 343 342 343 336 326 321 319 318 320 320 319 320 321 321 320 321 323 325 327 327 326 324 324 322 322 322 322 321 321 323 324 323 322 323 321 319 318 319 319 318
342 343 346 348 345 345 341 328 326 321 320 320 319 319 320 321 320 319 320 323 326 328 326 323 324 321 321 322 322 322 322 320 321 322 322 321 321 320 319 319 319 318 316
346 342 341 345 348 347 344 330 326 323 322 322 320 321 322 323 321 320 322 323 324 326 326 324 323 323 320 320 321 322 322 321 322 321 321 320 320 320 320 319 319 318 317
346 345 345 346 348 348 340 340 332 326 324 321 320 323 324 325 322 323 324 325 325 326 326 325 325 324 320 320 320 320 320 320 322 321 322 321 320 320 320 320 319 318 318
345 346 347 349 350 348 335 335 338 327 320 319 321 325 324 326 323 327 329 328 328 328 327 327 327 325 321 321 320 320 320 322 321 321 321 321 320 319 318 319 319 318 318
343 345 348 350 349 347 337 335 335 331 324 325 326 326 323 327 326 330 332 331 329 328 326 326 326 325 322 321 321 321 322 320 320 321 321 320 318 316 317 319 320 318 316
344 345 347 348 349 346 338 332 336 336 332 333 331 330 328 327 329 329 328 330 326 327 326 325 324 323 322 322 321 321 319 318 320 320 319 316 315 318 320 318 316 317 316
344 346 348 348 349 346 342 333 336 338 338 335 334 332 331 331 332 330 330 326 324 325 324 323 323 323 320 319 317 317 319 320 318 317 315 313 317 319 319 317 317 316 315
343 348 348 348 349 345 339 338 338 337 337 332 331 325 327 328 328 330 329 324 323 325 323 323 321 318 315 315 317 319 320 318 317 316 314 317 317 317 317 318 316 315 317
344 348 347 347 346 342 339 338 337 335 334 330 327 328 327 326 330 328 324 321 325 325 323 321 319 316 314 314 316 318 319 316 315 314 316 316 317 318 318 318 315 316 318
347 346 344 342 341 339 337 334 333 331 328 326 325 326 329 329 329 322 321 324 325 323 322 320 319 316 313 314 317 319 317 315 314 315 315 316 317 317 317 317 316 317 319
344 342 341 338 336 332 328 327 329 329 328 325 328 327 327 329 324 323 324 324 323 321 320 320 319 317 315 315 317 318 316 313 314 313 313 313 313 313 315 316 317 319 318
339 339 337 339 337 335 332 330 327 327 325 324 326 327 328 328 325 324 324 322 321 320 319 319 318 316 316 317 318 315 312 312 311 309 308 308 309 310 312 316 317 318 318
334 331 332 335 331 330 329 330 328 326 323 325 325 328 327 325 324 323 322 321 320 319 318 316 314 314 316 316 314 312 311 310 309 308 307 306 306 307 310 315 317 319 317
334 332 330 326 326 326 328 327 325 325 325 326 327 325 324 323 323 322 320 319 317 315 315 312 313 314 314 313 311 310 310 308 307 306 304 304 303 305 309 315 318 319 318
326 325 328 326 327 325 323 321 324 328 327 324 323 323 322 321 320 318 317 315 314 314 313 311 312 311 311 310 309 309 307 305 300 301 301 301 302 302 306 314 316 319 317
327 327 323 325 328 329 328 328 326 327 325 323 322 321 321 319 316 315 314 313 312 311 311 310 310 310 309 308 308 307 306 301 297 299 300 300 300 300 303 312 315 317 319
328 327 328 329 328 327 327 326 325 323 323 323 321 321 318 315 314 312 310 308 306 307 308 309 309 308 307 306 306 305 299 295 298 299 299 299 299 299 301 307 312 315 317
327 326 323 321 322 322 322 323 323 322 321 320 319 317 315 315 314 312 310 309 306 305 307 307 306 305 303 302 300 296 295 297 298 298 298 298 298 298 299 301 308 312 315
323 321 322 324 325 325 323 323 323 321 320 319 318 315 316 316 314 312 310 308 306 305 306 305 304 302 298 296 294 294 296 297 296 297 297 297 297 297 298 299 300 307 311
323 324 323 323 323 323 323 323 322 320 319 319 316 316 317 316 314 311 310 307 305 305 305 304 303 298 294 292 293 294 295 296 296 296 296 296 296 296 297 297 298 299 303
321 320 320 320 321 322 322 321 320 318 317 317 317 318 317 316 313 311 309 306 304 303 304 303 301 295 293 292 293 293 294 295 295 295 295 295 295 295 296 296 297 298 299
320 320 319 318 317 316 317 318 317 317 316 318 316 315 316 315 312 311 308 306 304 302 301 299 296 294 294 293 292 293 293 293 294 294 295 295 295 295 295 296 296 297 298
315 314 315 313 313 312 311 313 314 313 313 312 311 312 312 311 311 310 308 306 304 302 300 297 295 294 294 294 294 294 295 293 293 294 294 294 294 294 295 295 295 296 297

GFSGL_850_thetae_009.txt.gz
Theta_e
328 328 331 333 328 328 330 324 320 318 318 318 320 323 321 322 322 319 320 319 319 322 324 324 325 327 328 327 326 327 329 329 329 324 325 326 320 319 320 321 320 318 317
330 327 329 330 327 327 325 337 323 320 319 319 319 319 319 320 321 321 320 323 324 323 325 326 325 325 324 323 323 322 323 324 325 326 323 325 326 323 320 319 319 318 318
346 338 332 331 331 330 331 332 330 324 321 321 319 318 319 320 320 320 319 322 324 325 325 326 325 326 324 322 321 322 327 323 325 325 324 324 325 325 325 322 323 321 320
348 347 343 337 333 331 332 340 336 329 321 320 318 319 319 320 320 319 320 322 323 323 325 327 327 324 323 322 321 320 321 322 325 325 325 325 325 324 324 324 323 323 323
349 348 348 346 343 346 348 347 340 332 328 325 321 320 321 321 321 321 322 323 323 323 323 325 327 326 324 324 323 320 319 322 325 325 324 324 324 323 323 323 323 322 321
347 347 348 349 349 348 349 348 342 332 330 332 330 327 326 323 322 324 324 324 324 325 325 327 328 327 327 326 325 321 320 320 320 321 324 324 324 323 323 323 321 320 319
343 344 345 347 348 349 349 348 339 335 331 332 330 331 323 328 323 326 324 326 327 326 328 329 329 326 326 327 325 322 322 321 321 321 321 321 321 321 319 317 316 318 319
340 342 344 345 347 348 348 347 341 338 334 330 334 324 328 332 327 327 329 329 331 331 330 329 328 326 326 325 324 322 322 322 321 319 320 320 319 318 315 316 319 319 319
337 340 342 344 346 348 348 346 340 338 334 336 327 327 333 332 330 327 326 328 329 330 329 326 327 325 323 323 323 320 319 318 318 319 319 317 316 313 317 317 318 318 318
334 340 345 347 347 348 348 346 340 335 334 335 334 335 333 332 329 327 325 325 329 329 328 325 325 323 323 321 317 315 316 317 318 319 317 312 314 317 317 318 318 318 318
337 339 345 348 348 348 348 344 338 335 335 335 330 335 330 324 329 327 326 326 326 328 326 325 324 323 320 318 316 315 315 316 318 316 312 315 316 317 317 317 316 316 317
337 343 347 348 347 347 347 344 338 333 335 331 329 331 328 327 327 327 327 328 328 325 326 325 324 322 319 318 316 314 315 318 317 314 314 314 314 314 313 312 313 316 317
339 346 346 346 345 346 345 341 337 336 328 331 328 325 328 326 328 328 328 325 322 326 326 324 323 320 320 318 316 315 317 317 315 312 312 311 310 309 310 309 310 316 318
344 346 344 343 342 341 339 337 337 335 330 326 328 325 325 326 326 328 325 324 325 325 324 322 320 320 319 317 316 317 316 315 312 311 310 309 309 308 308 307 313 317 318
343 341 340 340 339 337 336 333 330 329 328 329 326 326 324 325 326 327 326 325 324 322 321 321 320 318 317 315 317 316 314 311 310 309 308 307 306 305 305 308 315 318 318
340 338 336 335 335 335 332 330 329 329 328 327 327 327 324 327 327 325 324 323 322 321 320 318 317 316 315 315 314 313 310 310 309 306 304 303 303 303 304 308 313 316 318
336 335 333 334 333 332 331 330 327 327 327 325 327 324 326 326 323 322 321 321 320 318 316 315 315 314 313 313 311 310 309 309 308 304 300 301 301 302 303 307 313 317 318
334 331 329 327 326 325 326 325 324 324 327 327 326 325 323 322 321 321 319 317 316 315 314 313 312 311 311 309 309 309 309 308 306 300 300 301 301 301 303 305 310 315 317
325 325 326 326 324 326 327 326 325 324 327 326 324 322 321 321 320 317 315 314 312 311 308 309 310 310 309 309 309 309 308 305 299 298 300 300 300 300 302 303 306 311 313
325 325 328 327 328 328 327 325 325 326 326 324 323 322 321 319 316 314 313 311 310 308 306 307 308 308 308 307 306 305 301 297 298 299 299 299 298 300 301 302 304 307 310
327 327 327 324 322 322 322 323 323 323 323 322 322 320 319 315 315 314 312 311 309 307 306 306 307 306 305 303 300 298 296 297 297 297 298 298 298 299 300 301 302 305 307
326 324 321 322 324 324 324 324 323 323 321 321 320 319 317 315 315 313 312 310 308 306 305 306 305 304 302 298 296 294 295 296 296 296 296 297 298 298 299 300 301 302 303
325 323 323 323 322 321 323 323 323 322 321 320 319 318 315 316 315 314 311 310 307 305 304 305 304 303 298 294 293 294 295 296 296 295 295 295 298 297 299 299 300 301 301
324 324 320 319 319 319 321 323 323 321 321 319 318 316 316 317 317 314 311 310 307 305 303 303 303 301 296 293 293 293 294 294 295 295 295 295 297 298 298 299 299 300 300
321 320 320 319 319 321 322 322 321 320 319 318 317 318 317 316 316 315 312 310 307 305 304 302 300 297 294 294 293 293 293 293 294 294 295 295 295 296 298 298 299 299 299
318 316 315 315 315 315 315 316 316 316 317 317 316 315 314 313 312 312 311 311 308 305 304 301 299 296 294 294 294 294 294 295 294 293 294 295 296 297 297 297 297 298 298

GFSGL_850_thetae_012.txt.gz
Theta_e
345 336 338 340 337 333 331 324 324 322 319 319 321 324 319 324 329 330 330 331 334 333 331 333 334 334 332 330 329 329 329 328 328 327 326 326 328 329 329 329 328 327 327
335 331 333 339 335 335 328 327 327 325 321 319 321 322 324 328 334 331 331 330 331 331 332 333 334 332 333 333 331 331 329 328 328 327 327 327 326 326 327 328 328 326 326
349 348 343 340 344 337 329 332 332 330 324 320 319 320 324 322 331 334 334 333 332 332 333 333 333 333 333 331 330 329 328 327 327 327 327 327 326 325 326 326 326 324 326
352 354 353 344 343 346 338 337 332 333 330 321 323 322 325 321 323 324 333 332 329 331 333 334 333 333 332 332 330 331 331 330 328 327 327 326 325 325 325 325 324 323 323
354 355 356 357 356 354 351 339 337 340 338 325 323 333 333 323 322 323 322 331 328 332 333 334 333 334 329 328 328 328 328 327 327 326 325 325 324 325 325 324 323 323 323
356 357 357 358 358 353 353 348 343 342 344 329 327 329 332 330 319 321 322 331 332 333 335 334 334 332 329 328 327 327 327 325 324 325 325 325 326 326 324 324 323 322 322
355 357 357 359 357 353 351 349 347 346 346 340 333 332 334 331 320 324 325 325 332 333 335 335 329 330 331 330 328 326 326 325 323 323 324 326 325 324 324 322 321 320 318
348 351 355 356 354 352 348 347 347 347 346 337 333 335 333 331 326 321 329 326 327 331 328 326 328 328 328 329 329 327 324 327 326 325 325 324 323 321 318 317 316 318 318
339 340 342 343 350 348 346 346 346 345 344 339 335 333 332 331 333 324 330 327 331 330 329 329 329 329 327 326 323 323 323 324 323 323 320 317 316 312 311 317 318 320 319
335 336 339 345 350 347 347 347 346 345 343 337 334 334 334 333 327 330 332 330 332 329 326 329 329 327 326 324 323 321 323 324 324 321 320 320 318 318 318 319 319 319 320
335 334 337 346 349 348 348 348 346 343 339 336 336 336 334 330 324 332 327 321 327 329 331 328 329 325 325 324 321 319 322 317 315 317 320 319 315 317 317 318 317 317 316
333 337 339 341 348 349 349 348 345 341 338 338 336 336 336 327 332 325 322 324 327 326 328 329 328 325 325 322 320 319 318 316 317 320 319 315 315 315 315 314 314 313 313
329 337 339 346 348 347 347 346 343 340 338 337 336 335 334 328 328 326 325 327 327 328 329 326 325 325 323 320 320 319 318 318 319 318 315 314 314 313 313 312 311 310 314
335 339 346 347 345 345 344 342 340 339 337 339 336 334 330 330 330 327 328 327 326 323 324 324 323 322 320 320 319 319 318 317 316 313 313 313 312 312 310 308 308 312 317
345 347 346 344 344 344 341 339 339 337 337 336 334 329 327 327 327 329 329 329 327 326 325 324 323 323 322 322 320 319 317 315 313 312 312 311 310 309 307 307 307 315 317
343 344 343 342 341 339 337 337 336 334 332 330 328 327 326 325 327 327 327 326 324 323 322 322 321 321 320 320 319 318 315 312 311 310 309 309 307 306 306 306 308 314 315
342 341 337 337 337 336 334 332 331 329 328 328 327 326 327 326 327 326 324 322 321 320 319 320 320 319 319 318 316 313 311 311 309 308 308 306 305 305 305 306 308 311 314
340 337 337 336 335 334 333 334 331 329 328 325 325 327 326 326 324 322 321 320 318 317 318 318 318 317 316 314 312 311 310 309 307 306 305 304 304 304 304 305 306 309 313
337 335 333 332 331 331 331 330 330 329 331 327 326 326 324 322 321 320 318 317 319 317 315 314 313 312 311 310 310 309 308 306 303 303 304 304 304 303 304 304 305 307 311
332 331 330 331 331 332 332 331 330 330 330 328 324 322 322 321 319 317 317 317 316 315 313 312 311 310 310 309 308 306 304 303 303 303 303 303 303 303 303 303 304 305 309
330 330 331 331 330 329 328 328 327 328 327 326 325 324 321 321 320 320 318 316 315 313 312 311 310 309 308 306 304 302 302 302 302 302 302 302 302 302 302 303 303 304 304
331 329 328 327 328 327 327 327 327 326 325 325 324 323 321 319 320 319 317 315 314 312 311 310 308 306 304 302 301 300 301 301 301 301 301 301 301 302 302 302 303 303 303
329 328 328 329 328 327 326 326 326 325 325 324 323 323 320 319 319 318 317 315 313 312 310 308 306 304 302 299 297 299 300 301 300 299 300 300 301 301 302 302 302 302 303
328 328 328 327 326 325 325 325 325 324 324 323 322 321 320 318 318 317 316 314 312 311 309 307 305 303 300 297 297 298 298 298 297 299 298 300 301 301 302 302 302 302 302
327 326 325 325 324 323 324 323 323 322 322 321 320 319 319 318 318 316 316 314 312 311 309 307 305 303 299 296 296 296 296 294 294 295 296 300 300 301 301 301 301 302 302
323 322 321 320 320 320 320 320 320 320 319 318 318 318 318 318 317 317 315 313 312 310 309 307 305 302 299 296 295 295 294 295 295 295 295 299 300 301 299 300 300 301 301

GFSGL_850_thetae_015.txt.gz
Theta_e
353 353 352 352 354 345 341 346 347 343 344 342 342 341 337 339 339 338 334 335 338 337 335 333 334 335 333 332 331 331 330 329 330 328 329 329 328 329 328 329 330 328 329
353 352 349 347 349 351 341 351 349 331 342 334 331 334 332 336 336 329 337 336 334 334 334 333 335 333 334 334 333 332 331 329 329 328 329 329 328 328 328 326 328 328 327
352 352 351 346 343 340 348 346 350 336 333 332 327 325 323 323 326 329 331 325 334 334 334 334 334 334 333 333 333 332 330 329 331 329 328 326 327 326 327 326 326 328 326
351 351 352 349 343 349 350 351 352 344 334 332 328 322 320 320 332 330 332 323 330 335 333 334 335 334 334 334 334 333 332 330 330 329 327 327 327 325 327 327 325 326 325
349 350 351 351 353 353 352 354 353 350 344 337 330 325 320 322 331 331 331 323 333 331 332 334 335 333 333 334 333 331 331 330 329 327 326 326 325 326 327 327 326 325 323
353 352 353 355 354 353 354 355 354 353 351 345 340 332 322 323 332 332 332 322 322 333 333 334 334 334 333 331 330 328 328 327 327 329 328 326 326 326 326 326 326 324 322
354 358 356 359 358 358 357 356 355 354 352 347 344 337 323 324 331 331 333 321 328 331 333 334 335 335 334 333 331 329 326 326 327 327 326 326 327 324 324 323 323 322 320
358 357 359 358 361 360 360 358 356 355 352 348 344 340 326 326 330 332 334 322 328 326 329 333 335 334 328 329 329 328 327 330 328 328 326 325 325 324 322 319 316 316 318
359 359 359 360 360 362 360 356 355 354 352 348 344 343 331 331 329 334 332 325 327 326 329 331 333 330 329 328 329 322 326 325 328 325 324 324 323 319 319 318 319 319 319
359 360 359 359 359 359 357 356 354 352 349 346 345 340 337 335 334 335 332 328 324 328 331 323 330 329 327 328 326 325 324 327 326 326 326 324 321 322 319 318 319 320 319
354 356 357 358 358 358 355 356 352 349 347 346 343 340 338 338 338 333 333 328 323 330 331 324 329 327 328 325 323 324 323 323 322 320 321 321 322 321 318 318 319 319 317
353 355 358 359 357 356 355 353 350 349 347 346 342 338 337 339 337 334 329 325 329 330 328 325 327 328 328 327 326 324 322 320 319 320 321 321 320 317 316 316 316 314 313
355 356 359 357 355 355 354 352 347 347 345 342 340 340 340 338 337 329 330 331 323 324 328 330 329 329 327 326 323 321 320 320 320 321 320 318 315 315 314 314 313 311 310
358 354 350 353 353 349 349 348 345 344 343 341 343 340 338 337 334 331 330 327 325 327 327 327 327 326 325 322 321 320 320 320 321 319 316 315 314 313 312 311 310 309 309
344 343 349 351 348 345 344 343 341 340 340 340 339 339 338 336 333 331 327 328 329 328 329 329 326 325 325 324 323 322 321 320 319 317 315 313 312 311 310 309 308 309 311
347 347 346 344 344 342 341 339 340 338 339 338 337 336 334 328 327 326 325 327 327 327 327 327 325 324 323 322 321 321 320 319 317 315 313 312 311 309 308 307 308 309 311
348 347 345 345 342 341 341 339 337 335 334 335 331 328 328 328 326 325 328 327 327 325 322 322 322 322 322 321 321 320 318 316 314 313 311 310 309 308 307 307 307 308 310
344 341 340 340 339 337 336 335 334 333 331 329 328 328 328 327 327 326 326 324 321 319 319 320 321 321 320 319 318 316 314 314 312 310 308 307 307 307 306 307 307 307 307
340 339 338 337 336 334 334 334 332 331 330 330 325 326 326 327 325 324 321 319 322 322 320 319 318 317 316 315 314 313 313 311 309 306 307 306 306 306 306 306 306 306 306
338 336 335 334 333 332 332 331 330 329 331 330 326 324 326 324 322 321 319 319 321 319 318 317 316 315 314 313 313 312 310 307 306 306 306 305 305 305 305 305 305 305 306
334 333 332 333 331 332 332 331 329 328 328 329 328 326 324 323 323 323 321 321 320 318 317 316 315 313 312 312 310 308 306 305 305 305 305 304 304 304 305 304 305 305 305
332 332 330 331 330 330 329 328 328 327 326 325 326 326 325 323 323 322 321 320 319 317 316 315 313 311 309 308 306 305 304 304 304 304 303 303 304 304 304 304 305 305 305
331 329 329 329 330 329 328 328 327 326 326 325 324 324 324 323 322 321 320 319 318 317 315 313 311 309 307 305 302 301 302 303 303 302 302 303 303 304 304 305 304 305 305
330 330 330 330 330 329 327 327 326 325 325 324 324 324 323 321 320 320 319 318 317 316 314 313 310 308 306 304 300 300 301 301 301 301 302 302 303 304 304 304 304 304 304
329 329 328 327 327 326 325 325 324 324 323 322 322 321 320 320 319 319 318 318 316 315 314 312 310 308 306 303 300 299 299 298 296 295 296 301 303 303 304 303 303 303 304
326 326 325 325 324 324 323 323 322 323 322 321 321 320 319 319 318 318 318 316 316 314 313 312 310 308 305 302 300 298 296 295 295 296 296 298 303 303 301 302 302 303 303

GFSGL_850_thetae_018.txt.gz
Theta_e
355 354 348 345 335 335 349 353 351 348 347 344 343 342 335 328 328 323 324 337 330 327 322 334 334 334 332 331 332 332 332 329 331 329 329 327 327 327 327 327 328 327 327
357 354 350 346 335 333 339 349 351 350 346 344 341 341 340 330 325 320 321 328 326 330 325 323 327 328 333 334 332 330 329 330 331 330 330 330 330 327 327 326 328 330 327
359 355 355 345 339 331 333 335 347 347 342 341 343 341 334 329 325 320 325 329 327 329 322 324 327 332 333 332 334 332 333 330 330 331 328 326 327 328 324 325 327 329 327
359 357 353 346 337 330 334 338 338 341 335 341 339 333 332 327 325 319 329 328 329 324 321 323 332 333 334 334 332 331 330 331 331 330 329 329 329 327 326 327 327 326 327
354 356 354 346 345 343 345 346 348 347 344 341 344 342 339 333 327 321 328 327 329 325 321 320 326 333 335 334 331 331 331 330 331 329 330 328 327 327 326 325 325 325 324
349 353 352 353 353 352 353 353 355 354 354 353 353 349 345 340 330 322 325 328 330 325 322 326 325 334 335 335 334 333 331 330 329 329 328 327 327 325 324 326 326 325 324
348 350 351 351 353 352 354 354 354 357 356 355 355 354 349 344 339 325 324 329 330 326 324 331 332 327 334 335 334 333 330 329 329 326 320 327 326 324 324 322 321 319 318
348 351 351 351 353 353 354 353 354 357 356 356 357 355 352 346 343 331 324 331 329 330 328 332 325 326 332 333 332 328 327 329 325 323 329 327 325 324 324 323 321 318 317
355 351 356 354 357 357 357 357 358 358 358 358 357 354 350 345 342 335 327 331 333 332 326 329 324 330 328 328 326 326 327 328 322 327 326 326 326 325 322 320 320 318 318
355 357 356 362 364 364 363 362 361 361 360 357 353 351 348 346 343 336 333 330 333 333 325 325 326 328 326 326 329 328 327 326 324 324 325 325 324 323 321 322 320 321 319
359 362 363 362 363 365 365 364 361 357 355 352 350 347 345 344 341 337 335 336 334 332 328 324 325 329 328 328 328 326 323 324 324 323 323 320 320 322 321 321 318 318 318
363 363 362 362 363 362 361 360 356 354 350 349 345 344 342 341 340 339 340 338 333 331 328 326 331 331 327 328 328 326 326 325 322 320 320 320 320 320 316 315 316 316 313
360 360 360 359 359 359 356 355 353 351 348 345 344 342 340 340 341 340 338 333 332 326 329 330 325 326 328 326 326 325 322 320 320 320 321 321 319 317 315 314 313 312 311
357 358 359 356 354 357 354 353 349 348 347 344 343 341 341 341 339 338 336 329 328 330 327 323 324 326 327 326 324 322 322 321 320 320 319 318 316 315 313 312 311 309 308
357 355 356 358 356 353 349 347 346 344 344 341 342 342 341 338 338 335 332 330 328 327 327 328 327 327 326 326 325 324 324 322 320 319 319 317 315 312 311 310 308 307 309
352 355 352 349 347 347 347 345 343 341 341 340 340 340 338 337 335 332 328 327 326 327 327 327 330 328 326 326 324 322 322 321 319 319 317 316 313 311 309 308 307 308 307
338 343 347 344 343 342 340 341 338 337 338 338 338 338 335 333 327 327 324 323 324 326 327 327 325 323 323 322 321 321 320 319 316 315 314 311 310 308 307 307 307 307 307
351 347 345 343 342 341 341 339 337 334 334 336 336 332 329 328 328 327 325 325 327 326 322 320 321 321 321 320 320 319 317 316 315 313 311 310 307 307 307 306 306 306 306
346 343 345 342 339 339 338 337 335 334 332 330 327 328 328 328 327 326 326 325 323 323 323 322 320 319 318 317 316 316 315 314 312 309 306 307 307 306 306 306 305 306 306
340 340 339 338 337 336 335 335 333 332 332 330 328 324 324 324 325 325 324 321 318 321 320 319 318 317 316 315 315 314 313 310 308 307 307 306 305 305 305 305 305 305 305
338 337 336 335 334 333 333 332 331 330 331 330 330 325 323 322 322 323 322 321 321 321 319 318 317 316 315 313 311 309 309 307 306 306 305 305 305 304 305 305 305 305 305
334 333 333 333 332 332 332 331 330 329 329 330 330 328 325 324 324 324 323 321 321 320 318 317 316 314 312 310 309 308 306 305 305 305 305 304 304 304 305 305 305 305 305
330 332 330 331 332 331 329 329 328 328 327 327 326 326 325 325 324 323 322 321 320 318 317 316 314 312 310 308 306 303 303 304 305 304 303 303 304 304 304 305 305 305 305
331 330 330 330 330 330 330 329 328 327 326 326 326 325 325 325 323 322 321 320 319 318 317 315 314 311 309 308 305 301 301 302 303 302 301 301 304 304 304 305 304 304 304
330 330 330 330 329 328 327 327 327 326 325 325 325 325 323 321 320 319 319 319 318 318 316 315 313 311 309 308 304 301 300 300 300 299 296 296 302 304 304 303 303 303 304
328 327 326 326 326 325 325 325 325 324 324 324 323 323 321 319 319 319 319 319 318 316 315 315 313 312 309 307 304 302 300 298 297 295 296 296 303 304 304 302 303 303 303

GFSGL_850_thetae_021.txt.gz
Theta_e
353 352 353 350 344 347 345 346 350 352 346 345 346 345 344 342 333 322 324 322 328 330 329 330 328 326 325 331 332 332 332 332 330 331 330 328 327 327 328 327 325 325 326
353 352 351 351 344 342 343 342 345 349 350 347 344 345 344 342 340 325 323 322 327 333 333 332 331 328 322 319 327 331 329 329 330 329 330 329 330 327 325 326 326 325 326
352 352 352 351 348 338 337 333 336 342 346 349 348 345 342 340 339 337 325 324 326 331 327 332 328 326 323 322 332 330 331 333 333 330 329 330 328 328 329 328 326 326 327
350 351 352 351 345 335 333 331 334 334 346 349 347 344 343 341 340 339 333 326 323 331 327 332 330 328 324 326 332 332 331 331 331 330 331 331 328 330 328 327 328 327 325
349 350 349 347 347 342 337 334 332 339 340 344 347 347 346 344 342 338 334 329 322 327 329 329 332 332 331 332 332 332 332 330 329 330 330 329 327 327 326 326 326 323 321
348 347 348 351 351 347 342 340 341 339 343 346 348 350 350 347 346 343 339 335 327 327 328 329 330 333 330 331 324 331 331 331 329 327 329 329 328 321 322 325 324 321 321
347 348 347 351 351 349 348 348 349 349 350 351 352 352 352 351 350 348 345 340 334 328 329 328 328 334 333 325 328 330 332 331 326 327 328 327 321 324 326 326 323 323 323
347 347 347 346 348 350 351 350 352 354 353 353 355 356 357 356 354 353 348 343 335 331 329 328 327 328 333 324 329 331 331 327 326 327 328 322 325 324 326 326 324 322 321
348 346 347 347 347 350 351 353 353 354 355 356 356 357 357 356 355 351 348 343 337 332 330 330 330 330 330 325 328 327 327 327 328 327 326 323 323 324 325 325 324 321 322
347 347 346 348 348 349 352 353 354 356 356 357 358 358 356 354 353 350 346 343 338 330 331 330 331 329 328 326 328 326 327 328 327 325 323 323 323 323 323 320 321 321 322
347 349 348 348 349 351 352 354 356 357 358 358 358 357 354 351 348 346 344 341 336 331 331 332 332 327 324 326 330 327 326 327 324 324 324 323 321 319 321 321 320 317 315
350 352 351 353 356 356 359 359 359 359 358 359 356 352 349 347 344 343 341 338 336 336 337 335 330 328 327 330 326 327 327 327 325 322 319 319 319 321 319 315 315 314 313
356 355 361 362 364 365 366 361 358 361 359 353 351 347 345 343 341 340 339 339 339 338 334 331 327 329 328 324 327 327 326 323 321 321 320 319 320 319 318 315 314 312 311
362 362 365 364 365 365 364 360 361 358 353 349 348 346 343 341 340 340 340 339 337 334 332 326 329 327 324 326 325 324 322 322 322 321 319 319 318 317 316 314 311 310 308
363 364 363 362 361 361 360 359 356 351 349 347 345 343 340 340 341 339 338 335 332 329 328 329 327 326 326 326 326 325 324 323 322 321 319 320 318 316 315 311 308 307 307
361 356 358 358 358 357 356 352 350 347 345 343 342 341 340 340 338 336 333 329 329 328 328 326 325 325 326 325 324 324 324 322 322 319 319 319 315 312 311 308 307 306 307
352 351 353 355 352 353 347 346 345 345 342 341 340 341 340 337 336 332 328 326 325 325 326 327 326 326 324 323 322 321 320 319 320 322 316 313 313 311 308 307 306 306 306
344 345 347 346 342 345 346 343 341 339 339 338 338 338 337 335 331 327 326 324 325 326 326 325 321 322 321 320 320 319 318 316 315 314 313 312 311 307 307 306 306 306 305
342 341 340 338 337 337 337 337 334 330 331 334 335 335 332 329 328 327 327 325 326 323 323 323 322 320 319 318 318 317 316 316 315 314 309 306 307 306 305 305 305 305 305
347 346 342 340 339 339 337 335 334 332 330 326 326 325 326 327 326 324 324 325 324 322 322 322 319 319 318 317 316 314 314 314 312 307 306 306 305 305 305 305 305 305 305
340 339 345 340 341 338 336 337 336 335 332 330 329 328 323 323 323 323 323 323 321 320 320 319 319 318 317 314 311 311 308 308 306 306 306 305 305 304 304 305 305 305 305
337 337 335 335 335 334 333 334 332 331 331 331 330 328 324 324 323 322 321 322 321 321 320 319 318 317 315 312 311 309 308 307 305 305 305 305 304 304 304 304 305 305 304
335 332 334 334 332 332 333 332 331 330 331 330 329 328 326 324 324 325 324 322 321 321 319 319 318 316 314 310 309 308 304 303 303 305 305 304 302 304 304 304 304 304 304
328 330 331 329 330 331 330 329 328 327 328 328 327 327 326 325 324 324 323 321 321 320 319 318 317 316 315 311 309 308 303 302 302 302 302 300 299 303 304 304 304 303 303
330 330 330 330 330 329 329 328 328 328 326 325 325 325 324 324 324 323 322 320 319 318 317 317 316 315 314 312 310 307 303 301 300 300 300 298 296 303 304 304 303 303 303
328 328 328 328 328 327 327 325 325 325 326 326 326 325 325 323 321 320 320 318 317 318 317 316 315 314 313 312 312 310 304 301 299 297 296 296 298 303 303 302 302 303 302

GFSGL_850_thetae_024.txt.gz
Theta_e
348 349 350 350 351 343 342 345 349 351 351 349 348 342 345 345 344 341 326 321 320 322 327 330 326 327 329 333 332 331 331 331 332 331 331 330 329 328 328 327 325 325 326
348 349 350 350 351 347 341 342 347 349 351 349 349 344 345 346 345 343 340 324 321 320 328 330 330 328 329 329 330 331 332 331 331 330 329 329 330 329 330 326 327 328 328
349 350 350 350 351 350 341 340 341 346 348 351 350 346 344 344 344 343 341 338 326 321 326 332 330 332 332 332 330 327 330 332 331 332 332 329 328 328 328 329 328 327 328
349 351 350 350 349 348 343 338 336 340 346 348 349 349 347 346 344 343 341 340 337 328 322 331 330 333 333 331 331 328 332 330 328 330 329 330 329 329 328 328 327 327 325
348 349 350 349 348 347 345 341 337 336 340 344 349 349 348 348 347 346 344 342 341 336 327 326 328 329 332 334 330 331 332 326 325 331 326 329 327 328 328 326 322 325 322
348 348 348 349 349 348 346 343 339 336 336 338 341 341 346 348 346 346 346 345 343 341 335 325 327 329 329 334 332 332 327 324 330 332 328 327 326 327 327 322 326 324 322
348 348 348 347 347 347 345 345 342 337 336 338 341 342 347 349 347 349 350 348 346 343 340 333 327 329 329 332 333 332 328 327 329 331 325 326 327 328 323 325 324 324 325
349 348 348 348 346 344 343 342 343 343 342 341 343 343 344 345 346 350 352 351 348 347 343 338 331 329 329 329 331 333 328 326 329 325 327 328 328 325 325 324 325 324 323
350 348 348 347 347 345 342 339 344 348 348 347 345 347 349 350 352 353 355 352 350 347 344 338 334 328 328 329 331 331 325 328 327 328 329 328 327 323 323 324 323 321 321
347 346 346 347 347 346 343 345 346 348 349 351 350 351 353 355 355 355 357 355 350 345 343 339 334 329 330 329 331 328 327 327 326 327 327 324 324 324 323 322 319 322 321
345 346 350 348 348 346 347 348 349 349 352 354 354 354 355 355 355 355 356 352 346 344 340 337 332 331 331 331 330 328 327 329 326 327 325 323 320 319 319 320 320 317 314
346 348 350 350 349 350 349 350 351 353 354 355 355 354 356 356 357 354 350 344 343 339 335 334 331 332 332 330 327 326 327 327 327 326 322 320 319 318 320 319 318 317 315
348 348 349 350 350 350 350 352 354 354 355 355 353 337 355 353 348 345 343 341 337 336 336 336 334 331 328 328 329 326 326 327 325 321 321 320 319 318 318 317 316 315 312
350 350 350 349 350 351 352 352 353 355 356 356 349 355 352 347 344 342 340 338 337 337 337 334 332 329 327 329 327 325 326 325 322 321 321 321 319 319 318 316 315 312 307
353 352 354 353 357 358 358 359 358 358 354 353 354 350 346 344 343 340 339 339 339 337 335 334 331 328 328 326 325 325 325 323 323 323 322 319 319 319 318 315 310 307 307
355 354 357 361 363 364 362 360 355 350 351 348 345 345 345 342 340 340 339 337 334 332 331 329 328 327 327 326 325 323 324 325 323 321 321 319 318 316 313 311 308 306 306
360 361 364 361 356 356 351 347 350 349 346 345 345 340 338 340 338 335 333 329 329 329 328 328 326 325 325 325 323 322 321 321 321 320 322 322 317 313 311 309 306 306 305
356 355 351 351 341 333 331 332 339 343 344 341 339 340 339 337 335 333 330 327 325 325 325 325 326 327 325 323 322 320 320 319 318 317 318 318 313 311 307 306 305 305 305
346 346 344 344 346 345 344 340 341 344 340 338 338 338 337 334 330 330 327 327 323 324 325 323 321 320 321 320 319 318 316 316 315 314 314 310 306 306 305 305 304 304 304
342 343 342 341 343 343 340 338 339 339 337 335 334 333 333 330 329 328 327 327 324 324 322 322 322 321 318 317 317 316 314 312 313 312 307 306 306 305 304 304 304 304 305
341 339 336 334 335 334 332 333 330 328 324 325 326 325 323 323 325 325 325 324 324 323 322 321 320 318 318 318 317 315 309 308 306 306 305 306 305 305 304 304 304 305 304
339 343 339 337 335 334 333 335 335 333 330 329 328 327 323 323 324 324 323 322 322 320 320 320 319 318 318 317 316 313 310 308 307 306 305 305 304 304 303 303 304 304 304
337 337 338 337 337 336 337 336 333 334 332 331 330 328 323 323 323 323 321 322 320 320 320 319 318 318 317 316 314 310 309 308 305 304 304 304 304 303 302 303 304 304 303
331 334 334 334 332 333 333 332 331 332 332 331 329 329 326 325 325 324 323 323 323 321 321 320 318 317 316 315 313 310 309 308 303 302 302 302 301 298 302 303 304 303 302
328 327 326 327 327 328 330 329 329 328 329 328 328 327 326 326 325 324 323 323 323 322 319 319 317 316 316 314 311 311 309 307 303 301 300 300 299 297 299 303 303 302 302
325 325 329 329 329 329 329 328 328 327 327 326 325 325 324 326 325 324 323 322 322 321 318 317 316 316 314 312 312 311 309 306 302 300 298 297 296 296 301 302 302 302 302

GFSGL_850_thetae_027.txt.gz
Theta_e
346 346 346 347 348 349 350 341 342 344 344 347 348 347 341 338 334 332 335 324 320 321 320 323 324 325 326 331 333 332 331 331 331 331 331 331 331 329 329 329 328 326 327
345 346 346 347 348 349 350 347 336 343 343 348 349 348 347 343 343 343 343 341 332 322 321 325 329 328 326 330 330 332 332 332 331 331 331 330 330 330 329 329 329 328 328
345 346 346 347 348 348 349 349 336 341 343 345 349 349 348 347 343 344 344 344 342 336 323 321 328 330 330 330 330 331 331 329 331 332 330 331 331 330 329 329 328 328 328
345 346 347 347 347 348 349 349 342 335 340 342 347 348 349 349 347 343 344 344 343 342 336 327 322 330 329 331 333 333 332 331 333 332 328 328 330 328 328 327 327 328 326
345 346 346 346 346 348 348 349 348 339 336 337 344 348 348 349 349 347 345 344 344 343 342 338 329 326 329 329 332 334 332 330 333 330 325 324 330 327 327 327 327 321 322
345 344 346 346 346 348 348 348 349 345 338 335 336 339 344 347 347 349 348 347 347 346 344 341 337 330 329 329 329 333 333 332 332 329 324 327 330 328 326 327 324 322 326
346 346 346 345 345 347 349 349 348 348 346 340 337 337 337 338 342 346 347 348 349 348 346 343 341 339 329 329 329 330 333 333 330 328 328 329 328 326 327 328 325 327 324
346 347 348 346 345 346 348 348 349 347 345 343 340 338 337 337 338 340 343 350 352 351 347 345 344 342 336 327 329 328 331 332 332 328 328 327 328 328 328 327 325 324 324
346 346 347 345 346 346 347 348 349 350 348 343 342 342 338 336 335 339 346 352 353 351 350 348 346 342 338 332 329 329 329 329 329 326 327 327 327 327 326 324 324 325 322
346 346 346 346 347 346 346 347 348 349 348 348 346 343 341 339 340 347 351 353 355 354 352 348 343 343 338 333 330 329 329 331 326 328 327 326 326 324 323 321 321 319 320
346 346 348 348 348 347 347 349 348 348 350 351 349 347 345 345 349 353 354 354 355 354 351 343 340 340 336 331 330 331 330 330 328 328 328 327 325 320 319 318 319 319 317
347 347 347 348 348 350 350 352 351 352 353 353 351 351 351 352 354 355 358 356 352 351 346 341 339 338 336 332 334 332 330 328 326 327 326 326 320 319 318 318 319 317 316
346 347 346 347 349 352 352 351 353 355 355 358 355 353 352 354 354 354 353 354 349 345 342 337 334 332 331 332 332 330 328 327 326 327 325 321 320 319 319 318 317 317 316
346 345 345 346 348 352 354 355 355 356 356 356 354 350 353 353 351 347 343 347 343 341 335 335 335 335 332 329 328 328 328 326 326 325 321 321 320 320 319 318 318 316 312
346 346 347 348 350 353 353 354 355 356 356 353 351 350 351 343 346 348 346 342 341 337 336 336 337 332 329 327 328 326 324 324 323 322 322 322 321 319 318 318 315 311 309
350 348 348 349 350 352 353 356 356 356 356 353 350 348 344 338 339 345 341 339 337 337 336 337 336 332 328 328 326 325 325 323 323 324 323 321 321 319 318 314 311 309 306
357 355 354 353 352 354 355 354 350 345 337 337 334 333 336 335 341 341 339 339 339 338 337 336 330 328 326 326 325 324 322 322 321 321 321 320 321 321 317 313 310 306 305
336 336 339 349 354 356 353 348 339 336 335 332 331 331 335 342 340 339 339 337 334 332 330 328 327 325 324 324 324 322 321 320 319 318 318 317 318 318 314 309 306 305 304
340 337 337 337 342 342 339 334 335 334 333 332 338 341 340 339 338 336 333 329 327 326 325 324 324 325 325 322 320 320 319 318 316 315 315 315 314 311 306 305 304 304 304
331 333 336 333 337 336 332 331 331 331 337 342 341 338 338 336 334 333 330 326 323 322 324 324 324 322 320 320 320 318 317 316 313 311 311 311 307 306 305 305 304 303 304
339 340 340 338 336 336 340 343 341 342 341 339 339 338 334 332 332 329 327 327 324 323 323 322 322 321 320 319 317 317 315 311 308 306 307 306 305 305 305 304 303 303 304
337 336 336 334 335 338 338 337 335 335 335 335 335 334 333 329 328 328 327 324 322 322 323 322 321 320 319 318 317 316 315 312 309 306 305 305 305 304 304 303 302 303 304
338 337 337 335 333 332 330 329 327 326 326 326 326 325 324 326 326 325 323 322 321 321 320 319 320 318 317 317 316 314 310 309 308 307 303 304 304 304 303 302 302 303 303
335 336 335 335 334 333 334 334 333 330 328 328 328 327 324 323 324 323 322 321 321 320 320 320 319 318 317 316 315 313 309 308 307 303 302 302 302 302 300 298 301 303 303
328 329 330 332 331 332 332 332 332 331 331 330 330 330 328 323 325 324 323 322 323 321 321 320 319 318 317 316 314 311 310 306 304 303 302 301 300 300 299 297 299 302 302
326 326 326 327 327 326 328 329 329 329 329 329 329 329 327 326 325 325 324 323 323 323 323 320 319 318 315 314 312 312 311 310 308 304 301 301 298 297 297 297 301 301 301

GFSGL_850_thetae_030.txt.gz
Theta_e
344 344 345 346 346 346 346 347 348 346 343 341 347 342 344 346 347 342 335 334 327 322 323 320 321 321 321 324 332 334 333 331 331 331 331 331 330 330 329 329 330 329 328
343 344 345 345 345 346 346 346 347 349 341 342 344 342 345 347 346 337 331 330 334 325 321 322 321 326 327 326 325 330 332 332 332 331 331 331 330 330 330 328 329 329 328
343 343 344 345 345 345 345 346 347 348 346 340 342 341 345 346 346 341 341 341 342 342 337 325 322 324 329 329 327 330 331 331 331 328 331 331 330 331 329 328 328 326 327
343 343 343 343 344 344 345 346 346 348 349 339 340 339 342 344 345 345 344 342 344 344 343 341 332 324 324 330 330 330 331 331 331 332 332 333 329 328 329 329 327 327 326
343 343 342 343 344 344 345 345 345 347 348 345 337 341 339 343 342 344 347 346 344 344 344 344 342 335 328 327 332 331 333 333 331 330 332 332 329 324 326 330 328 326 326
342 342 343 344 343 343 344 345 346 345 348 348 342 337 340 339 339 341 345 348 347 346 345 345 344 341 337 331 329 331 330 332 333 331 331 332 326 326 329 326 326 327 326
342 342 343 344 344 343 344 345 346 346 347 348 348 342 337 338 339 341 344 347 348 349 348 347 347 343 342 339 333 331 332 330 332 332 332 330 327 327 327 328 328 327 325
342 343 344 345 344 345 344 344 345 345 346 346 347 347 344 340 341 341 341 344 347 349 348 348 348 346 344 343 339 333 332 329 331 332 331 329 327 328 328 328 327 326 323
344 345 344 345 345 345 345 344 345 345 346 345 345 347 347 345 340 339 341 343 346 348 347 352 350 347 345 343 340 336 329 329 330 330 330 326 327 327 327 326 324 323 323
342 342 343 345 345 346 345 345 345 345 346 347 347 346 345 345 344 344 340 342 346 346 348 353 352 349 345 344 341 338 332 329 329 330 327 328 328 326 326 322 319 318 319
341 343 345 346 346 346 347 348 347 348 347 348 348 348 348 346 345 344 343 344 345 347 351 353 353 348 341 340 339 337 331 329 330 331 328 328 327 327 322 318 318 318 318
345 346 347 346 346 347 349 350 352 353 352 352 353 352 349 348 347 344 343 344 349 352 353 353 349 343 340 339 338 333 331 332 331 329 325 326 326 323 320 319 318 318 317
347 347 347 348 350 352 352 353 350 353 353 354 352 353 352 353 345 347 350 353 353 354 353 352 345 341 339 336 336 332 333 332 331 327 327 327 325 320 319 319 318 318 317
344 344 346 348 350 353 354 354 354 350 339 348 353 352 353 351 346 351 354 352 350 353 350 345 341 338 334 332 331 331 331 330 328 326 325 326 322 320 320 319 318 318 317
347 345 346 345 347 350 353 355 354 355 355 356 355 356 355 355 350 350 350 350 347 345 343 339 335 333 334 333 333 330 328 328 327 325 325 323 321 321 321 318 318 316 313
334 334 337 346 346 348 351 353 355 356 355 356 355 356 353 350 345 337 334 330 335 342 338 335 334 333 333 330 327 328 326 325 324 323 323 322 322 322 320 319 318 313 310
334 335 340 343 347 348 349 353 354 356 356 356 354 349 344 336 335 334 334 331 335 340 336 335 334 334 331 328 327 327 326 324 323 322 322 322 321 320 320 320 314 310 306
336 336 336 342 353 350 349 351 351 350 346 337 334 336 341 336 333 333 332 334 341 338 336 336 334 334 330 328 326 325 325 323 321 320 319 318 317 318 318 314 308 305 304
332 332 334 339 345 347 348 348 343 339 336 334 333 333 332 332 333 334 332 340 339 338 338 336 333 329 327 324 324 324 323 321 320 319 317 315 315 315 313 307 305 304 303
337 333 333 337 340 341 336 336 336 336 332 331 329 332 334 334 336 335 339 338 337 335 331 329 327 326 325 324 324 321 320 319 318 317 314 312 313 311 307 305 304 303 302
336 336 335 333 333 333 328 327 329 331 332 332 332 332 332 339 340 338 338 334 328 325 323 322 322 324 325 322 321 319 317 317 315 312 308 307 307 306 305 304 303 302 302
334 337 337 334 334 333 332 332 332 331 334 334 338 339 338 338 337 334 331 327 324 321 322 323 323 322 321 320 318 317 316 315 314 310 307 305 305 305 305 304 303 301 302
334 332 334 336 337 336 336 335 335 338 339 338 338 337 335 333 331 330 328 326 323 321 322 323 322 321 319 317 317 316 315 311 310 308 307 305 304 304 304 303 302 301 302
334 334 334 333 332 333 334 336 333 333 333 330 331 329 329 328 327 327 326 325 322 321 321 320 319 319 317 316 316 315 313 309 308 308 305 303 304 304 303 301 298 300 301
328 328 332 333 332 332 332 331 327 327 326 327 327 326 326 326 326 326 326 323 321 320 319 319 319 318 317 316 316 313 309 307 305 305 302 301 302 301 300 299 298 297 300
327 326 327 326 326 326 329 330 330 329 330 329 329 328 328 326 327 326 325 323 321 321 320 320 319 318 316 315 313 311 310 310 308 305 302 301 300 299 298 298 297 298 300

GFSGL_850_thetae_033.txt.gz
Theta_e
339 341 342 343 344 346 346 346 346 347 348 348 346 343 347 342 343 346 347 342 333 329 324 323 321 320 322 324 325 328 331 332 333 333 331 330 331 330 330 329 329 329 329
342 341 341 341 342 344 345 345 346 346 347 348 345 343 341 345 341 345 346 343 332 328 323 322 322 321 322 323 324 324 328 331 333 334 334 331 331 330 330 330 329 329 329
343 343 343 343 343 343 344 345 345 346 346 347 347 342 341 344 340 344 346 339 330 328 332 326 322 322 321 325 328 328 325 329 330 334 333 329 331 331 331 330 329 328 328
343 342 343 343 343 343 343 344 345 345 346 346 348 343 340 341 339 342 345 338 337 334 339 341 340 332 325 323 327 330 329 329 330 332 334 335 332 333 330 328 329 327 329
342 342 342 342 343 343 343 343 344 345 345 345 347 348 339 340 339 339 344 343 341 341 342 343 343 342 339 329 325 328 331 331 332 334 335 334 333 333 332 329 330 329 328
341 341 342 342 343 343 343 343 343 344 344 345 346 347 347 336 336 336 340 343 343 344 342 342 344 344 343 339 332 329 330 333 332 335 335 334 334 332 330 331 329 327 329
341 341 342 342 343 343 343 343 343 343 344 345 345 346 347 343 334 335 335 342 344 344 346 345 345 345 345 344 341 338 331 332 333 330 333 333 333 330 329 326 328 329 330
341 341 342 342 343 343 343 343 343 343 343 344 345 345 346 346 338 333 336 340 343 345 347 348 348 348 347 346 344 341 337 332 333 331 331 332 331 330 327 328 327 327 325
340 341 341 341 342 343 344 343 343 343 344 344 345 346 344 344 344 343 338 338 342 346 347 347 349 349 348 348 345 343 340 337 334 330 331 332 331 327 327 327 326 328 327
341 342 342 342 343 344 343 344 345 345 344 344 344 345 345 344 342 342 346 345 341 342 343 345 346 349 348 350 346 343 341 339 334 329 331 330 327 326 328 326 327 326 323
341 342 343 345 345 346 348 349 350 350 351 346 346 344 344 345 346 343 345 348 348 344 342 342 343 347 349 350 346 344 342 340 332 331 330 330 328 327 328 327 322 318 322
340 341 342 342 345 348 349 350 350 351 354 351 349 348 350 346 346 347 347 348 349 349 347 344 342 345 351 349 346 344 343 339 332 331 330 330 328 326 326 324 319 319 318
343 344 344 345 346 349 350 351 350 347 352 353 353 350 346 346 345 346 347 348 350 351 351 347 345 348 351 346 341 340 338 334 332 331 331 330 326 327 325 320 319 319 318
343 344 345 346 347 350 353 351 351 354 354 353 354 352 350 351 350 349 351 351 353 351 351 350 349 349 344 343 341 338 335 332 332 332 332 328 326 326 322 320 319 318 317
341 343 344 344 344 346 349 352 345 343 354 354 351 353 353 352 350 351 353 355 352 344 342 339 343 343 340 340 337 337 334 333 332 331 329 326 325 326 321 320 320 319 318
333 333 334 336 340 346 350 347 351 352 354 354 354 353 353 350 350 352 353 355 349 340 333 333 331 335 340 338 333 332 332 331 329 328 326 325 326 322 321 321 320 319 317
334 334 334 335 337 341 346 347 349 352 353 355 353 353 355 355 355 355 348 340 333 336 337 332 330 337 336 333 334 333 330 328 328 325 324 323 323 322 322 321 320 319 315
335 334 333 334 336 349 349 348 348 350 352 354 356 354 355 356 343 335 336 337 334 335 334 331 331 336 334 334 331 327 328 326 324 324 323 322 321 319 319 318 317 314 311
335 332 333 334 335 342 345 346 346 347 349 349 350 349 342 335 335 333 334 334 334 333 333 331 337 335 334 331 329 328 327 325 324 322 321 319 318 317 317 315 313 310 306
334 333 334 341 340 342 342 340 338 335 334 332 333 330 333 332 333 332 332 332 333 333 333 337 336 335 333 333 329 326 325 324 322 320 319 318 316 315 313 311 309 307 306
336 334 333 336 337 338 337 333 335 334 333 332 331 328 332 333 332 332 332 332 334 337 338 336 337 336 331 329 325 324 323 321 320 318 318 315 312 311 309 308 307 306 305
336 336 334 333 332 331 329 330 330 330 332 331 331 331 331 333 332 336 337 338 338 337 336 333 330 328 326 325 324 323 321 318 318 317 314 311 307 306 308 307 306 306 305
333 333 335 336 336 334 333 332 333 333 332 333 332 331 332 335 336 337 337 334 331 328 325 323 322 323 324 323 322 319 318 317 315 314 312 309 306 307 307 306 306 305 304
334 333 332 331 331 334 335 335 335 335 335 335 335 333 334 336 336 334 330 326 322 321 322 322 323 322 321 320 318 317 315 315 312 309 309 307 307 305 306 306 305 304 303
328 330 331 332 332 331 329 330 329 329 332 333 333 333 332 333 332 330 327 326 323 321 321 321 321 321 319 318 317 316 314 311 308 307 307 307 304 304 305 304 303 302 303
327 327 326 326 325 328 329 328 326 327 327 327 328 329 330 331 331 330 328 326 324 322 320 320 319 318 317 316 316 315 313 309 308 305 303 303 302 304 303 302 302 302 302

GFSGL_850_thetae_036.txt.gz
Theta_e
340 338 340 342 344 344 346 346 346 347 349 348 349 347 350 352 348 341 345 351 338 330 325 326 322 325 336 337 337 337 336 335 334 333 335 335 331 330 334 332 333 333 334
344 340 337 338 340 341 342 344 345 346 346 347 348 348 347 348 352 342 339 349 343 337 328 326 323 325 321 328 338 336 336 336 335 336 336 336 335 335 336 332 334 333 333
353 347 343 338 339 341 340 340 342 344 346 346 346 348 347 346 346 346 338 340 344 342 335 328 325 323 322 331 330 336 338 337 336 335 335 337 335 336 336 334 336 334 333
353 354 351 343 340 339 339 339 341 343 345 345 346 346 348 344 340 340 339 338 342 344 338 332 327 326 322 322 323 323 336 336 338 337 336 335 336 336 336 334 334 334 333
352 354 353 343 343 342 341 341 342 343 343 345 345 346 346 348 344 337 335 335 339 343 340 332 329 335 338 337 329 328 334 335 336 337 337 336 336 335 335 335 334 333 333
350 350 352 350 345 343 344 344 343 343 343 344 345 345 346 347 349 338 332 333 334 340 342 337 338 340 341 342 341 334 331 328 329 336 337 336 336 336 335 334 333 334 332
345 347 348 349 346 344 347 347 344 343 344 344 344 345 345 345 346 342 332 331 337 339 340 342 345 347 342 343 344 342 336 333 330 338 338 337 337 338 336 336 335 333 332
342 345 342 345 345 348 348 344 344 345 345 344 344 344 345 345 345 345 345 337 338 344 345 343 345 346 345 343 344 345 343 340 339 333 338 339 338 338 337 335 334 331 331
340 340 342 343 352 356 350 348 353 356 355 354 355 349 344 345 344 344 345 347 341 339 342 343 344 344 346 347 347 346 345 343 341 338 332 336 332 336 334 334 333 333 331
334 342 345 344 346 346 346 351 352 357 357 357 357 352 347 345 345 343 343 346 348 346 344 345 343 343 344 347 348 348 346 346 343 341 335 334 332 334 332 328 332 331 331
352 353 352 343 343 344 345 346 347 346 354 355 356 356 352 345 347 345 344 344 346 348 348 347 347 342 342 344 347 349 349 346 344 342 340 334 332 334 331 326 328 331 328
352 354 353 347 352 356 350 349 350 355 354 353 347 346 345 343 345 347 344 345 341 345 348 346 348 348 344 342 346 349 348 345 344 343 338 335 335 335 334 333 329 327 325
348 345 352 356 355 354 355 356 358 357 356 357 358 354 355 358 353 349 346 345 345 346 349 352 352 351 348 346 348 348 347 342 342 340 335 336 334 334 332 331 328 321 319
341 345 352 356 356 356 358 359 359 359 358 357 357 354 352 351 357 358 354 350 351 351 350 353 352 351 349 347 347 346 343 336 339 337 336 335 334 333 332 329 326 323 322
349 355 357 356 353 357 354 359 359 358 358 358 356 354 354 354 359 359 356 355 353 353 351 351 351 350 347 346 341 342 335 334 337 337 335 335 334 331 329 327 325 324 323
353 353 353 353 356 357 358 359 357 357 356 353 349 348 356 358 359 359 357 357 353 352 351 347 346 344 343 341 339 337 335 337 336 335 335 334 333 330 328 326 325 324 323
347 345 351 348 349 350 354 355 357 357 354 354 357 357 355 355 357 358 356 355 353 352 351 345 337 332 335 332 333 332 333 334 335 335 334 333 331 329 327 326 325 324 321
335 334 339 335 338 345 347 348 354 353 352 351 350 354 354 352 355 352 355 355 352 348 345 341 337 337 335 334 333 334 336 333 335 334 332 331 329 327 326 325 324 321 319
343 340 335 336 335 337 339 342 344 347 346 346 346 347 350 351 348 351 349 345 342 338 336 337 337 335 333 331 334 335 333 334 334 332 330 328 327 326 325 322 321 319 316
332 331 337 339 340 340 340 338 338 339 338 336 336 337 337 335 334 332 333 331 329 336 336 337 336 334 333 334 334 334 333 331 330 329 328 327 325 324 322 321 318 315 311
339 337 339 341 340 336 337 338 337 336 335 333 330 329 329 329 329 327 326 329 332 332 334 334 336 337 335 334 333 332 331 329 329 328 326 325 324 322 320 317 314 311 310
337 340 338 338 338 337 336 336 335 336 335 334 332 331 331 331 331 332 332 332 332 332 334 334 336 336 335 334 332 331 329 328 327 325 324 322 320 319 316 313 311 310 309
338 337 339 340 338 336 337 337 336 334 333 333 333 331 332 331 332 333 333 332 332 333 336 336 336 335 334 332 330 328 326 325 323 321 320 319 318 316 313 311 310 309 309
338 337 336 334 336 336 335 333 334 335 336 336 331 332 332 332 332 332 332 333 332 332 332 332 330 329 328 327 326 324 322 321 320 320 319 318 316 313 311 310 310 309 308
333 334 333 334 335 334 334 332 332 334 334 333 334 334 332 330 332 332 330 328 327 327 326 326 326 325 324 323 322 321 319 318 317 316 315 314 312 311 310 310 309 308 307
328 329 327 327 328 329 329 330 330 330 331 331 330 330 330 329 330 330 329 328 326 326 325 325 324 324 322 321 320 318 317 314 312 309 311 311 311 310 309 309 308 306 306

GFSGL_850_thetae_039.txt.gz
Theta_e
345 346 347 345 345 345 346 348 349 351 355 351 355 352 351 353 353 351 351 352 351 337 340 342 332 328 340 340 340 339 338 337 335 335 336 337 336 331 335 334 336 336 335
355 348 344 343 343 344 345 347 347 347 348 352 352 353 351 349 353 352 352 350 353 344 332 332 334 330 323 336 340 339 339 338 338 336 336 339 338 338 334 339 338 334 334
358 357 354 346 344 342 342 341 344 345 347 349 351 351 349 349 347 348 351 341 348 349 337 333 329 331 327 328 328 339 340 339 339 339 338 338 339 339 339 338 337 337 334
357 359 359 357 346 340 340 338 338 340 342 344 349 348 348 347 348 343 340 340 333 342 342 339 337 333 328 324 327 327 335 339 340 340 339 337 337 338 338 338 338 337 338
355 357 358 359 358 354 346 339 336 338 339 340 343 347 347 346 350 348 341 338 335 333 347 348 345 340 331 328 326 326 328 333 337 339 340 340 338 337 338 337 337 336 335
353 355 357 358 360 359 356 348 339 337 337 338 341 343 346 348 350 351 351 346 344 339 337 348 346 346 337 330 330 334 336 334 335 339 338 340 339 339 339 338 337 336 335
351 355 355 357 358 360 359 358 351 342 340 338 340 343 343 345 346 347 348 350 346 341 339 337 343 351 344 339 334 337 339 338 338 337 336 339 340 341 339 338 337 336 335
353 352 355 356 359 358 357 358 359 357 351 349 347 345 345 344 344 345 346 347 348 347 341 338 342 347 350 343 340 339 341 342 342 341 338 334 336 337 341 340 335 335 335
347 348 350 358 358 360 354 351 354 359 357 354 356 356 349 345 344 344 345 348 348 347 345 343 345 347 344 344 343 342 340 341 343 343 342 337 337 339 340 336 337 335 335
344 346 350 354 359 360 357 355 354 357 356 359 359 359 358 346 343 343 344 347 350 347 347 347 343 340 345 342 343 345 344 344 345 346 345 342 339 336 333 333 334 334 333
348 353 356 354 358 357 354 358 355 356 360 360 359 358 357 352 346 343 343 346 346 347 351 351 351 346 344 347 347 342 338 344 347 347 346 344 341 336 334 333 330 331 333
346 352 355 356 357 359 356 358 359 360 360 356 360 360 360 352 351 351 347 345 348 352 352 352 354 354 353 352 352 349 346 349 348 347 345 344 341 339 336 333 331 330 332
350 352 355 358 357 357 359 360 362 361 360 361 360 361 360 361 362 361 358 350 344 346 345 352 356 353 353 354 352 351 352 350 348 346 345 342 341 338 336 334 333 333 329
354 355 356 359 359 360 361 363 362 362 362 361 361 360 360 360 359 361 362 359 357 356 355 353 352 354 355 353 353 351 349 350 346 344 343 336 334 337 336 335 333 333 329
360 361 361 362 362 363 361 362 362 361 361 361 361 360 360 360 360 360 358 359 358 358 358 357 355 352 353 354 352 350 347 348 346 343 333 335 335 336 335 334 332 330 328
360 361 360 360 362 362 363 363 361 361 361 360 359 359 360 359 359 358 357 358 358 359 359 358 356 353 351 352 351 348 347 346 342 334 335 336 335 336 334 333 331 328 327
359 356 356 356 355 359 358 358 358 359 358 356 357 358 357 357 357 356 353 354 357 360 359 358 356 350 350 352 351 347 345 344 336 336 333 334 336 334 333 331 329 328 327
350 350 350 353 355 354 355 356 356 357 357 355 352 350 347 349 351 354 356 353 355 355 353 354 353 352 349 349 349 345 344 339 337 335 335 336 335 333 331 330 328 328 326
348 345 346 347 347 342 336 336 337 339 340 341 342 341 342 343 344 348 350 352 351 349 343 341 340 339 340 342 342 340 339 336 335 336 336 336 334 332 330 329 328 327 324
335 342 344 345 344 345 342 341 338 338 338 336 335 334 334 333 333 332 340 340 339 337 335 337 336 335 334 334 335 335 334 334 335 335 336 333 333 331 329 328 326 324 322
341 342 343 344 340 340 340 341 339 339 339 338 335 332 329 331 332 333 334 333 331 330 331 330 329 330 333 335 334 334 335 335 335 335 333 332 330 329 327 325 324 322 320
342 340 340 340 339 339 338 339 339 339 338 337 336 334 330 333 333 332 332 335 330 330 331 332 334 335 334 334 335 335 334 334 333 332 331 329 328 327 325 323 321 319 316
338 340 340 340 339 339 339 338 337 336 335 334 333 333 332 333 332 332 333 333 333 333 332 334 334 336 336 335 333 332 332 331 330 330 328 327 326 325 322 321 318 315 313
337 336 337 337 337 336 336 335 334 334 333 334 335 333 333 333 333 334 334 334 334 333 334 334 333 335 334 333 332 332 330 330 329 327 326 325 323 321 320 318 315 313 312
332 332 332 334 334 334 334 334 334 335 333 333 332 332 332 333 332 332 332 332 332 333 333 334 333 333 332 331 330 329 327 326 324 324 323 322 321 320 318 316 314 312 312
327 327 327 326 326 328 328 328 329 330 331 331 331 331 331 332 331 331 330 329 329 329 328 328 328 328 328 327 325 324 323 322 322 321 321 320 319 317 315 314 313 312 311

GFSGL_850_thetae_042.txt.gz
Theta_e
351 344 341 339 340 339 340 343 350 352 358 349 356 352 351 350 346 349 348 352 346 348 346 337 330 329 333 341 340 339 338 337 336 334 338 337 337 336 335 333 334 332 334
351 349 343 340 341 342 342 343 344 349 350 356 351 356 354 353 343 345 343 347 353 350 347 342 339 332 329 335 341 340 338 338 338 337 336 339 339 339 338 335 331 336 338
360 359 357 351 350 345 343 343 344 344 346 347 351 352 353 353 351 346 343 344 343 353 351 345 338 334 328 325 331 339 340 339 338 338 337 337 338 338 339 338 336 336 334
358 361 360 359 357 354 350 347 344 345 344 345 346 350 353 350 349 348 348 346 341 345 354 350 339 336 330 327 325 324 332 341 338 337 337 336 337 339 339 338 337 337 337
356 360 359 359 359 359 359 355 349 345 344 343 344 347 350 351 349 348 347 348 346 340 339 346 337 331 333 334 330 327 325 330 340 340 339 339 338 338 338 338 338 337 337
358 358 359 359 360 360 359 358 357 353 349 345 342 341 344 345 344 345 345 346 347 347 340 336 339 335 333 335 337 333 328 325 325 331 339 339 340 340 339 338 337 337 337
356 357 359 360 360 360 359 360 360 355 354 351 345 340 338 340 341 343 344 346 348 349 346 339 339 341 341 338 339 340 334 329 330 334 333 337 339 339 340 340 339 338 336
353 353 355 358 360 360 360 360 360 360 357 352 349 345 340 337 339 341 342 344 346 347 348 346 342 340 343 341 337 341 339 336 332 337 338 338 338 339 340 340 340 339 337
352 353 353 356 358 359 360 359 360 360 360 358 354 349 345 339 338 340 342 347 349 350 348 348 347 346 342 347 346 334 336 339 338 336 339 340 340 340 336 337 340 339 337
343 342 348 351 354 358 360 360 360 359 359 360 357 356 353 347 344 344 348 352 351 351 352 348 349 349 351 350 350 349 345 338 339 340 341 340 340 341 338 338 340 337 334
342 344 347 346 346 352 359 363 362 361 362 364 363 361 357 351 348 351 355 360 355 356 356 355 353 352 355 355 354 352 346 346 341 341 342 342 341 340 338 336 338 338 334
340 342 347 348 349 352 360 363 365 364 363 362 363 363 362 358 360 360 361 363 361 363 359 357 356 356 354 354 355 355 354 353 351 348 347 346 345 344 343 340 337 336 334
344 349 347 350 352 356 361 363 366 365 364 363 363 364 364 364 366 364 362 361 360 362 362 360 357 358 356 356 356 355 355 356 353 351 349 348 347 346 342 336 336 337 335
345 347 353 355 356 359 359 363 363 363 363 363 366 364 363 364 365 362 363 364 364 363 363 361 361 359 356 357 356 357 357 356 355 353 351 345 347 345 339 335 334 335 334
357 358 357 358 360 362 360 364 364 362 365 364 362 361 363 364 362 363 364 363 362 362 362 361 361 360 360 357 354 355 354 356 354 353 351 348 349 345 337 335 334 335 335
361 360 360 361 362 362 365 359 363 364 362 362 362 363 363 362 361 360 360 362 360 358 358 360 359 359 359 357 356 356 353 353 354 352 349 347 348 344 337 334 334 335 335
362 361 361 360 362 365 364 365 361 362 362 361 361 361 361 360 359 359 359 359 358 357 356 355 357 358 358 359 358 356 355 353 352 351 348 346 346 339 336 334 336 335 333
361 360 359 359 359 363 362 363 364 362 361 359 359 358 357 357 355 352 349 350 353 354 355 355 353 353 353 354 353 353 350 348 349 348 347 343 344 337 337 335 335 333 330
351 352 351 352 352 354 356 357 355 356 356 353 348 344 339 338 339 339 340 342 344 348 350 351 347 347 344 344 342 342 343 341 341 340 338 337 336 336 335 335 333 331 329
346 345 347 343 344 339 340 339 338 338 338 338 338 336 336 334 333 332 332 334 338 341 340 338 338 336 334 335 338 338 334 338 336 332 332 336 336 336 335 334 332 330 328
343 345 345 344 343 344 343 341 339 340 341 341 338 335 330 334 333 331 331 334 331 332 330 331 332 332 330 333 334 334 334 335 332 335 335 336 335 335 333 331 330 330 328
343 344 343 340 341 340 341 342 342 340 339 338 338 336 332 335 334 334 334 333 332 333 332 331 332 334 335 335 334 334 335 334 334 335 335 334 333 333 331 329 329 326 324
342 342 341 340 339 340 338 337 337 336 335 333 334 334 334 333 334 333 333 334 334 334 334 333 334 335 334 334 334 334 335 335 335 335 333 332 332 331 330 327 325 324 322
337 337 337 336 337 337 336 335 333 333 333 333 333 333 333 334 334 333 333 335 335 334 334 334 334 335 333 333 334 334 334 334 333 332 331 331 330 329 326 325 323 321 320
332 333 335 334 333 334 334 334 333 333 331 332 332 332 333 334 333 333 334 332 332 333 333 334 333 333 331 333 333 333 332 331 331 331 330 328 327 326 325 323 321 319 316
324 325 326 328 327 326 327 328 329 329 329 329 329 330 331 330 330 330 329 329 330 330 330 330 331 332 332 332 332 332 331 330 329 328 327 325 324 322 321 320 318 316 314

GFSGL_850_thetae_045.txt.gz
Theta_e
348 349 348 341 337 338 338 334 338 347 349 349 352 353 351 349 349 349 342 346 345 346 348 342 335 328 340 341 341 338 335 333 333 335 336 338 337 336 336 335 335 335 333
348 347 347 346 340 338 338 335 334 338 347 349 348 350 354 353 350 350 344 338 345 344 344 346 340 334 330 336 340 340 339 336 334 331 333 337 338 337 337 337 338 335 329
349 348 347 347 344 336 334 335 337 335 338 347 354 352 351 353 354 353 352 340 335 338 341 344 344 345 334 331 333 338 339 339 337 336 334 336 339 338 337 338 338 336 333
348 348 348 345 343 338 334 336 339 339 338 341 346 352 352 352 350 350 350 350 345 338 337 335 337 345 340 336 329 329 338 339 338 337 335 336 336 338 339 338 338 337 335
350 349 347 346 344 342 341 338 338 341 342 342 343 344 347 350 350 349 349 348 348 347 343 337 333 330 331 333 335 330 327 337 337 336 337 336 335 334 335 336 339 337 337
352 352 353 353 354 352 349 344 341 340 342 346 346 346 345 345 346 346 345 346 346 347 345 344 342 336 334 332 330 330 332 330 327 333 329 332 331 332 335 337 338 338 338
353 354 354 355 356 356 356 357 352 347 347 346 347 345 345 344 344 345 344 345 346 345 344 342 341 343 341 337 335 334 333 335 335 332 327 326 327 329 335 339 338 339 338
355 355 355 356 356 357 357 358 358 357 355 353 350 348 346 340 339 341 344 347 348 345 343 343 344 343 343 342 340 339 343 343 339 342 337 330 326 328 334 338 340 340 338
356 356 356 357 357 358 358 358 358 358 359 358 357 356 353 347 344 343 343 346 351 349 348 346 346 347 346 347 348 347 344 341 341 345 342 342 332 333 333 340 342 341 339
355 354 355 357 357 357 357 359 359 359 358 358 358 357 357 355 356 356 353 354 352 349 355 354 354 352 352 353 352 352 351 347 346 345 344 345 344 337 337 339 339 340 340
344 349 352 351 352 353 354 356 358 359 360 360 360 360 359 359 361 362 361 359 356 355 354 352 354 357 358 358 358 357 353 353 352 351 350 348 346 343 339 339 339 337 336
350 348 344 344 344 346 349 353 357 360 361 361 362 362 361 362 362 362 363 363 363 362 361 360 360 359 358 357 357 356 356 358 358 356 354 353 351 347 343 341 339 339 341
336 343 347 347 345 348 349 350 358 361 363 364 364 364 364 363 362 363 363 364 364 364 361 360 359 359 360 359 357 357 356 356 358 356 356 355 354 353 349 344 341 339 338
342 343 341 342 348 350 353 354 356 360 364 366 366 365 363 362 362 362 361 361 362 363 365 364 362 361 360 359 360 358 356 357 357 357 357 356 354 351 349 347 343 340 338
347 347 346 342 349 354 357 360 359 362 363 362 362 361 361 362 363 363 363 363 363 364 363 362 362 363 363 363 362 361 359 358 357 355 354 354 353 351 349 349 345 342 338
363 359 358 358 359 358 358 359 361 365 362 363 364 363 362 361 362 361 362 362 360 362 362 360 359 358 360 360 360 360 358 358 355 354 353 352 352 350 349 345 346 342 337
361 362 361 360 360 359 361 361 362 360 364 365 363 362 362 362 360 360 360 359 359 358 358 358 358 357 356 355 356 356 356 354 353 349 350 350 350 350 347 345 342 338 335
361 362 363 361 362 363 363 363 363 361 360 361 360 360 360 359 359 359 358 357 356 354 351 348 349 351 354 354 353 351 348 347 346 346 346 345 345 346 342 340 341 333 333
355 352 355 362 361 363 364 363 364 364 360 359 357 355 355 353 349 343 339 338 338 339 341 344 347 346 347 346 345 343 340 340 342 343 340 332 333 338 333 332 333 333 335
350 349 349 352 355 358 359 357 357 357 354 352 346 339 336 336 335 334 333 333 333 335 336 338 338 339 338 337 335 333 335 337 335 337 336 333 331 329 330 331 331 335 335
348 346 347 346 344 342 340 338 339 338 339 339 337 335 333 333 332 332 331 331 333 334 334 334 330 329 331 333 331 333 334 336 335 334 334 334 335 335 335 335 335 335 334
343 346 343 344 344 342 341 341 341 340 338 338 336 333 333 334 333 332 332 332 333 333 332 333 332 332 332 334 334 334 334 334 334 335 335 335 335 335 334 331 334 333 332
344 344 341 340 341 341 341 340 339 338 336 334 334 333 333 333 333 334 334 334 334 333 333 333 333 333 334 333 334 334 334 334 334 335 335 335 334 334 333 333 331 330 329
340 340 339 339 337 335 334 334 333 333 333 332 332 333 333 334 334 333 334 334 334 333 332 333 333 335 333 333 333 334 334 334 334 333 333 329 328 332 332 330 329 328 328
335 336 336 336 335 333 333 332 331 331 331 331 331 332 332 332 332 332 332 332 332 332 330 332 333 332 332 332 334 333 333 332 333 332 331 331 331 331 330 327 325 326 324
329 328 329 331 332 332 331 330 329 329 329 329 329 330 329 329 329 329 329 328 329 329 329 329 329 330 331 332 333 332 332 330 331 331 330 330 328 328 327 326 325 323 320

GFSGL_850_thetae_048.txt.gz
Theta_e
346 346 346 346 346 343 339 337 337 337 340 345 346 348 352 352 350 350 349 348 343 340 343 343 334 328 334 335 335 335 334 336 335 335 337 337 337 337 336 336 335 335 335
345 346 346 346 346 345 340 336 334 335 337 344 347 348 352 352 353 351 349 349 346 338 340 342 341 340 332 330 337 337 337 336 334 329 331 334 334 336 337 336 336 337 337
346 347 347 347 347 346 342 337 334 334 335 339 347 347 348 350 350 352 351 349 350 339 335 339 335 338 340 336 330 336 338 338 338 337 335 333 333 334 337 337 337 337 337
347 346 346 347 347 345 342 339 335 333 334 334 337 345 346 347 349 349 351 352 350 347 342 334 333 335 338 338 339 332 331 335 338 339 339 337 336 334 336 337 337 337 338
348 347 343 342 344 343 340 338 335 333 333 334 335 338 342 348 350 350 350 349 348 347 347 346 343 337 333 333 337 340 343 335 334 339 340 339 338 337 336 335 336 336 337
349 349 348 346 342 341 340 337 335 333 332 334 337 337 337 339 346 351 352 351 350 350 349 347 346 346 344 340 335 333 335 337 343 335 336 340 338 337 336 337 336 337 338
349 349 349 349 348 346 345 344 342 340 336 335 335 338 340 340 341 342 344 347 348 348 348 348 346 344 343 342 341 340 339 334 334 336 340 336 332 331 331 333 335 334 334
350 350 350 351 351 352 352 353 352 352 351 348 344 341 340 339 341 344 346 348 349 348 347 347 347 344 344 343 343 343 342 341 340 338 340 330 330 336 337 333 330 332 334
351 351 351 352 352 352 353 355 355 356 356 356 356 355 354 352 350 349 351 352 352 350 350 349 347 346 344 344 347 348 347 346 347 346 345 344 342 341 341 343 337 338 338
352 352 352 352 353 353 353 354 355 356 356 356 357 356 356 357 357 357 358 358 355 354 354 351 351 350 352 354 355 355 353 350 353 352 352 351 351 348 346 347 346 337 338
354 354 354 353 354 354 355 356 356 357 357 357 357 357 358 358 359 360 360 361 359 359 358 356 356 356 357 357 358 358 356 355 356 357 357 357 356 355 354 351 348 347 337
355 355 355 355 356 357 356 356 356 357 358 358 359 359 359 360 360 361 361 362 362 362 361 361 361 360 359 359 358 358 357 357 357 358 358 356 354 352 354 355 353 350 343
340 343 352 354 355 355 354 353 354 355 358 359 360 360 360 361 361 362 362 363 362 361 360 360 360 360 359 359 358 358 358 359 358 358 358 358 357 356 355 354 353 351 346
345 343 337 340 346 349 350 350 351 351 352 355 358 361 362 362 362 361 360 360 361 362 362 361 360 361 362 361 362 362 362 362 362 360 358 357 357 357 356 352 350 349 345
355 350 344 340 338 341 346 351 353 353 354 353 354 357 360 361 360 360 360 361 362 361 362 362 362 361 360 360 360 360 361 362 362 359 358 356 355 354 353 352 352 348 343
347 356 358 355 352 353 352 353 358 358 357 359 359 361 362 362 360 360 360 362 360 361 361 361 361 362 361 360 359 357 355 354 354 355 355 353 351 350 349 350 349 348 344
341 351 359 361 364 363 361 361 361 360 360 360 362 360 359 362 363 363 362 361 361 358 357 357 356 356 356 355 354 354 356 356 352 351 350 347 349 346 347 346 347 345 341
341 351 359 358 361 361 362 361 359 359 360 360 364 362 361 361 359 360 359 359 359 358 357 355 352 349 345 344 345 345 345 345 345 343 343 344 342 336 335 338 340 335 332
345 349 354 353 356 361 362 362 363 364 363 361 359 356 358 358 357 357 356 352 345 340 338 337 336 337 337 339 342 342 339 335 334 336 336 336 337 333 334 335 332 329 331
346 347 349 351 353 358 361 362 363 364 363 358 355 355 354 351 344 340 336 335 334 333 333 333 334 333 331 331 331 331 332 332 335 334 335 335 334 332 329 330 332 330 332
345 345 347 347 349 351 355 358 360 359 354 345 342 338 337 334 333 331 330 330 330 331 331 331 331 329 329 330 331 334 334 332 332 332 333 334 335 334 335 334 330 333 334
343 343 346 345 345 343 342 344 346 345 341 339 336 334 333 332 332 332 332 332 333 333 332 331 332 332 332 333 333 333 333 333 333 334 334 334 334 334 335 334 334 333 334
346 345 345 345 341 339 339 340 339 338 336 334 333 333 334 333 333 334 334 334 333 332 332 333 333 334 333 332 333 334 335 335 334 334 334 334 333 333 333 333 333 334 333
345 344 343 343 342 341 340 339 337 336 334 333 332 332 333 333 333 333 332 333 332 333 331 333 334 334 331 331 333 334 333 333 333 334 333 333 331 333 333 333 333 333 332
341 340 340 338 338 337 337 336 334 333 332 332 332 331 331 331 331 331 330 331 331 331 330 331 332 332 332 332 334 333 332 332 332 331 330 331 329 330 332 332 331 330 329
333 332 331 332 333 332 332 331 330 330 330 330 330 329 328 328 328 327 327 327 327 327 328 329 328 329 329 332 333 333 332 331 330 329 330 331 331 331 331 331 329 329 329

GFSGL_850_thetae_051.txt.gz
Theta_e
345 344 344 344 345 345 343 339 336 335 336 339 341 342 345 347 349 349 348 347 346 342 342 341 338 333 333 336 338 338 337 337 335 333 336 336 336 336 336 337 336 336 335
345 345 345 345 345 345 345 341 337 336 337 337 340 342 345 347 349 351 350 349 348 347 345 341 341 341 333 328 333 334 334 334 334 331 331 331 332 334 335 336 336 336 336
346 346 346 346 345 345 345 345 342 337 336 337 339 340 343 344 349 352 352 352 350 349 348 344 336 339 340 337 331 329 333 336 338 337 335 335 336 334 332 332 334 337 336
346 346 346 346 345 345 345 345 345 340 336 335 336 338 341 344 344 347 349 350 350 349 349 349 344 336 334 337 338 339 337 332 333 338 338 336 337 337 337 336 334 335 336
347 346 346 346 345 345 345 345 344 340 337 334 334 334 335 340 345 346 346 347 349 348 347 347 345 344 342 340 334 331 333 338 342 338 334 333 333 336 336 333 335 334 334
347 347 347 346 345 343 343 343 342 340 337 336 334 333 333 333 334 338 344 347 347 346 347 346 346 346 346 346 346 344 341 337 336 339 339 341 336 334 331 331 335 337 337
348 348 348 347 345 342 341 342 342 339 338 335 333 333 333 334 335 334 335 339 344 347 348 347 347 346 346 347 347 346 346 346 344 344 342 341 338 332 339 340 336 334 336
348 349 349 348 348 348 346 345 343 343 342 340 338 336 334 333 334 337 338 339 340 341 343 344 345 345 346 346 348 349 347 346 347 347 347 345 344 343 344 343 342 344 341
348 349 349 349 349 349 349 349 349 349 349 350 349 348 348 346 344 342 341 343 344 345 346 347 347 347 347 348 349 349 348 344 346 347 348 348 350 351 351 352 351 347 344
348 349 349 349 349 350 350 350 351 352 353 354 355 355 355 356 356 356 357 356 356 356 356 355 355 355 355 355 356 355 353 351 354 353 354 355 355 356 356 356 352 344 342
349 350 350 350 350 350 351 351 352 352 353 354 355 356 356 356 357 357 358 358 358 358 358 358 358 358 359 359 359 358 357 357 357 355 355 355 356 356 356 355 355 353 351
352 352 352 352 352 352 352 353 353 354 355 355 356 356 357 357 357 358 359 359 359 360 360 360 359 358 358 359 359 358 357 357 359 359 359 358 358 357 354 354 355 356 356
347 354 355 356 356 356 356 356 356 356 356 356 356 355 355 356 356 358 359 360 361 362 361 358 359 359 359 360 360 360 359 361 362 361 361 358 358 357 358 358 358 355 355
343 343 342 344 350 353 355 357 358 357 356 355 354 353 354 354 353 356 359 361 360 358 357 357 358 359 361 361 361 360 362 363 364 362 361 359 358 358 357 357 354 351 350
351 349 348 346 344 344 347 350 352 353 354 353 351 352 353 353 353 356 360 361 359 359 360 361 361 361 360 360 360 360 361 361 360 356 353 354 354 355 353 349 347 347 347
341 346 349 348 348 347 345 345 345 345 347 350 352 355 356 357 358 361 362 360 360 359 361 359 359 360 361 361 361 360 358 357 356 354 354 353 351 348 346 344 343 342 343
334 333 337 341 348 351 353 354 352 353 351 352 357 358 358 358 353 358 360 359 359 359 359 358 359 358 357 357 356 355 353 350 348 348 346 345 344 343 342 339 334 337 338
338 340 343 351 356 358 360 360 360 360 360 360 359 360 360 360 360 358 358 361 360 358 358 358 357 356 352 347 342 339 341 341 341 342 340 336 335 337 338 336 336 334 333
338 339 344 350 352 352 355 360 360 362 361 358 358 358 358 360 360 362 359 357 356 355 354 349 343 338 337 337 337 338 337 335 334 333 334 335 335 336 333 333 331 331 330
337 337 342 346 348 349 351 354 358 359 358 359 359 356 355 354 353 352 351 351 345 340 336 334 334 334 332 331 330 330 330 332 332 331 332 333 335 333 334 331 331 330 330
339 338 337 339 344 347 347 349 352 357 362 361 356 352 350 350 346 340 336 333 332 332 332 332 331 331 330 329 330 330 332 333 333 333 332 332 333 333 334 332 331 333 331
337 334 340 341 344 345 345 346 350 355 357 352 350 344 340 340 336 333 332 331 331 331 332 332 331 332 332 332 333 332 333 333 333 333 333 333 334 334 332 334 332 333 333
329 338 342 342 344 344 343 344 349 350 345 340 338 337 336 334 333 332 332 334 334 333 332 332 332 333 332 333 332 332 334 334 334 334 334 334 335 335 336 332 332 332 333
336 339 340 344 345 342 341 340 341 341 339 336 334 333 333 333 332 331 332 333 332 332 331 335 335 333 333 332 331 332 333 333 333 333 334 333 331 333 331 330 331 333 333
334 335 339 344 343 341 339 338 338 336 335 334 332 332 332 331 331 331 330 331 331 332 330 329 332 332 332 332 331 333 333 332 332 331 330 330 330 328 332 333 332 332 332
337 337 337 338 337 336 334 336 332 332 332 331 331 330 329 328 327 327 327 326 326 326 327 327 328 328 328 328 329 332 333 331 330 329 328 330 331 331 331 332 332 331 330

GFSGL_850_thetae_054.txt.gz
Theta_e
344 345 345 345 346 343 343 344 344 340 336 334 339 342 343 344 344 344 348 346 345 343 341 341 342 338 334 337 338 337 338 338 338 334 333 331 333 334 333 335 336 336 336
347 346 346 345 345 343 343 344 344 343 338 335 335 338 339 342 344 346 347 348 348 347 346 344 339 339 338 338 336 333 334 335 337 335 333 332 332 333 333 332 331 333 334
347 347 347 346 345 344 343 344 344 345 342 337 336 335 336 339 344 347 348 349 350 350 349 348 347 345 339 338 339 338 332 329 330 333 332 331 332 333 334 335 335 334 333
346 346 346 346 345 344 344 344 344 345 344 340 336 334 333 335 340 343 346 350 351 351 350 349 348 347 346 336 332 334 336 338 339 339 335 332 331 329 332 331 331 332 333
346 346 346 345 345 345 345 344 344 345 344 344 340 335 333 334 334 338 339 342 346 348 349 347 345 343 341 341 343 339 337 334 333 333 334 335 334 335 335 336 336 335 333
346 346 346 346 345 345 345 344 344 344 344 344 342 337 334 332 331 331 335 337 338 340 340 341 343 343 343 344 345 345 346 346 346 345 344 342 339 336 333 334 336 337 337
345 346 346 347 346 346 345 345 344 344 344 343 342 340 335 332 331 330 331 332 334 336 337 338 340 341 343 344 344 345 347 349 350 350 350 347 345 344 345 345 346 346 346
345 346 346 346 345 346 345 345 343 343 342 341 340 338 337 333 331 331 331 333 333 333 333 335 337 338 340 342 343 344 344 346 348 350 352 350 352 352 352 353 353 353 352
346 346 346 347 347 347 347 345 343 342 342 341 341 341 340 337 335 333 334 334 335 336 337 338 339 340 341 343 345 347 346 347 347 345 345 346 350 353 355 356 355 352 352
346 347 348 348 348 348 348 348 348 348 348 348 347 347 348 349 349 350 350 349 348 347 348 348 349 351 353 354 355 355 355 355 355 355 356 355 354 354 354 354 354 355 355
347 347 348 348 348 349 349 349 350 350 350 351 352 352 353 354 355 355 356 357 357 357 357 357 357 357 358 358 359 359 359 358 357 356 355 355 355 354 354 353 353 355 355
348 348 348 348 349 349 350 350 350 351 351 352 353 353 354 354 355 355 356 357 357 358 358 358 359 359 360 360 359 357 356 356 358 356 356 357 356 356 357 358 359 360 357
349 349 350 351 351 351 351 352 352 352 352 353 353 354 355 355 354 353 354 356 357 359 359 359 360 359 357 357 357 358 359 361 360 359 358 357 358 360 360 356 354 353 353
352 352 354 354 354 354 355 355 356 355 355 355 355 355 354 352 351 352 353 353 355 359 360 358 354 355 355 357 358 360 360 361 361 360 361 361 359 356 354 353 352 349 348
350 349 349 349 350 352 354 355 356 356 356 354 353 354 354 352 350 353 355 355 356 359 358 360 359 357 357 358 359 360 360 362 362 361 358 356 355 354 350 347 346 344 341
346 348 351 351 349 346 344 343 344 346 349 352 351 352 352 353 355 357 358 357 357 358 360 359 356 356 357 357 358 360 360 359 357 356 354 352 346 345 344 343 341 338 336
333 334 337 339 345 350 351 349 347 348 348 345 346 350 353 357 359 360 355 353 358 359 358 356 356 356 356 358 357 357 357 355 353 350 345 341 341 341 335 335 335 334 334
337 335 336 337 341 345 350 353 355 356 356 357 358 358 358 360 361 360 357 358 356 356 357 358 357 356 355 356 356 355 352 342 338 339 338 335 333 334 334 334 333 333 331
338 334 333 343 349 350 351 353 357 358 357 358 358 357 356 358 358 361 360 361 359 358 356 356 355 354 354 351 343 337 336 335 332 330 330 331 332 332 333 334 332 332 330
337 337 333 334 339 346 347 350 355 357 358 357 356 354 355 355 354 354 352 354 354 353 351 349 345 340 336 335 333 331 330 330 331 332 332 332 332 333 333 332 333 333 330
330 338 337 332 328 332 338 345 347 351 356 360 359 358 355 353 350 348 349 349 348 346 342 336 333 333 332 331 330 330 330 331 332 332 333 332 332 332 333 334 333 332 331
317 330 337 332 326 336 335 341 344 345 349 353 355 352 351 350 344 342 342 339 338 336 332 331 331 331 331 331 332 333 332 332 333 333 333 333 333 333 333 332 333 332 332
322 325 329 329 332 337 336 342 344 346 346 350 349 349 346 343 340 337 335 334 332 331 332 332 333 333 334 333 332 332 333 333 334 334 333 333 332 331 331 334 332 331 332
328 327 330 330 336 339 341 342 342 345 348 346 343 341 339 337 335 334 332 333 334 333 331 332 333 334 334 333 332 331 332 333 333 332 333 333 332 330 332 329 331 332 331
330 331 332 336 339 341 344 343 340 341 341 339 337 336 334 333 332 331 330 331 332 331 330 330 331 332 332 331 331 331 332 333 332 331 330 330 330 330 327 331 334 331 332
328 327 331 333 334 338 339 338 337 336 334 334 333 332 332 331 330 329 329 328 327 327 326 326 327 327 327 327 327 327 330 332 331 330 329 329 328 330 331 330 331 332 332

GFSGL_850_thetae_057.txt.gz
Theta_e
341 341 340 341 342 344 345 343 342 343 343 340 334 334 340 341 342 343 344 346 348 347 346 342 342 343 344 338 337 337 336 337 337 339 336 331 330 330 330 330 330 330 331
342 341 342 342 343 344 345 346 343 342 343 343 338 333 337 340 342 343 344 344 346 346 344 345 343 341 340 340 339 337 336 335 335 331 330 330 329 329 330 332 332 333 334
346 344 343 343 344 344 345 345 344 343 343 344 341 335 333 335 338 342 344 345 346 346 347 348 347 348 347 345 339 338 340 340 340 338 333 333 332 332 331 330 329 329 330
347 346 346 345 345 345 345 345 344 343 343 344 343 337 334 332 333 338 343 345 346 346 345 347 348 348 348 346 346 343 337 334 335 336 335 338 337 332 328 327 329 329 332
346 346 346 345 346 346 346 345 344 343 343 344 344 343 337 335 333 333 338 342 345 345 345 345 346 344 342 342 343 341 342 344 343 345 347 344 344 345 343 342 343 342 341
345 345 345 346 346 346 346 346 345 344 344 344 344 344 344 339 332 331 331 335 336 338 341 341 341 341 339 340 341 343 346 346 346 347 351 351 349 348 348 348 350 349 349
345 345 345 345 346 346 346 345 345 344 344 344 344 345 344 342 336 331 330 331 331 332 333 334 334 335 335 337 338 340 342 345 347 348 349 349 347 347 349 351 353 353 353
345 345 345 345 345 346 346 346 345 345 344 344 344 344 344 341 337 333 331 331 331 331 330 330 330 331 332 333 335 338 339 340 341 342 344 344 347 349 352 354 355 355 355
345 345 345 345 345 346 346 346 345 345 344 343 343 343 342 338 336 334 335 336 334 331 331 331 332 332 333 334 335 337 339 341 343 345 345 348 352 355 356 356 356 355 356
344 345 345 343 343 343 343 344 344 344 343 343 341 339 339 338 338 337 338 339 337 334 333 332 333 334 335 337 340 343 347 351 354 356 357 358 357 356 355 355 353 354 354
345 345 342 342 344 344 346 347 347 346 346 345 345 344 345 345 345 346 347 347 346 346 348 350 352 354 355 356 357 357 358 358 359 359 357 357 357 356 355 355 356 357 357
346 346 344 345 346 347 348 348 348 348 348 349 349 350 351 351 352 353 354 355 355 356 356 357 357 357 358 359 360 360 360 358 357 357 356 356 355 355 356 359 359 356 356
346 346 346 347 348 348 348 349 350 350 350 350 351 351 352 352 353 354 354 355 355 357 357 357 358 359 359 360 359 357 355 356 359 358 356 357 356 358 359 359 356 354 352
347 347 348 348 349 349 349 350 350 350 351 352 355 355 353 353 354 353 352 353 353 354 355 354 358 359 360 357 356 354 355 357 359 360 360 357 358 358 359 357 353 347 343
348 348 349 349 350 351 351 354 352 353 355 355 355 357 356 355 352 350 352 351 351 350 352 355 359 359 356 355 356 356 357 359 361 361 361 360 359 359 356 349 343 340 340
355 353 353 354 353 353 354 354 354 354 354 352 355 357 356 354 356 355 353 353 355 356 358 358 358 357 357 356 355 357 357 358 359 359 358 356 354 352 346 339 337 337 335
343 342 347 352 356 353 344 347 345 344 347 350 354 355 354 352 356 357 357 357 357 358 359 358 360 357 358 358 358 358 358 357 357 356 354 351 339 338 338 337 336 334 336
338 337 334 336 341 352 350 350 349 350 352 352 350 349 349 350 352 358 359 360 357 354 355 359 357 356 359 358 356 355 354 355 354 347 339 337 335 333 334 336 335 335 333
338 340 344 347 349 351 349 348 350 353 357 357 356 356 357 357 359 360 360 360 358 359 359 360 358 360 357 355 354 353 351 343 337 336 333 330 331 332 334 335 335 333 333
324 339 339 340 344 348 348 346 349 352 355 358 358 357 354 354 355 354 355 358 359 359 360 359 356 354 351 350 347 340 335 333 331 330 330 332 332 332 334 334 334 335 333
317 328 338 335 334 338 337 341 345 350 354 356 357 357 355 354 355 352 351 350 350 349 349 348 348 348 344 338 334 332 331 330 330 330 331 332 334 335 334 334 334 334 333
314 317 324 337 337 336 331 335 335 337 342 347 352 355 355 355 352 348 346 346 346 346 347 346 345 340 334 332 331 330 331 332 332 332 333 333 334 334 334 333 333 332 333
314 317 322 326 335 339 335 339 336 337 337 340 341 350 350 347 346 346 342 340 340 338 335 334 333 332 331 332 331 332 332 333 334 334 334 334 334 335 335 334 332 332 332
318 319 327 331 335 337 339 340 340 340 340 339 341 343 347 343 341 340 337 335 334 333 332 332 332 332 332 333 336 333 332 332 333 333 332 333 334 334 333 332 332 331 330
321 325 328 329 330 334 337 339 342 342 341 342 344 344 342 340 338 336 334 333 332 332 332 331 330 331 331 332 331 331 331 331 333 333 332 331 330 332 330 330 329 332 334
322 322 326 327 329 333 335 337 338 339 338 338 338 339 337 335 334 332 331 330 330 329 329 328 328 328 327 326 325 326 328 330 332 332 331 330 330 329 329 331 332 330 331

GFSGL_850_thetae_060.txt.gz
Theta_e
346 348 346 344 342 340 343 343 344 344 343 342 342 337 342 349 350 346 349 353 354 354 354 353 352 351 350 348 347 345 344 343 342 340 340 342 338 331 330 332 331 331 333
348 344 342 344 340 346 341 342 343 344 343 342 343 340 333 342 350 350 347 352 353 354 354 353 353 352 345 343 349 349 345 344 344 340 341 342 341 339 332 331 332 340 340
349 349 346 344 346 345 340 342 343 344 345 343 343 343 337 334 344 346 342 348 351 353 353 354 354 354 354 352 353 350 349 351 351 350 348 347 346 347 347 345 343 342 337
349 349 348 339 340 340 341 342 343 345 345 344 343 343 341 335 341 346 348 341 344 351 352 354 355 355 355 355 355 355 352 350 349 349 348 347 346 345 345 346 347 347 345
350 350 350 341 341 341 342 343 344 344 344 344 344 343 344 341 342 339 344 346 344 347 351 353 354 352 346 347 353 352 353 354 351 349 348 347 346 346 346 346 348 349 349
351 350 350 344 343 343 343 344 344 345 345 345 344 343 344 346 344 337 334 339 344 347 347 346 345 347 341 341 342 342 345 350 353 353 350 349 350 351 352 353 352 352 353
351 350 349 347 346 345 344 345 345 345 345 344 344 344 343 344 342 337 333 332 342 342 341 341 345 348 346 340 336 336 337 339 342 344 345 345 348 350 353 354 354 354 356
352 350 348 345 346 346 346 345 346 346 346 345 344 344 344 343 341 339 339 338 335 334 341 344 334 333 338 344 346 347 344 339 336 337 338 338 340 348 352 355 355 356 356
352 347 345 345 345 346 347 346 346 346 346 345 344 344 343 342 341 339 341 343 342 335 332 331 331 330 328 329 330 331 332 334 344 346 347 346 349 354 357 358 357 356 356
351 346 347 346 346 346 347 346 346 346 345 346 346 344 342 340 339 338 340 342 343 337 335 333 331 330 330 330 331 332 334 341 350 352 357 360 361 360 362 357 356 355 355
354 354 353 350 346 346 346 346 346 346 348 345 345 343 341 339 339 336 336 339 341 348 348 348 349 347 335 334 337 341 345 351 357 359 359 360 359 359 359 360 358 358 356
354 354 354 349 351 353 346 346 347 347 346 348 345 347 346 338 337 336 336 338 340 343 348 352 355 356 356 355 356 357 358 359 360 360 357 358 359 359 358 358 358 358 360
356 356 355 349 353 352 346 347 348 347 356 356 358 358 358 358 352 347 348 349 350 351 352 358 359 361 360 358 358 358 359 360 359 356 355 355 357 359 359 358 359 360 357
357 358 358 352 355 357 358 358 358 358 358 358 359 359 360 360 361 362 353 352 353 354 355 355 356 357 358 358 358 358 359 356 355 354 356 357 359 361 361 362 358 356 351
358 359 359 359 358 359 359 360 360 359 360 360 360 360 361 361 362 363 364 363 357 354 354 354 355 356 353 355 358 359 357 355 356 358 359 359 360 362 360 357 354 348 344
357 357 357 358 360 359 360 360 359 360 359 360 360 361 362 363 363 363 361 359 359 356 355 359 360 352 354 357 360 358 358 357 357 358 358 359 358 357 355 350 345 343 342
356 357 359 360 358 359 360 361 358 356 356 356 357 360 361 363 360 360 358 357 356 356 356 361 360 361 360 359 358 358 358 359 358 358 357 356 355 354 346 344 342 342 341
342 346 342 346 349 348 350 348 350 353 355 356 353 354 355 356 355 355 356 357 357 357 357 357 358 356 359 364 358 358 359 357 355 355 353 351 347 345 343 342 341 341 341
342 340 341 348 348 334 333 332 334 335 333 338 359 354 350 347 348 351 354 357 359 359 360 358 355 360 362 360 359 359 356 354 352 351 347 344 342 341 341 340 340 339 337
335 340 343 345 337 337 339 335 340 338 335 337 355 356 353 351 354 355 356 359 362 360 359 358 358 357 360 357 356 354 350 348 345 340 338 338 338 338 339 340 339 339 337
327 333 339 344 346 347 347 338 345 350 348 352 355 357 356 356 357 359 360 359 357 357 357 355 356 353 351 348 345 345 343 341 339 339 338 336 337 338 338 338 337 337 336
324 326 332 338 343 344 342 342 344 347 350 354 355 354 357 354 351 351 352 352 352 353 351 349 344 344 346 345 343 339 338 337 337 337 335 333 333 335 337 335 336 336 336
323 319 325 331 335 340 343 340 341 342 343 346 346 344 349 345 353 353 353 352 348 346 345 343 342 340 338 335 333 332 331 331 333 333 333 334 334 338 337 336 335 336 336
318 321 318 330 334 334 337 338 341 342 342 343 342 342 341 338 336 343 346 346 345 344 340 337 335 334 333 332 331 332 333 333 333 333 332 334 337 337 335 335 336 336 336
320 319 321 324 328 332 334 338 338 336 338 340 339 337 335 334 328 331 336 338 338 336 335 335 335 333 332 331 331 331 333 331 332 333 333 331 334 335 335 334 335 335 333
318 319 320 323 325 327 330 332 334 335 336 338 338 337 335 331 329 331 333 334 333 332 331 330 330 329 329 328 327 327 328 330 330 331 332 332 331 333 335 335 334 333 333

GFSGL_850_thetae_063.txt.gz
Theta_e
353 352 349 348 345 330 346 348 350 351 351 347 350 351 351 352 352 353 350 353 355 349 353 353 353 348 352 348 348 347 346 345 344 343 342 342 342 344 340 337 338 340 346
354 353 350 349 348 346 337 345 349 348 349 352 349 348 344 348 351 353 353 351 356 355 354 352 353 352 347 346 351 350 348 346 347 345 346 346 346 347 347 347 348 349 348
354 353 352 352 351 347 346 340 344 344 344 349 351 347 346 343 347 353 353 353 354 354 353 353 353 354 353 353 353 350 350 351 352 353 353 352 350 349 349 348 349 347 348
352 352 352 352 352 349 347 342 341 341 342 343 344 346 347 348 347 349 353 354 354 353 353 354 354 354 355 354 353 353 353 350 352 352 350 350 350 348 347 347 347 347 347
350 350 351 353 352 351 346 347 340 341 341 342 344 345 346 351 350 348 349 352 352 353 353 353 353 352 354 355 356 355 355 356 355 354 352 351 349 347 349 351 348 351 353
351 350 350 352 353 350 350 346 344 341 341 342 344 344 345 350 349 347 346 347 349 350 351 352 350 353 355 352 349 345 345 349 350 352 349 348 347 349 351 353 354 353 356
353 352 351 351 349 349 346 345 341 341 341 343 344 344 344 344 346 348 346 344 347 346 346 342 347 350 350 349 346 340 339 339 341 341 342 341 341 342 344 351 352 352 356
353 356 353 353 352 348 349 344 340 340 342 343 344 344 344 344 341 343 345 343 342 338 343 342 337 335 342 350 353 353 351 344 335 339 343 343 343 342 348 354 355 356 358
357 354 357 355 356 353 348 346 345 344 344 344 345 345 345 344 343 340 342 344 345 343 338 335 334 334 329 328 332 334 335 336 339 342 344 345 348 351 354 358 360 360 359
357 357 357 357 358 358 354 349 345 345 345 346 348 347 345 344 342 341 342 344 351 348 342 335 333 332 330 331 332 332 333 333 334 338 344 350 356 361 360 362 359 359 357
357 359 359 358 358 359 359 358 351 348 357 352 356 352 347 344 343 342 341 342 347 351 350 348 349 345 341 340 340 341 340 341 344 351 356 359 362 361 361 359 359 360 359
356 358 359 359 358 359 358 358 357 354 354 357 353 357 358 350 347 342 339 338 338 339 344 346 347 347 348 350 352 354 355 356 356 356 358 359 360 360 359 359 357 357 358
355 357 358 359 360 359 359 359 361 358 358 359 361 359 358 356 357 349 338 335 335 337 338 349 349 350 352 355 357 359 358 358 358 358 360 361 361 360 357 358 359 360 358
356 358 358 359 359 359 361 362 361 360 360 359 359 359 357 353 351 355 353 343 339 342 344 344 345 350 355 359 360 360 358 357 358 360 361 360 356 356 357 359 360 361 358
358 359 359 360 360 358 360 360 360 358 358 357 354 353 352 354 356 358 361 363 358 351 351 351 353 354 355 359 361 361 360 360 360 362 360 360 358 359 359 359 358 355 353
358 359 360 360 361 360 360 359 358 359 358 359 359 359 361 360 361 361 361 363 366 365 361 359 360 361 362 362 361 359 358 359 359 358 358 357 358 358 358 358 355 354 348
358 360 360 360 360 360 360 361 360 361 360 360 360 360 360 362 361 361 363 362 363 365 364 363 361 361 364 360 358 360 360 364 364 357 358 358 356 357 358 354 352 348 345
358 360 360 360 361 360 361 361 361 361 360 359 358 358 358 359 360 359 360 359 356 360 361 362 361 362 362 362 362 361 359 361 360 359 357 355 355 353 353 350 347 345 344
347 351 354 353 360 362 362 361 360 361 359 354 352 345 346 343 340 347 354 356 359 362 362 361 359 360 361 360 357 355 359 357 358 356 354 354 353 352 348 345 344 342 342
339 343 348 351 344 346 345 341 344 337 338 339 336 335 335 344 337 335 350 354 356 360 360 361 362 361 358 356 357 357 357 357 353 351 351 349 346 343 342 342 342 342 343
331 336 341 341 340 342 344 342 345 346 349 340 335 335 340 355 357 358 355 357 357 357 357 362 356 357 358 357 355 351 350 349 348 346 344 343 342 340 340 341 341 342 341
326 329 335 339 345 344 347 347 341 340 341 348 353 337 346 354 353 359 354 358 356 357 358 355 351 349 349 348 347 346 344 344 342 342 341 341 339 339 339 339 339 338 338
324 324 328 333 336 338 344 344 343 345 346 346 350 352 348 352 351 352 350 347 344 345 349 349 344 342 344 344 343 341 337 336 337 335 334 334 335 336 337 337 336 337 337
323 324 318 326 334 334 337 340 342 342 345 345 345 345 345 345 344 346 345 342 335 335 337 338 337 334 334 331 328 327 335 335 334 332 332 332 333 336 334 335 334 337 336
319 319 319 320 319 333 335 337 338 340 342 343 342 341 339 334 331 328 328 328 330 332 335 334 333 333 334 335 334 334 333 331 331 333 332 333 331 333 333 334 335 335 335
317 318 318 320 321 321 326 330 333 335 336 335 336 337 337 336 333 332 328 326 328 329 330 330 331 331 333 332 331 330 329 329 330 329 330 331 332 331 332 333 335 335 335

GFSGL_850_thetae_066.txt.gz
Theta_e
351 349 343 333 331 329 336 341 345 350 351 346 351 348 349 347 351 351 348 354 353 348 350 353 352 347 347 351 347 346 346 345 345 344 343 343 344 343 342 342 347 347 346
354 353 351 348 338 331 329 336 345 345 348 349 346 351 351 348 348 350 346 347 354 354 346 351 355 354 341 348 351 352 353 350 347 346 343 338 338 347 350 348 348 347 347
357 356 355 353 352 342 334 334 340 342 342 345 348 342 346 346 345 344 344 345 351 354 355 353 349 349 349 348 340 344 346 348 351 352 355 355 353 349 349 349 348 347 349
357 357 356 355 354 350 345 337 338 342 336 340 342 344 343 343 344 343 347 346 346 349 354 352 350 350 350 350 348 346 350 349 349 351 351 348 352 351 351 352 353 352 349
353 356 356 356 355 355 350 346 342 334 334 336 338 342 343 343 343 343 342 345 346 349 350 352 353 351 350 352 353 352 353 355 356 356 357 357 355 351 348 345 343 346 347
352 354 355 356 357 355 355 353 351 344 338 336 337 340 343 343 343 350 348 344 345 348 348 345 352 354 353 351 350 352 349 350 353 353 349 345 341 339 338 340 341 343 342
352 353 353 354 355 356 356 355 353 352 343 338 336 339 341 342 343 347 348 348 346 344 348 346 345 345 348 347 347 348 348 346 343 341 343 340 339 339 345 343 344 348 350
353 353 354 353 353 354 355 355 354 353 348 339 334 337 340 341 342 343 346 349 348 346 344 345 345 341 343 349 351 353 352 350 348 348 349 346 346 345 344 348 350 352 355
357 353 355 353 353 353 354 354 355 353 352 345 336 336 337 339 342 342 344 347 347 346 344 344 343 344 336 333 334 338 344 344 340 338 339 343 344 348 349 350 355 358 360
356 357 356 356 354 354 352 352 354 353 345 344 341 338 338 340 342 343 344 346 346 345 343 341 340 339 339 339 338 335 333 329 330 331 335 338 342 343 351 357 360 361 359
358 356 359 358 357 356 356 355 354 354 354 352 351 349 347 343 343 343 344 345 345 344 342 341 338 334 334 338 340 341 340 341 346 349 351 352 353 355 357 358 359 360 359
360 358 357 360 360 359 360 359 358 358 358 359 357 356 353 350 347 346 345 344 343 344 343 342 342 342 345 346 347 347 349 351 353 355 357 357 356 357 358 362 360 359 358
357 360 357 361 360 361 361 362 361 360 360 360 360 358 359 360 355 350 348 346 345 345 342 342 344 348 350 349 349 351 353 355 357 359 360 358 358 359 362 359 355 355 355
348 360 358 360 362 361 361 362 361 361 361 362 362 363 361 361 362 361 354 350 346 347 344 341 342 342 342 342 345 347 349 354 359 359 357 359 359 362 360 355 357 357 358
355 360 359 359 362 362 360 363 362 362 362 362 362 359 362 362 357 357 358 354 351 350 344 343 341 339 342 345 348 350 353 356 358 358 358 358 360 358 356 357 358 357 356
364 362 361 360 362 361 361 362 364 362 363 362 359 362 359 360 359 356 351 352 355 361 363 361 359 354 352 352 353 356 358 361 360 359 361 363 361 358 358 357 358 357 354
359 361 361 359 361 361 361 361 363 363 363 361 362 359 358 356 352 354 358 356 361 364 362 362 362 361 361 361 362 364 363 361 356 359 359 359 365 364 357 355 354 353 349
356 358 360 361 359 363 361 361 362 361 361 359 358 358 358 359 359 361 359 360 358 357 356 360 362 364 362 362 363 363 361 359 358 356 358 357 356 355 354 353 351 348 348
351 356 358 359 361 362 360 359 363 361 360 360 360 359 358 358 357 354 353 349 352 353 349 347 348 358 360 360 358 360 361 357 355 359 356 355 354 354 354 351 349 346 344
338 348 348 349 353 358 358 361 361 360 359 360 357 352 345 340 339 338 338 338 337 340 353 352 358 360 360 356 357 360 358 357 356 356 354 351 350 350 348 346 343 343 342
333 338 337 344 345 347 346 346 348 349 350 343 340 338 336 336 338 336 336 336 336 334 347 356 357 358 358 355 356 354 356 353 351 349 348 346 345 343 342 341 340 341 341
327 331 334 337 340 345 344 343 346 346 348 348 340 336 338 342 350 349 347 343 336 337 353 355 355 356 354 352 351 350 349 348 346 345 344 342 342 342 341 340 340 341 340
321 326 332 334 335 339 341 343 345 343 342 342 339 342 345 350 351 351 350 348 347 350 350 347 346 344 345 344 344 346 345 342 341 343 343 341 340 338 335 335 335 336 336
324 322 319 319 331 335 338 339 341 342 342 343 345 344 340 344 345 345 345 347 346 344 345 344 339 339 341 342 341 342 340 338 336 335 334 333 332 333 334 334 334 335 335
319 324 323 322 321 321 331 335 338 337 339 327 338 337 336 338 340 340 338 338 340 341 342 340 338 337 337 336 335 335 335 334 333 332 332 331 332 332 332 333 333 333 336
315 316 318 321 323 323 324 322 326 331 332 334 322 333 335 335 335 334 333 333 333 332 330 330 331 333 332 331 331 331 331 329 329 329 328 328 329 330 330 330 330 332 334

GFSGL_850_thetae_069.txt.gz
Theta_e
346 343 332 331 329 330 344 344 346 345 346 347 352 350 348 347 342 340 344 346 346 348 345 344 343 347 339 346 347 345 342 344 344 339 340 341 342 343 343 342 344 347 347
346 347 344 332 329 328 328 343 343 347 342 345 348 350 350 348 348 343 344 345 353 353 352 349 351 351 347 345 350 348 347 348 348 347 346 344 351 348 341 348 349 350 351
348 347 347 347 336 329 328 328 338 336 344 345 352 349 350 350 347 341 340 340 346 350 352 352 346 352 351 343 346 350 351 351 351 349 348 351 348 345 351 352 352 353 351
351 350 349 349 348 342 332 329 328 329 334 345 350 345 345 347 346 341 340 338 340 346 347 348 348 350 349 348 345 341 339 341 344 345 349 348 347 349 355 354 350 341 334
354 354 353 352 351 350 346 339 332 329 329 332 336 342 342 342 341 339 340 339 336 338 340 345 347 349 348 347 348 347 348 349 348 351 355 355 354 356 349 336 336 338 337
355 356 356 355 354 353 352 348 342 336 332 332 333 335 339 340 339 340 340 340 339 336 335 336 337 344 347 348 348 346 344 347 348 347 350 352 343 337 336 340 342 343 346
354 355 356 356 356 355 355 354 351 346 341 339 337 333 333 334 337 339 340 342 342 341 338 336 335 338 338 342 344 348 348 348 348 347 347 341 341 341 347 346 345 345 347
355 354 354 355 355 354 354 355 355 352 348 345 342 339 334 332 335 338 340 344 345 343 344 342 339 336 334 336 339 349 351 349 347 348 348 346 350 347 347 345 346 343 349
355 354 353 353 354 354 354 354 354 355 353 351 350 347 342 334 332 335 341 343 347 346 345 346 345 341 337 338 341 341 344 343 338 338 343 346 345 342 339 346 347 353 356
354 357 352 352 353 353 352 353 353 352 353 353 352 350 347 340 334 333 337 341 344 345 345 345 346 344 341 341 342 341 341 334 334 334 337 340 344 346 351 353 354 357 358
352 358 355 353 353 353 353 352 352 353 352 353 352 352 350 344 338 336 337 339 341 343 344 344 342 340 340 340 341 342 340 337 344 346 348 350 353 355 355 355 357 359 360
351 356 358 357 354 355 355 353 353 353 353 353 353 352 351 348 342 338 338 341 342 345 344 344 342 340 340 342 341 344 345 347 348 349 350 353 355 357 355 358 360 359 358
355 350 358 358 358 357 357 356 354 354 354 354 355 354 353 349 346 343 342 343 346 348 347 346 345 345 345 349 351 350 349 349 348 349 352 353 357 357 358 361 362 361 360
354 355 351 359 359 359 359 358 357 357 357 357 357 357 356 356 356 352 347 347 346 350 351 350 349 350 349 348 350 350 349 348 347 349 351 357 358 355 358 362 362 361 357
354 357 358 354 361 360 361 361 360 359 359 359 359 359 360 360 357 355 350 348 347 348 350 353 355 354 350 348 345 345 345 345 345 347 353 357 357 358 360 360 359 358 356
355 359 358 354 360 360 361 361 362 363 362 362 361 360 360 359 360 359 357 353 350 354 355 354 355 354 351 347 345 344 344 343 345 353 359 357 359 362 360 360 357 353 353
355 360 363 365 363 361 361 362 362 362 361 362 363 363 361 362 361 360 362 359 354 355 358 356 358 361 361 358 357 357 357 358 360 361 359 355 357 357 357 353 353 353 351
349 354 358 360 362 362 362 361 360 360 360 364 362 363 363 361 361 361 358 358 356 357 354 357 360 358 360 361 361 362 363 362 362 360 357 356 356 355 355 354 354 353 350
342 350 353 356 360 361 361 361 358 358 359 359 363 361 361 361 359 358 359 356 357 357 356 355 353 355 351 353 358 356 354 354 355 359 356 357 357 354 354 353 352 350 348
334 338 347 352 355 354 356 361 363 360 361 361 361 361 357 358 358 358 357 356 355 355 354 352 347 344 341 346 351 350 354 354 353 354 355 356 354 354 352 349 348 346 345
330 334 339 345 350 354 355 359 359 358 359 359 357 357 356 355 353 345 337 338 341 337 338 338 341 340 341 338 337 338 339 351 352 354 352 351 348 347 345 343 343 342 340
327 331 334 339 344 347 348 349 350 350 350 349 348 341 339 341 342 339 341 346 342 339 339 345 343 339 338 348 352 352 351 353 352 347 345 345 344 343 343 343 342 341 340
323 323 331 333 334 342 342 345 344 345 342 339 342 341 339 339 339 344 350 351 350 350 350 353 351 349 350 351 350 351 349 349 347 345 344 344 344 343 342 342 341 338 337
321 320 321 328 332 328 332 334 341 341 341 341 341 341 343 345 345 347 347 346 346 348 346 345 343 343 344 346 346 344 345 345 343 341 342 341 339 336 335 334 334 334 333
315 318 320 321 324 323 331 323 335 334 332 335 339 341 341 337 334 330 337 341 336 340 341 339 339 339 340 341 339 337 337 337 337 337 334 333 332 332 332 332 333 333 333
312 314 314 314 317 319 319 323 326 324 326 328 331 330 327 326 329 334 323 321 332 335 336 334 335 334 332 333 332 333 331 331 331 330 330 330 329 329 330 330 330 330 331

GFSGL_850_thetae_072.txt.gz
Theta_e
344 344 343 334 335 338 344 347 348 349 351 347 349 350 350 348 346 338 342 342 341 342 345 345 335 332 338 344 345 344 345 341 342 340 341 340 341 340 340 339 344 348 350
345 344 344 342 332 334 338 344 346 349 350 349 349 349 351 349 347 346 338 342 343 344 343 344 340 334 337 340 343 346 346 344 344 345 345 341 339 343 346 347 350 350 351
346 346 345 345 341 330 331 340 343 346 348 347 346 346 350 350 348 347 342 335 339 343 350 351 350 345 346 345 340 345 349 349 350 351 350 348 342 344 341 348 347 347 349
348 347 346 345 345 342 329 328 337 344 345 347 346 345 346 348 348 348 345 336 333 337 343 347 350 350 345 345 345 343 344 345 343 342 343 344 339 340 349 341 340 337 337
349 349 348 346 346 346 345 334 327 330 341 343 342 348 350 351 348 347 346 344 338 334 335 341 344 346 345 348 348 345 345 345 344 344 344 343 342 335 333 334 338 343 339
350 350 350 349 348 347 347 347 343 330 328 331 340 337 347 349 348 346 343 340 339 338 335 333 335 338 340 343 346 345 345 345 342 342 341 341 335 335 337 344 348 347 347
353 353 352 351 350 350 349 349 349 348 340 330 329 331 334 341 344 341 340 340 340 339 338 337 334 333 334 335 335 337 341 344 347 346 346 344 344 340 346 349 350 348 346
350 351 355 355 354 353 353 352 351 349 349 345 337 332 331 331 332 333 335 339 339 339 340 339 338 336 335 334 335 335 335 334 339 347 350 348 350 343 347 351 350 343 348
344 349 353 356 356 355 355 354 353 352 350 349 347 343 337 335 336 335 334 335 337 339 339 341 342 341 339 340 342 339 336 333 332 334 337 337 336 340 346 346 346 352 353
352 353 353 351 354 355 355 355 354 353 351 348 349 349 347 343 341 341 340 337 337 338 339 340 341 342 342 342 345 344 343 337 337 338 339 341 342 343 346 350 353 354 355
344 348 349 348 354 355 355 354 353 353 353 352 351 348 347 346 345 345 344 343 339 336 338 339 339 340 341 342 342 344 342 339 341 342 342 346 347 349 351 354 356 357 357
341 338 345 350 354 357 356 355 353 353 353 353 353 352 351 349 345 344 344 344 339 338 336 336 337 340 341 343 345 344 343 343 344 347 347 347 348 349 352 356 357 358 358
340 337 340 350 353 356 357 356 354 354 353 353 354 353 352 352 350 345 342 341 339 343 338 337 338 342 344 346 346 345 344 348 349 349 348 347 347 350 354 357 357 357 358
341 339 338 346 351 357 356 357 355 354 354 354 354 354 353 353 352 350 347 343 340 343 343 344 345 347 350 351 350 348 347 348 350 349 348 347 347 350 356 355 355 357 357
337 342 342 351 350 355 357 358 358 357 356 355 355 354 354 354 354 353 352 349 345 343 345 351 354 353 353 353 353 351 349 349 348 347 345 345 348 352 356 356 358 359 359
336 341 348 355 355 352 356 358 357 359 358 357 357 357 357 357 357 357 357 356 353 354 355 356 356 356 354 353 352 350 351 350 347 345 345 347 349 357 357 356 356 356 355
333 337 346 355 360 358 359 358 360 360 360 360 359 358 359 360 360 359 360 359 358 359 359 359 360 358 354 354 356 358 358 356 354 352 351 350 358 356 356 355 356 356 354
332 337 340 346 355 361 361 363 360 360 361 361 362 360 357 359 359 359 362 362 361 360 360 359 357 356 356 356 359 359 360 361 361 360 359 359 357 355 355 355 354 352 352
330 335 340 344 350 355 360 360 359 358 358 358 359 361 361 359 362 362 361 360 359 358 360 359 357 355 356 357 360 360 359 356 355 353 352 348 352 348 349 349 349 352 352
328 332 336 341 347 351 354 357 355 353 354 356 356 356 358 360 359 361 361 358 358 358 356 356 355 356 356 353 350 351 355 351 342 338 339 342 341 338 336 343 349 349 346
326 330 333 338 343 350 352 353 354 355 353 354 355 357 358 359 359 359 360 358 357 357 355 353 355 356 354 352 348 348 344 338 338 338 335 336 337 336 336 348 346 343 342
322 326 329 333 339 343 345 346 351 353 354 355 357 359 356 357 355 357 356 348 349 349 349 353 353 353 346 339 339 340 339 341 340 337 336 335 335 343 347 345 344 343 342
321 322 325 329 334 339 344 345 348 352 352 356 355 354 352 351 353 348 342 340 341 341 341 339 338 340 342 345 345 342 339 341 343 339 339 344 344 344 342 342 342 341 341
319 320 323 325 326 330 332 339 339 338 338 347 348 344 340 339 341 346 345 343 342 347 347 347 347 346 345 344 341 341 346 345 346 347 345 343 343 343 342 342 338 334 334
316 318 318 321 323 324 325 324 325 326 334 330 337 339 341 340 340 339 339 340 341 345 342 341 339 337 337 336 341 343 341 341 338 339 340 340 339 335 334 332 332 332 332
313 312 316 317 320 321 324 320 321 319 318 321 319 327 330 330 324 328 324 327 329 325 325 332 329 330 324 327 328 328 329 331 332 331 331 332 332 330 328 328 329 329 330

GFSGL_850_thetae_075.txt.gz
Theta_e
342 343 342 342 332 333 340 345 346 347 347 346 348 348 347 347 346 346 341 342 341 342 340 338 337 338 337 339 343 343 342 344 343 338 337 339 341 340 339 341 344 345 349
343 343 343 343 343 331 331 339 345 346 347 347 349 348 349 350 349 347 346 342 344 342 344 342 345 344 337 333 336 342 344 345 347 343 340 341 342 341 341 340 337 348 346
343 343 343 343 343 343 333 330 341 345 346 348 349 350 348 348 349 349 348 345 341 342 344 346 345 347 343 340 342 338 342 344 347 348 348 347 344 341 336 336 342 331 335
345 344 344 344 344 344 344 335 328 339 344 346 348 349 348 347 347 348 348 346 342 338 339 341 348 349 349 344 346 348 343 342 343 345 346 343 337 336 338 337 329 333 333
347 346 346 346 345 345 345 344 340 327 333 341 345 347 348 348 346 345 346 346 346 344 341 337 335 339 344 346 347 346 347 347 345 344 342 340 338 336 334 335 342 344 337
347 348 348 347 347 346 346 346 345 344 329 328 338 343 345 347 347 347 347 347 346 344 342 338 338 334 335 338 342 343 345 348 349 348 344 341 334 334 333 341 345 347 348
348 348 349 349 349 349 348 347 346 346 345 341 328 329 338 343 343 345 347 348 346 343 341 339 338 338 335 334 335 337 338 341 343 344 344 338 335 335 342 343 344 348 350
349 350 351 350 350 350 350 350 349 348 347 347 346 341 329 327 330 340 340 344 347 346 339 339 339 338 338 337 335 335 336 336 335 337 337 334 339 336 344 343 341 345 347
346 351 349 351 352 353 353 353 353 352 351 350 349 348 347 340 332 328 329 332 339 338 334 333 336 338 338 338 340 342 340 337 335 335 334 334 334 337 341 344 344 348 349
347 348 347 349 352 355 356 356 355 354 353 353 352 351 348 348 344 338 335 331 331 334 336 333 331 335 337 339 341 344 345 339 339 338 339 341 342 343 343 345 346 349 352
343 340 348 350 349 352 353 353 354 354 354 354 353 353 352 347 346 345 341 340 337 337 339 338 330 331 335 337 339 341 342 342 343 344 343 343 342 340 345 347 349 350 353
341 342 341 346 346 345 347 348 352 354 354 354 354 354 352 352 349 346 344 343 342 343 343 337 331 330 332 334 337 339 342 344 346 346 345 343 342 342 346 347 349 350 356
335 338 341 340 340 341 343 345 353 354 356 356 355 354 352 352 352 351 349 346 345 347 344 342 337 331 332 335 337 339 343 347 346 345 343 341 343 346 347 348 350 355 357
329 333 335 340 340 339 345 345 351 352 353 355 356 355 354 352 352 352 351 351 349 348 347 345 342 342 340 338 341 344 348 348 348 346 344 345 348 348 348 348 352 356 354
325 329 332 336 343 341 350 348 350 348 351 352 355 355 354 353 353 353 353 353 351 350 347 345 346 346 344 343 344 345 348 351 351 349 348 347 348 347 346 351 355 355 354
323 325 329 332 339 348 352 351 352 351 351 353 355 355 355 356 355 354 355 355 355 355 355 353 351 349 347 347 348 349 350 352 351 351 351 350 349 347 347 350 357 354 354
320 323 326 331 336 343 350 354 350 349 351 353 354 353 356 358 357 356 356 356 356 358 358 358 357 356 351 351 352 354 352 353 355 356 355 352 351 351 347 356 356 356 352
318 319 325 330 334 338 345 354 357 357 359 358 355 356 357 358 358 356 356 357 358 359 359 360 358 357 356 356 356 356 355 356 357 357 356 355 353 351 356 356 356 354 351
317 318 323 329 333 336 342 347 353 360 357 356 360 359 359 358 360 360 358 359 358 358 358 360 358 357 356 355 354 355 355 358 359 358 358 358 357 357 356 354 352 350 347
317 318 321 328 331 335 336 341 348 354 359 358 357 355 356 355 357 358 359 359 354 356 358 358 358 358 357 357 355 355 357 357 353 350 351 347 344 339 338 342 342 342 341
316 317 322 327 329 334 337 339 346 351 354 356 354 351 351 353 355 356 357 357 356 355 357 358 357 357 357 356 355 355 354 352 348 350 346 340 338 341 339 338 340 338 337
316 318 320 323 326 331 335 337 341 343 346 349 352 354 353 352 351 355 355 357 359 357 357 357 356 355 354 354 355 355 353 351 348 346 341 339 339 338 336 333 335 335 341
316 319 320 321 324 329 332 334 338 339 342 344 347 351 353 354 355 353 353 355 357 357 355 355 353 353 353 354 352 350 347 345 342 341 340 339 339 337 337 341 343 343 341
313 317 318 322 324 325 326 331 332 337 342 345 347 345 348 349 354 353 353 353 351 345 341 345 343 345 345 345 344 342 341 342 342 340 341 340 342 343 344 342 341 342 341
311 313 316 319 320 322 321 323 324 326 333 337 340 342 339 338 338 344 343 343 340 340 341 339 338 338 337 338 339 339 339 338 338 340 339 339 337 335 339 339 337 337 337
307 308 311 314 315 317 317 316 317 318 322 324 324 326 324 323 326 321 322 325 329 331 332 330 323 330 329 328 330 330 328 330 328 330 330 331 333 331 330 330 329 329 330

GFSGL_850_thetae_078.txt.gz
Theta_e
341 341 341 341 338 335 337 338 342 343 345 346 345 346 347 345 344 344 345 343 341 342 343 338 337 340 339 340 338 338 342 342 343 341 341 338 336 339 340 339 337 334 342
342 341 341 341 342 337 335 334 336 343 344 347 344 345 347 347 348 348 347 347 344 342 341 342 340 338 340 340 338 335 337 340 342 343 344 343 342 343 342 338 334 338 334
344 342 341 341 341 342 337 333 331 335 342 345 345 344 347 345 347 348 349 349 347 342 342 344 344 346 345 344 342 339 342 342 342 342 343 345 344 343 335 332 333 329 332
343 343 342 341 342 342 342 341 333 331 333 341 344 342 345 348 349 347 347 349 348 346 340 339 342 344 348 349 349 346 345 348 346 344 343 341 342 339 336 334 330 333 331
344 344 343 343 342 342 342 343 343 340 330 331 341 343 342 343 345 347 347 346 346 346 346 343 340 338 337 339 345 346 347 345 346 346 344 341 338 336 336 338 340 341 332
346 346 346 346 345 345 344 343 343 343 343 334 329 338 341 342 341 343 344 345 346 345 346 345 344 342 340 339 336 337 340 342 343 344 342 340 336 337 336 340 344 343 341
343 346 347 346 346 346 346 346 345 345 344 344 342 330 329 334 336 337 340 343 344 344 344 344 342 341 340 341 340 339 336 336 338 338 338 336 334 333 337 340 343 341 342
343 345 346 347 347 348 348 348 348 347 347 346 345 345 341 330 327 329 332 337 338 337 335 336 341 343 339 339 339 341 340 336 333 336 338 336 335 334 337 339 342 343 342
344 347 349 348 348 348 349 349 349 349 349 348 348 347 346 346 345 338 329 328 331 330 331 330 330 333 332 333 336 338 341 337 335 337 339 338 337 339 342 344 344 344 344
344 345 345 347 350 351 351 350 350 351 352 352 352 351 350 349 349 348 347 345 335 329 328 328 328 328 329 330 332 335 339 337 338 339 340 341 341 342 343 344 343 344 347
341 341 342 346 348 352 351 350 350 351 352 353 353 352 352 352 351 351 348 348 347 343 337 334 332 331 331 332 331 332 335 337 339 341 342 342 341 340 339 341 343 346 348
333 337 341 341 343 347 348 350 352 352 351 351 352 352 352 352 352 352 352 347 346 347 343 340 337 335 335 335 336 331 332 336 340 341 342 341 340 337 337 341 346 347 348
323 327 332 335 340 340 343 344 345 346 350 351 351 352 354 353 352 351 351 351 349 346 344 343 343 341 340 342 338 333 333 335 338 341 342 341 342 340 340 343 346 347 348
320 322 323 325 331 334 341 339 342 342 347 348 353 353 354 355 353 352 352 352 351 351 350 345 343 343 344 343 339 337 337 337 339 341 344 345 346 344 341 346 347 347 348
318 319 320 323 323 328 335 341 340 343 348 350 351 351 350 352 353 352 353 352 352 352 352 351 350 348 344 342 337 334 334 336 340 342 346 348 349 347 343 347 348 347 351
317 318 319 320 323 325 329 337 345 348 349 350 352 353 354 353 353 353 352 353 353 353 353 353 353 352 350 347 340 336 336 338 341 344 348 350 350 350 348 348 349 348 349
316 317 318 318 321 325 329 333 340 347 348 348 351 353 352 354 354 353 354 353 354 354 355 354 355 355 354 353 351 346 341 341 344 349 351 351 353 353 353 352 352 349 349
318 318 318 318 319 322 327 332 336 343 346 349 353 352 350 352 353 354 355 355 355 355 355 356 356 357 357 356 355 353 350 350 351 352 353 355 356 356 355 352 351 350 353
316 317 318 317 319 320 325 331 334 337 344 347 348 342 350 353 353 354 355 356 356 356 355 355 355 356 356 356 354 353 354 352 354 357 355 354 357 356 355 354 352 351 354
314 315 315 317 318 320 324 329 333 335 337 344 350 346 350 350 352 355 356 356 357 357 357 356 356 357 357 357 358 355 355 355 354 356 355 356 358 356 357 355 353 350 350
314 315 315 316 318 320 325 328 331 334 336 339 346 350 353 353 352 353 354 354 355 356 356 355 357 356 355 356 357 357 355 355 354 352 355 355 350 352 350 345 344 342 343
312 313 314 316 318 320 323 327 330 333 336 338 343 344 348 352 352 352 352 354 354 355 356 357 357 358 356 355 356 355 355 355 355 354 353 353 348 348 344 340 343 339 338
309 311 312 315 317 320 322 325 329 332 334 337 336 339 342 347 348 352 352 352 351 351 352 351 354 357 357 355 353 352 351 353 353 354 352 350 349 346 341 340 339 337 334
307 309 312 314 315 320 323 323 325 331 331 332 334 336 339 341 347 347 348 349 350 350 348 346 349 350 353 350 350 350 347 348 348 347 347 346 343 341 340 339 339 338 340
306 308 310 311 313 316 319 320 323 326 326 328 331 331 336 337 340 341 340 340 338 337 337 338 337 339 338 340 338 340 341 341 341 340 340 340 340 339 340 341 341 342 340
301 304 306 307 308 310 312 313 316 317 317 317 319 319 322 324 329 334 330 326 327 328 330 330 326 327 330 329 330 332 332 336 335 333 333 334 335 334 332 331 332 332 333

GFSGL_850_thetae_084.txt.gz
Theta_e
347 348 348 348 342 341 340 342 346 349 351 345 345 347 351 353 349 341 349 351 342 349 348 351 350 349 347 345 346 346 345 345 344 342 344 345 350 350 349 342 345 345 345
352 349 348 347 350 349 341 340 340 343 347 351 345 345 346 352 354 343 344 350 352 352 351 351 351 349 343 340 347 348 345 346 346 346 344 345 348 350 351 338 349 348 348
350 350 350 351 350 342 343 341 341 340 337 348 352 351 344 350 351 345 345 353 354 353 353 352 351 351 351 347 350 347 348 350 349 348 347 347 347 349 352 350 349 350 346
350 350 349 346 345 345 343 342 344 341 341 336 341 349 352 352 351 352 347 347 352 355 355 354 352 351 352 353 352 352 352 352 350 350 349 348 349 350 351 350 347 346 346
348 349 350 351 350 346 345 344 341 343 342 341 339 336 343 350 351 351 352 354 349 351 355 355 353 350 344 346 350 350 352 353 350 348 348 348 348 349 349 346 346 345 346
345 348 350 351 351 352 351 347 344 344 343 342 342 342 338 341 345 348 350 352 352 350 354 353 348 349 344 344 343 341 342 349 350 346 343 343 345 347 345 345 346 345 345
343 347 348 348 349 351 352 351 350 345 345 346 342 343 342 342 339 338 344 347 350 353 354 353 352 350 347 344 343 342 341 341 341 341 344 343 341 346 347 351 349 351 348
344 344 344 346 349 350 350 350 352 350 350 350 348 344 343 343 343 343 336 333 342 347 350 352 353 350 350 351 347 350 347 347 341 338 337 336 335 338 337 348 351 350 348
333 339 342 343 344 348 348 349 349 352 351 351 351 350 349 345 344 344 344 343 339 332 343 346 348 349 343 341 341 348 348 349 346 344 337 335 336 335 337 342 347 346 344
322 327 332 337 342 345 346 347 349 351 349 350 353 353 352 349 346 345 345 345 347 346 338 336 335 336 333 332 332 333 337 342 345 345 345 340 334 335 337 339 340 348 344
319 320 323 329 337 340 344 346 345 346 350 350 351 351 353 353 351 348 347 347 347 348 348 346 346 345 339 332 328 328 328 333 342 344 345 346 345 347 350 350 343 340 347
313 318 320 321 324 333 340 342 344 345 346 348 350 351 354 352 351 350 349 349 349 349 349 349 350 349 349 347 345 339 335 332 339 341 341 342 343 342 344 346 350 349 344
312 310 316 320 320 321 326 333 338 340 342 345 346 350 352 355 353 356 352 351 351 352 351 351 351 352 351 351 350 348 345 343 341 344 343 343 344 341 342 345 349 350 342
317 312 312 315 319 320 320 325 328 333 332 338 345 344 346 351 354 356 357 355 352 352 352 352 352 352 352 352 351 348 346 344 346 347 346 346 345 343 343 346 348 348 351
316 317 316 316 320 319 319 322 323 326 331 336 333 339 344 348 352 353 355 356 357 355 351 352 352 353 352 354 352 351 350 348 345 349 349 349 347 345 344 346 347 348 349
315 315 315 315 316 318 319 319 320 320 323 328 333 330 328 329 335 339 343 349 349 353 353 352 353 354 355 355 355 354 351 351 351 351 350 350 349 347 345 346 347 348 350
313 315 314 314 315 316 318 319 321 320 320 321 326 327 327 330 332 336 343 341 345 349 351 352 355 355 355 356 356 355 354 355 355 354 352 350 350 348 347 347 347 349 351
311 312 311 313 314 314 316 317 319 320 320 320 321 325 326 324 331 336 338 346 345 346 347 350 351 355 355 356 355 355 357 357 357 357 357 354 352 351 350 351 351 353 353
309 310 310 312 312 313 314 315 316 317 318 319 320 324 329 327 326 335 342 347 346 347 345 347 352 355 357 356 355 355 355 355 356 357 356 358 357 357 356 355 354 355 355
307 309 310 310 310 311 313 314 315 316 317 318 320 322 325 327 327 331 341 346 348 349 350 352 350 352 355 355 355 355 355 355 355 355 356 356 356 356 359 359 358 357 358
305 307 307 307 308 309 310 312 314 315 316 316 318 321 324 327 327 331 334 342 345 346 346 346 354 354 354 354 355 355 355 355 356 356 357 357 356 356 358 358 357 356 357
302 303 304 306 306 308 309 311 312 312 313 315 318 320 322 326 329 327 332 335 342 344 343 342 346 355 355 352 349 348 348 352 354 355 356 355 355 356 355 357 358 358 355
300 300 300 303 305 306 307 308 310 310 314 316 318 320 322 327 330 329 330 335 340 343 344 341 342 346 345 341 343 348 344 346 347 347 353 353 353 353 353 353 352 353 355
298 298 299 300 302 303 305 306 308 310 313 316 319 321 323 326 328 331 333 336 340 341 342 343 344 345 345 343 345 345 346 345 343 346 349 349 349 350 351 350 349 349 350
296 296 297 297 298 300 303 303 307 310 312 314 317 320 322 324 323 329 332 333 335 336 336 340 342 343 344 344 344 343 342 341 345 345 343 343 342 342 343 343 343 345 346
294 295 295 295 296 297 299 300 303 306 308 311 313 316 319 319 320 326 327 325 326 326 328 331 333 335 337 338 339 340 340 341 341 339 337 337 338 339 339 338 338 338 338

GFSGL_850_thetae_087.txt.gz
Theta_e
356 356 355 354 355 354 354 353 350 346 350 352 355 351 356 355 355 352 349 354 352 351 346 351 352 347 350 346 346 345 345 345 345 344 344 345 347 346 347 346 343 344 349
355 356 355 354 354 354 355 354 353 351 349 349 353 354 352 354 356 353 353 349 352 353 352 352 351 350 347 344 347 347 347 348 349 347 347 346 346 347 348 349 354 351 350
353 354 355 355 355 354 354 355 354 353 348 350 351 353 353 354 354 355 352 354 353 353 353 352 351 352 352 351 350 346 347 351 352 351 349 348 347 349 349 352 352 351 351
351 352 353 355 355 355 355 355 354 353 353 351 347 351 353 354 353 354 355 354 356 355 354 352 351 352 352 353 352 352 349 349 351 349 349 349 348 348 349 352 350 347 346
350 350 352 354 354 354 354 355 350 353 353 351 350 348 348 350 350 351 351 354 353 353 357 356 352 350 351 352 352 352 350 352 352 349 348 348 348 349 352 351 347 346 347
345 348 350 350 351 353 355 353 353 345 350 352 352 350 349 349 344 345 351 353 353 352 353 353 353 353 353 345 337 337 350 352 346 348 346 344 343 345 345 346 348 347 347
342 345 346 347 349 350 351 353 354 354 352 352 352 353 351 345 347 342 341 348 351 352 351 351 353 350 351 349 344 343 343 341 339 338 341 341 339 338 340 340 347 349 348
336 342 344 346 348 349 349 350 351 352 353 354 353 353 353 352 349 347 344 340 342 343 348 353 351 349 349 354 353 354 354 346 339 339 339 337 337 336 339 346 347 348 351
327 328 335 340 342 343 344 349 350 352 352 351 352 353 353 353 353 352 348 346 345 342 338 333 345 353 352 344 348 353 353 352 348 349 347 345 343 341 341 341 346 346 343
327 327 327 327 334 339 343 345 347 349 350 351 352 354 352 353 353 353 351 351 350 349 349 347 341 332 337 350 350 344 345 342 348 345 346 346 346 346 345 344 339 345 345
323 324 326 324 322 328 336 340 344 346 346 348 351 351 352 353 353 354 352 353 352 351 350 350 350 348 344 339 337 342 343 343 349 348 346 344 344 346 347 349 349 347 346
320 322 324 325 324 323 322 325 335 340 344 345 347 348 349 351 352 354 354 353 351 352 351 351 350 349 349 348 347 347 347 347 348 347 345 343 341 342 342 344 344 345 347
318 319 322 322 323 324 319 321 328 331 334 340 342 347 349 349 350 352 355 356 352 351 350 350 352 352 351 350 351 351 351 350 349 349 348 345 343 341 340 342 342 344 348
317 317 318 321 321 320 324 323 325 327 331 333 335 340 344 348 350 349 352 353 354 353 354 352 352 352 351 351 352 353 353 352 351 350 349 347 345 344 343 344 344 343 345
316 316 317 318 319 319 320 322 323 321 323 323 324 324 332 341 345 348 347 349 351 351 350 351 352 354 353 352 352 353 354 354 352 349 350 350 349 347 346 346 345 343 345
316 315 315 317 318 318 318 318 319 320 319 320 321 321 321 325 329 328 332 331 335 341 347 350 352 354 354 354 354 355 355 355 352 352 352 350 350 350 349 349 347 345 346
312 314 315 315 317 317 318 318 318 319 319 319 320 320 321 321 322 327 327 328 329 335 338 339 344 347 350 352 354 356 356 355 354 352 351 352 351 351 350 349 349 347 347
307 310 312 312 314 314 315 316 317 318 319 320 320 319 320 320 320 323 326 327 328 330 334 335 339 345 344 349 350 354 356 358 357 355 355 356 354 353 352 351 350 349 348
306 307 308 309 311 312 313 315 315 316 317 318 319 320 321 324 321 321 324 330 332 328 329 334 337 346 345 341 339 349 352 354 356 356 356 356 355 354 354 353 353 352 351
304 305 306 308 309 310 311 313 314 315 316 318 319 320 322 323 324 321 321 326 335 335 337 335 350 349 346 339 338 348 352 353 355 356 356 356 356 356 355 354 353 353 354
301 302 303 304 306 307 308 310 312 314 314 316 317 319 320 320 320 319 320 323 329 333 336 342 346 351 350 349 349 351 353 354 355 355 355 355 355 355 355 356 356 355 356
300 301 301 302 303 304 305 306 307 309 312 315 317 318 318 318 318 318 320 321 327 330 333 336 342 348 349 345 342 343 348 348 348 350 352 352 353 354 356 356 355 355 354
299 299 300 300 301 301 302 303 304 306 309 312 314 314 315 315 316 318 319 321 327 329 331 335 341 342 345 346 345 343 341 344 344 346 346 346 343 340 350 354 355 352 352
296 296 296 296 297 298 299 300 301 303 305 307 308 311 310 312 313 317 320 322 326 329 332 335 340 342 342 342 340 339 338 339 339 342 344 345 345 345 346 350 349 348 349
295 295 294 294 295 295 296 297 299 300 302 304 306 307 309 311 313 314 317 321 325 328 331 332 337 339 340 340 342 343 341 340 342 343 344 343 343 343 343 344 344 344 346
296 294 294 294 294 294 294 295 296 297 299 301 304 305 307 309 312 312 314 318 322 324 326 328 330 335 334 336 336 340 341 342 341 341 342 341 340 339 340 341 342 342 341

GFSGL_850_thetae_090.txt.gz
Theta_e
354 356 356 351 348 344 345 342 349 349 353 349 339 345 350 350 351 344 348 351 349 345 346 348 350 345 339 349 350 347 345 345 345 344 345 346 346 345 342 347 348 337 341
356 357 356 356 355 355 347 344 343 341 341 350 350 351 351 350 352 350 346 352 351 349 344 344 347 352 346 341 344 347 349 348 348 348 346 339 346 348 347 349 350 348 349
355 356 356 355 355 356 355 353 353 349 344 338 341 349 346 344 347 349 351 347 348 352 350 349 348 346 348 348 348 349 344 345 346 351 353 353 347 347 348 349 349 352 347
351 351 355 356 355 355 354 354 355 354 352 346 347 348 349 348 347 348 351 348 347 350 353 353 349 352 352 348 346 347 347 346 348 351 351 349 351 350 350 352 353 351 344
348 350 350 352 356 357 356 355 353 355 354 353 349 347 349 349 352 350 347 346 349 350 349 350 354 350 346 350 349 348 352 351 352 352 351 353 350 347 346 346 345 345 347
345 346 347 342 351 354 353 353 356 354 353 354 355 351 348 347 351 348 351 353 350 351 351 347 348 353 354 354 352 345 340 351 351 350 349 345 344 344 342 342 343 342 334
341 341 345 346 348 351 352 353 354 354 352 350 353 355 354 351 347 349 347 345 348 352 352 348 347 348 349 351 350 349 347 340 339 339 339 335 333 332 335 335 336 338 338
330 335 337 341 344 346 348 349 351 353 353 353 353 351 351 353 353 351 348 347 344 343 346 351 351 350 348 352 353 354 353 353 351 347 346 341 339 342 343 343 342 340 341
328 327 325 329 337 342 343 345 348 348 351 352 352 352 353 352 352 354 355 352 349 346 342 342 343 347 347 346 344 346 349 353 355 353 348 346 345 346 347 348 347 345 342
325 325 326 326 322 325 332 340 342 343 344 348 350 352 352 352 352 352 351 353 353 352 351 348 346 344 343 340 349 354 350 337 339 344 350 348 346 345 346 348 344 345 346
320 318 321 319 320 326 323 323 326 336 343 344 347 347 349 350 351 353 352 352 352 353 352 351 353 352 349 349 349 347 341 335 338 341 342 344 346 343 342 342 342 344 345
317 316 314 316 317 317 317 320 321 324 327 334 342 343 344 345 347 349 349 350 351 353 354 351 351 353 354 352 351 350 349 348 347 345 347 351 351 349 347 347 346 345 344
317 315 315 313 314 317 318 316 322 325 327 331 332 336 343 345 348 348 348 349 350 351 354 354 352 351 349 351 353 352 350 349 348 348 348 349 350 349 349 348 343 337 340
316 317 317 317 317 318 319 321 323 324 326 328 330 330 327 331 339 347 349 350 351 351 352 352 352 351 350 351 350 350 351 352 352 351 351 351 352 351 351 348 348 343 340
315 317 317 317 317 317 319 320 320 321 321 320 320 320 320 321 322 323 333 339 339 345 349 350 351 349 350 350 350 351 351 351 352 352 352 352 352 351 351 350 348 347 346
310 312 315 316 317 317 317 318 318 318 318 319 319 319 319 319 320 321 321 322 326 328 330 335 343 346 346 350 352 356 356 355 354 354 353 352 352 350 349 352 352 350 349
308 309 310 310 313 314 316 317 317 317 316 317 318 320 320 320 318 319 320 321 321 323 325 327 331 336 342 344 342 346 350 351 353 354 356 355 355 352 352 352 349 349 351
305 306 307 309 310 312 313 313 314 315 317 318 319 319 319 319 319 319 321 321 320 321 322 324 327 330 335 338 337 338 341 347 351 354 355 355 347 353 354 355 353 352 351
305 305 305 305 306 308 309 311 312 312 313 315 316 316 317 319 320 323 324 323 322 321 321 323 329 335 338 340 340 338 342 343 345 345 351 354 353 352 351 352 352 354 355
303 303 302 303 304 305 306 308 309 309 310 311 314 316 317 319 321 323 325 326 323 320 320 320 323 331 336 339 348 348 348 348 344 339 346 349 349 349 352 353 352 352 353
302 302 302 302 302 302 303 304 305 306 307 308 311 313 314 316 317 318 320 321 321 318 318 320 321 325 330 337 344 350 346 342 347 349 348 348 349 350 352 351 351 350 351
300 300 300 299 300 300 301 301 302 303 304 306 307 308 311 314 316 318 319 320 319 318 318 319 321 323 327 329 337 344 347 348 345 346 345 347 346 344 344 352 351 351 351
298 297 297 296 296 296 297 298 299 299 300 302 303 305 307 311 312 314 316 317 316 315 316 319 320 322 327 329 331 340 342 346 346 342 342 342 341 341 343 345 343 342 342
297 296 296 295 295 295 295 295 296 297 298 299 300 301 303 305 307 308 310 311 311 312 315 318 321 323 327 329 332 339 341 342 344 344 342 340 339 339 340 341 339 339 342
298 297 296 296 295 294 294 294 294 295 296 297 298 299 301 302 303 304 305 306 308 309 312 316 318 321 324 328 333 335 338 339 341 341 340 340 339 338 338 340 341 341 343
299 298 297 296 295 294 294 294 293 293 293 294 295 296 297 299 301 303 305 306 308 309 313 316 317 320 324 326 330 334 334 336 338 340 341 341 340 341 340 341 340 341 340

GFSGL_850_thetae_093.txt.gz
Theta_e
344 341 341 341 342 343 346 347 348 348 350 348 346 347 342 345 346 343 344 346 348 343 341 346 338 337 340 339 347 343 342 346 347 345 343 343 344 339 337 339 346 349 350
349 348 347 344 346 343 343 346 349 349 347 347 347 347 340 349 348 350 345 342 351 349 343 344 343 343 337 334 341 347 346 344 347 347 345 345 346 345 347 347 348 349 351
346 346 350 353 353 347 343 345 344 344 344 341 339 343 340 344 347 347 349 349 344 349 350 349 345 343 343 339 338 338 336 338 343 346 347 348 348 348 352 352 352 352 350
340 344 348 348 349 351 352 352 351 347 347 346 340 338 342 344 347 347 345 347 347 347 347 352 352 350 348 346 344 345 341 341 342 345 346 348 346 352 349 345 346 346 345
340 340 342 345 348 348 349 350 351 352 352 352 350 345 346 347 345 347 345 343 344 344 346 347 349 352 351 352 349 349 348 340 345 347 348 349 350 351 348 344 340 336 329
339 342 339 337 346 337 333 348 351 351 353 353 353 353 351 347 346 346 348 352 352 351 350 347 348 346 347 352 352 353 351 345 337 334 340 343 335 331 330 331 333 335 332
341 344 346 345 342 341 340 345 347 351 353 353 352 351 353 354 351 348 351 352 349 349 348 349 347 346 346 345 347 347 350 351 349 346 344 345 343 338 337 338 342 344 342
328 330 336 343 344 345 346 348 348 349 350 351 350 351 352 353 352 352 350 347 349 349 348 349 349 345 345 346 346 348 350 352 352 352 351 348 347 341 347 346 348 346 340
325 325 326 324 328 336 341 343 344 347 348 349 350 350 351 351 351 351 351 352 349 348 348 347 345 344 343 344 348 345 343 346 344 340 338 337 337 341 345 347 346 347 340
318 318 318 318 321 323 324 326 331 339 342 344 345 345 349 351 351 350 351 351 351 351 351 350 349 348 347 345 343 343 343 341 341 342 342 337 337 339 346 345 343 340 339
316 314 315 315 316 316 316 318 320 323 325 329 335 341 343 346 346 348 350 351 350 350 350 350 351 352 352 350 351 350 349 349 349 348 347 345 344 344 344 344 344 347 346
315 314 312 312 312 313 314 315 316 320 324 326 329 331 334 344 347 346 346 347 349 350 350 350 351 352 353 354 354 353 353 353 352 351 350 348 346 346 347 348 348 348 347
313 314 315 316 313 312 314 316 319 323 323 326 333 331 329 329 334 338 341 344 348 348 349 349 350 350 349 350 350 351 353 353 352 351 350 349 349 348 348 349 350 350 350
311 314 316 317 318 318 317 318 319 321 321 321 323 323 320 319 319 320 321 327 336 343 345 346 349 349 349 348 349 349 349 349 349 350 351 351 351 351 351 350 351 351 351
307 308 312 315 316 317 317 317 318 319 319 318 318 319 319 319 318 318 318 320 321 322 324 330 338 341 342 344 348 348 348 349 349 349 350 350 350 351 351 351 351 352 351
306 306 306 307 308 309 311 314 316 318 319 319 319 318 318 318 320 320 320 318 318 320 321 321 322 324 325 327 330 340 345 350 351 353 353 353 352 352 352 352 352 353 350
304 304 304 305 305 306 307 310 311 311 315 317 317 318 320 320 320 320 319 319 319 319 319 320 321 321 321 323 324 328 333 343 344 339 346 352 353 351 351 352 352 351 350
302 303 303 303 302 302 304 305 307 310 310 311 311 314 317 318 318 318 318 320 321 322 321 320 322 323 324 330 334 335 337 339 339 337 337 340 346 349 351 352 352 341 338
299 300 300 300 301 302 302 303 304 305 306 308 309 310 311 313 315 316 318 322 323 323 326 325 327 331 333 329 326 330 333 337 346 347 345 345 347 346 345 348 351 350 339
299 299 300 300 300 301 301 301 302 302 303 305 306 306 308 309 313 316 317 318 319 321 322 323 323 318 319 319 321 324 326 329 334 344 349 346 347 344 341 346 350 350 348
298 299 299 298 298 298 298 298 299 300 301 302 302 303 304 305 306 309 312 313 318 319 320 319 318 317 316 317 319 321 323 325 329 337 341 348 345 343 346 347 347 348 348
298 298 298 298 297 297 297 296 296 296 296 298 299 300 301 302 303 305 308 311 313 316 318 318 318 318 315 315 317 320 322 324 326 329 339 342 343 347 345 344 342 342 341
299 299 299 298 297 297 297 296 295 295 294 294 295 296 298 299 300 302 303 306 309 310 313 314 317 316 313 313 315 318 321 324 327 328 333 339 341 344 343 343 341 340 339
299 299 299 298 297 295 295 295 295 295 294 293 293 294 295 296 297 299 300 302 304 306 308 310 313 313 312 312 313 316 319 322 326 329 331 335 336 341 342 343 340 340 341
300 300 299 299 298 296 294 295 294 294 293 293 292 292 293 294 296 297 297 299 300 302 303 303 306 309 311 311 311 314 317 321 324 328 330 333 336 338 340 341 341 338 339
300 300 300 299 299 297 295 294 294 293 293 292 292 292 292 293 293 294 296 297 299 301 302 303 304 306 308 311 312 315 318 320 325 327 330 333 334 336 337 339 339 339 339

GFSGL_850_thetae_099.txt.gz
Theta_e
343 340 339 340 343 345 343 345 347 348 348 347 348 348 349 344 341 343 344 344 340 338 337 340 341 336 335 339 340 342 339 343 344 343 342 342 344 344 342 348 348 348 349
342 342 338 338 339 340 341 339 345 346 347 347 347 346 345 345 343 343 341 343 342 343 348 347 340 340 341 341 342 342 338 337 340 341 343 342 342 340 341 341 348 349 348
343 341 341 341 341 340 341 342 343 348 345 346 346 346 346 345 343 345 345 346 346 342 343 347 345 341 340 339 339 340 341 345 345 338 337 336 335 336 336 336 341 346 342
343 342 343 343 342 341 341 343 342 342 345 348 349 348 347 347 346 344 348 348 346 346 348 346 344 345 343 341 340 341 342 346 347 348 347 343 338 339 339 337 333 331 329
343 343 342 341 341 342 343 343 343 342 342 343 347 349 349 347 343 343 344 347 347 346 344 346 345 347 345 345 346 345 347 348 350 349 348 348 347 345 344 344 342 337 335
342 343 338 337 340 340 341 341 342 344 345 344 344 345 348 349 348 346 346 346 346 348 348 345 348 350 349 348 349 346 346 346 349 350 348 348 348 349 350 351 348 345 342
340 339 341 340 340 335 337 339 340 341 340 342 344 345 346 346 346 344 345 346 346 345 346 349 349 347 346 348 347 348 350 349 348 347 348 346 349 350 349 347 346 343 341
336 339 340 340 336 336 336 339 339 339 338 339 342 343 343 344 344 344 346 347 347 345 345 346 347 348 348 347 347 347 346 345 344 343 343 343 343 341 341 341 344 345 344
330 331 334 336 339 338 337 340 338 337 340 339 339 339 340 342 342 343 344 346 346 347 347 347 348 348 348 347 347 348 348 346 346 345 345 345 345 344 344 345 345 345 344
322 323 324 326 327 327 334 335 329 330 332 337 339 339 340 341 343 344 344 345 347 347 349 349 349 350 350 350 350 350 349 348 349 349 348 347 347 346 347 348 348 348 348
316 315 316 317 318 319 318 319 318 323 326 327 333 333 334 337 336 341 342 344 345 345 346 347 347 348 349 349 349 349 349 349 350 351 350 350 348 347 346 348 349 350 350
312 312 311 311 311 312 313 315 316 320 323 325 331 334 332 327 323 322 323 323 329 332 337 340 342 343 345 346 347 348 348 348 348 349 350 349 349 349 349 349 350 350 350
309 310 310 311 312 312 311 312 314 317 320 321 322 325 325 323 321 320 319 319 319 320 320 321 326 332 336 339 341 342 343 343 343 343 344 346 347 348 348 348 348 347 347
305 306 308 311 312 313 314 314 315 316 317 318 318 318 319 318 318 319 318 318 318 318 319 319 319 320 321 322 323 327 331 332 328 328 331 334 336 341 346 347 349 349 349
305 305 306 306 306 308 309 312 314 315 315 316 317 317 316 316 316 316 316 316 315 316 316 316 317 317 318 318 319 320 321 321 322 323 324 326 331 335 339 344 345 345 347
302 302 302 302 302 303 303 303 304 305 306 308 309 312 314 314 316 316 317 317 317 316 315 315 315 315 315 316 318 317 318 322 324 327 330 333 336 340 341 341 343 341 340
301 301 300 300 300 301 301 301 302 301 302 302 302 303 304 305 306 308 309 311 314 315 316 316 316 316 316 317 318 323 327 326 327 328 328 324 324 329 330 337 342 345 345
300 300 300 300 300 300 300 300 300 300 301 301 301 302 302 302 302 303 303 304 305 307 309 311 313 315 317 322 322 323 324 323 322 321 318 317 318 320 323 327 332 344 347
299 299 299 299 299 299 299 299 299 299 300 300 300 300 300 301 301 301 302 302 302 303 304 306 310 312 315 317 318 318 319 320 320 319 319 317 314 315 319 322 327 335 340
299 299 300 299 299 299 299 299 299 298 298 298 298 299 299 300 300 300 300 300 300 300 301 302 305 309 310 312 315 314 315 316 316 316 317 317 315 312 313 318 321 326 331
300 299 299 299 299 299 299 299 299 298 297 297 298 298 298 298 298 298 298 298 298 298 298 299 301 300 303 306 307 309 311 312 312 314 314 315 316 314 312 312 316 321 324
302 300 299 299 299 299 299 299 298 296 296 296 297 297 297 297 297 297 297 297 297 297 297 296 296 297 300 304 304 303 304 305 309 311 311 312 313 314 314 312 311 315 322
303 302 301 299 300 299 299 298 297 296 296 296 296 296 296 296 295 295 295 295 296 296 295 294 294 295 297 298 299 299 299 300 301 303 307 308 310 312 313 313 311 311 317
303 302 302 300 300 300 300 299 298 297 296 296 295 295 295 294 294 294 294 294 294 294 294 293 293 293 295 296 297 297 297 297 299 300 302 304 306 308 309 310 310 309 314
302 302 301 301 301 301 301 301 300 299 298 297 296 295 294 294 293 293 292 293 293 293 293 292 291 292 293 295 295 295 296 297 298 298 300 301 303 306 308 309 310 311 313
302 302 303 302 302 301 301 302 302 301 299 298 296 295 294 293 293 293 292 292 292 292 292 292 292 292 293 294 295 296 298 299 300 300 300 302 303 304 306 308 311 314 315

GFSGL_850_thetae_102.txt.gz
Theta_e
345 344 342 340 340 344 345 346 346 346 347 345 346 347 348 348 345 342 344 342 341 340 338 337 336 340 338 335 336 340 341 340 340 342 342 341 339 339 340 337 338 344 347
344 346 344 342 341 342 343 344 341 345 345 345 345 347 346 345 346 343 344 343 343 342 342 345 343 341 338 341 342 342 341 340 338 338 338 338 337 334 336 337 337 339 345
344 343 342 344 342 338 339 338 341 340 345 345 345 346 346 345 344 343 343 345 343 342 341 344 346 346 343 342 343 342 345 345 345 346 346 345 342 340 338 336 336 334 331
340 343 342 344 344 343 340 340 340 342 342 346 343 345 347 348 347 346 343 343 347 346 343 344 345 345 345 346 347 347 347 345 347 349 349 349 346 345 347 347 343 339 335
343 343 342 342 342 342 342 342 341 341 342 341 342 343 349 348 349 348 344 343 343 346 344 344 344 345 345 347 346 344 345 344 346 347 348 347 345 344 346 350 350 344 335
342 343 340 338 341 340 340 340 341 341 342 343 343 342 341 342 344 347 347 346 344 343 343 343 344 344 347 348 348 348 349 350 347 349 348 346 345 344 346 346 345 342 339
340 341 342 342 338 337 336 336 339 339 340 341 342 343 345 344 344 345 345 344 343 343 344 343 343 345 346 345 346 345 346 346 348 349 346 344 343 342 344 342 342 342 342
338 339 339 339 340 339 336 334 336 337 339 339 338 338 341 342 343 343 343 343 344 345 345 345 345 344 344 344 344 345 347 346 346 346 345 343 343 343 344 345 345 344 343
335 336 336 338 337 335 336 334 337 337 338 339 337 338 339 340 340 341 342 343 344 344 346 346 345 346 346 345 346 347 346 345 346 348 348 348 348 347 348 348 347 348 348
325 326 328 331 334 335 336 334 332 331 335 336 337 338 339 339 339 340 341 342 343 344 345 345 346 347 348 347 347 348 349 349 348 348 348 348 349 348 349 349 349 349 350
315 315 316 318 320 319 319 319 320 324 328 330 336 335 335 336 335 337 335 337 338 339 340 341 342 341 342 344 345 346 347 348 348 348 347 347 347 347 348 349 349 349 349
312 312 312 312 312 312 313 315 317 322 324 327 331 333 330 326 326 326 328 324 323 324 324 322 322 324 328 333 337 340 341 342 343 343 343 343 343 345 345 346 347 347 347
309 309 310 310 311 311 311 311 313 316 319 321 322 325 325 325 323 321 321 322 320 319 318 318 319 319 318 319 321 321 323 327 330 330 330 330 330 331 335 337 339 344 346
305 306 307 309 310 311 312 312 312 312 313 314 315 316 316 316 316 317 317 317 316 315 315 315 315 315 316 316 317 318 318 321 322 324 326 326 325 325 327 333 336 338 341
305 305 305 305 306 306 307 308 309 310 311 312 312 313 313 313 313 313 312 312 312 312 312 312 312 312 312 311 312 312 314 317 319 323 326 327 327 328 330 329 336 339 341
304 303 303 303 302 302 302 302 302 303 303 303 303 304 305 305 305 305 306 306 306 307 307 308 309 310 311 311 312 313 314 314 314 318 320 322 322 323 322 322 323 328 330
301 301 301 301 301 301 301 300 300 300 300 300 301 301 301 301 301 302 302 302 302 303 303 304 305 306 308 311 314 313 316 317 318 320 319 319 320 319 318 316 317 319 323
300 300 300 300 300 300 300 300 300 300 300 300 300 300 300 300 300 301 301 301 302 302 302 302 302 303 305 308 310 313 314 315 316 316 315 317 319 318 317 318 316 314 315
299 299 300 300 300 299 299 299 299 299 299 299 299 299 299 300 300 300 300 300 300 300 300 300 300 301 301 303 307 309 310 312 313 313 312 313 315 315 314 314 315 316 313
299 300 299 299 299 299 299 299 299 298 298 297 297 298 298 299 299 299 299 299 299 298 298 298 298 299 299 299 300 301 302 304 306 306 307 308 309 310 311 312 313 314 314
300 299 299 299 299 299 299 299 298 297 296 296 296 296 297 297 297 297 297 296 296 296 296 296 296 296 297 297 298 300 302 303 302 302 302 303 304 305 307 309 310 311 312
301 300 299 299 299 299 299 299 298 298 297 297 296 296 296 296 296 296 296 296 295 295 295 295 295 295 294 293 294 296 296 298 299 299 299 300 300 301 301 303 307 309 309
302 301 300 299 299 300 300 300 299 298 298 298 296 296 295 296 296 296 295 295 295 294 294 294 294 294 294 294 293 293 293 295 297 297 297 296 297 298 299 300 301 303 306
303 301 300 300 300 300 300 300 300 299 299 298 297 297 295 295 296 296 295 295 294 294 293 293 293 293 293 293 293 294 293 294 294 294 294 294 295 297 296 298 299 301 301
304 302 300 301 301 301 301 301 301 301 300 299 298 297 296 295 295 295 295 295 294 293 293 293 293 293 293 293 293 293 293 293 295 295 296 296 297 297 297 298 298 300 301
305 304 301 301 302 302 302 302 302 302 301 300 299 298 297 295 294 295 294 294 294 293 293 293 292 292 292 292 292 292 292 293 293 294 295 295 297 298 299 299 300 300 301

GFSGL_850_thetae_105.txt.gz
Theta_e
342 343 342 341 341 341 343 344 346 345 345 346 346 346 346 346 346 342 342 342 341 340 339 336 336 335 336 339 338 338 340 342 346 345 342 339 337 338 334 336 341 342 344
344 343 343 343 341 341 341 343 345 345 347 347 346 346 346 347 346 344 342 343 342 342 341 340 343 344 343 339 338 341 342 342 342 348 346 345 341 340 338 339 338 343 339
345 344 343 343 343 340 341 342 343 341 340 345 344 345 345 344 344 344 342 342 341 340 341 341 342 345 344 344 343 344 343 344 346 346 348 350 346 346 346 346 342 340 341
345 343 343 343 342 343 341 337 338 338 340 341 346 345 346 346 347 346 346 344 343 344 344 342 343 342 344 343 343 342 343 344 345 345 351 351 351 349 345 348 350 350 341
342 343 342 342 342 344 344 341 340 340 340 341 341 343 341 342 346 347 346 345 343 343 342 343 343 342 343 345 345 344 343 342 344 348 349 349 350 349 349 349 350 348 344
342 342 342 341 341 341 340 340 341 341 341 342 342 341 342 342 343 341 344 345 344 343 343 342 342 342 343 343 346 348 348 346 345 346 349 351 351 350 349 349 349 348 347
342 341 342 340 341 339 340 339 336 339 339 340 341 342 343 343 343 343 342 344 344 343 343 343 343 344 343 344 345 345 346 346 346 345 343 344 346 349 348 344 350 348 349
341 341 341 341 340 335 339 337 334 334 336 338 339 338 339 340 342 342 342 343 344 344 344 344 345 345 345 344 345 345 344 344 343 345 346 346 346 347 347 348 348 348 348
339 338 338 339 339 338 338 337 337 335 337 337 338 338 338 339 339 340 341 342 342 343 344 344 345 346 345 345 345 346 346 346 347 347 348 347 347 347 348 349 349 351 352
332 334 335 336 335 334 334 335 335 333 334 337 338 338 338 338 338 338 338 340 340 341 341 342 342 342 343 344 343 344 345 345 346 346 348 348 348 348 348 348 348 349 350
323 323 325 326 326 326 326 327 329 329 331 335 337 334 330 332 335 334 334 333 333 333 332 332 330 330 332 333 334 337 340 341 342 343 343 343 342 343 344 345 345 347 347
314 314 314 314 315 315 316 317 320 326 328 330 331 328 326 321 325 325 323 322 321 321 320 319 319 319 320 320 319 320 322 323 326 331 335 336 337 339 341 340 337 337 341
311 311 311 311 311 312 312 313 317 320 322 323 322 323 322 324 324 323 322 320 319 319 317 317 317 318 317 316 316 317 317 318 322 325 324 326 331 330 329 330 332 336 341
307 308 309 310 310 311 312 312 312 313 313 314 315 315 315 314 314 313 313 312 312 312 312 312 312 312 311 311 311 313 313 314 314 317 319 321 323 324 324 325 325 324 324
305 305 306 307 307 308 309 310 310 310 310 310 310 309 308 307 306 306 305 305 305 305 305 305 306 306 307 307 308 311 322 323 322 318 316 315 316 319 319 319 320 320 321
304 304 304 303 303 303 303 303 302 302 302 302 302 302 302 302 302 302 302 302 302 302 303 303 303 303 305 305 307 309 315 317 317 314 316 317 318 318 319 317 319 320 319
302 302 301 301 301 300 300 300 300 300 300 300 300 300 300 300 301 301 301 301 302 302 302 302 302 302 303 304 308 312 309 310 311 313 313 313 314 314 314 316 318 318 318
301 301 300 300 300 300 300 299 299 299 299 299 299 299 299 300 300 300 301 301 301 301 301 301 301 301 301 301 301 302 302 303 305 307 308 309 311 310 310 309 310 313 315
300 300 300 300 300 300 299 299 299 299 299 298 298 298 298 299 299 299 300 300 299 299 299 299 299 299 299 299 299 300 300 301 302 304 306 305 306 306 306 306 307 307 308
300 300 300 300 299 299 299 299 299 298 298 297 297 297 297 298 298 298 298 298 298 298 298 298 298 298 297 297 297 298 298 298 299 301 303 303 302 302 302 302 303 303 304
300 300 300 299 299 299 299 299 298 298 298 298 297 296 296 296 297 297 297 297 296 296 296 296 295 295 296 296 296 296 296 296 296 297 299 300 300 300 300 300 300 301 302
301 300 299 299 299 299 299 299 299 298 298 298 297 297 296 296 296 296 296 296 296 296 295 295 294 294 293 293 293 293 293 295 295 295 294 295 296 297 297 297 297 298 299
302 301 300 299 299 299 300 300 300 299 299 299 298 297 297 296 295 295 296 296 296 296 295 295 294 294 294 293 293 293 292 292 292 292 293 293 294 295 295 295 296 297 298
303 303 302 300 300 299 300 300 300 300 300 300 299 298 298 297 296 295 295 295 295 295 295 295 294 294 294 293 293 293 293 293 292 292 292 292 293 293 294 295 296 296 297
304 304 304 302 300 300 301 301 301 301 301 301 300 299 298 297 296 296 295 295 295 295 295 295 294 294 293 293 293 293 293 293 293 293 293 293 293 293 294 294 295 296 297
308 305 304 304 301 301 301 301 302 302 302 301 301 300 299 298 297 297 296 295 295 295 294 294 294 294 293 293 293 293 293 293 293 293 293 293 294 294 295 296 297 297 298

GFSGL_850_thetae_111.txt.gz
Theta_e
351 351 349 347 347 348 350 350 351 351 347 349 351 352 352 351 352 347 350 351 352 351 348 351 351 350 349 346 347 346 345 345 345 346 346 344 345 349 349 351 349 349 346
352 352 351 351 348 347 348 349 350 350 351 351 353 350 352 353 351 352 352 350 352 351 351 350 350 347 351 348 346 345 345 345 346 345 346 350 347 349 347 349 349 348 346
353 353 351 350 350 349 347 347 349 353 352 352 351 353 353 354 355 352 352 352 353 350 350 351 350 351 352 350 350 350 349 351 351 350 349 346 348 349 349 349 348 347 346
352 351 351 352 352 351 348 347 348 349 352 352 353 352 352 351 353 353 352 353 352 351 350 350 350 351 351 353 352 352 349 351 350 349 349 347 347 348 352 347 346 345 346
344 343 346 349 350 351 351 350 348 347 350 350 351 350 352 351 353 352 352 353 352 351 351 352 351 352 349 347 346 349 350 349 351 350 348 347 346 351 346 348 347 348 349
339 342 342 344 347 350 348 346 347 349 350 350 350 350 351 350 345 345 344 351 352 352 351 352 349 350 346 343 340 340 341 343 344 347 351 349 347 350 351 352 353 353 352
342 341 341 345 346 346 346 348 347 347 349 347 348 345 343 340 341 341 341 343 351 350 350 348 348 347 344 344 343 344 345 345 346 347 346 350 349 351 351 350 350 352 353
342 342 342 342 342 342 343 345 344 345 345 345 345 342 342 342 342 342 343 344 344 344 343 344 344 342 343 343 343 346 351 350 351 348 349 349 349 348 347 348 349 350 352
343 343 342 341 341 340 340 339 335 335 339 338 340 340 339 339 339 341 342 348 345 343 342 343 342 342 342 341 340 340 340 344 347 346 344 343 343 344 346 346 350 349 349
341 342 341 341 341 340 338 338 337 336 336 336 337 338 338 338 338 339 340 341 342 340 336 336 337 337 336 333 329 328 325 325 325 330 338 343 345 346 346 347 348 348 346
340 338 338 338 337 336 336 337 337 337 336 337 338 338 337 336 335 336 337 336 335 333 333 332 330 324 323 322 322 321 320 320 326 336 337 340 342 342 342 340 342 341 340
334 333 332 331 329 332 334 334 333 333 336 337 333 330 332 333 334 332 332 330 326 326 326 324 323 321 320 318 317 316 315 315 329 332 332 333 333 332 331 328 329 331 330
322 322 322 323 323 326 327 328 332 331 330 330 328 325 322 323 323 325 326 324 323 321 316 314 312 310 310 313 314 312 312 326 328 328 327 327 326 326 324 325 325 325 325
315 315 316 317 319 322 323 324 324 325 324 324 323 322 319 320 319 317 314 311 309 308 307 306 306 311 318 319 320 322 324 324 323 324 323 321 321 322 322 322 323 323 321
317 317 317 315 319 315 316 316 319 320 319 319 317 316 315 311 308 306 304 303 303 303 303 309 306 311 315 314 311 316 319 317 317 314 316 318 319 318 318 318 318 318 318
315 315 315 315 314 312 311 311 311 312 312 311 308 305 304 302 302 302 302 302 302 302 307 311 310 308 309 309 310 307 309 307 306 307 311 312 313 313 313 313 314 315 316
313 311 311 312 311 311 307 305 304 303 302 302 301 301 301 301 301 301 301 301 302 307 309 309 308 308 307 306 307 307 307 306 306 307 304 304 307 311 311 310 310 310 310
311 309 309 309 309 309 309 308 306 305 303 300 300 300 300 300 300 300 301 304 307 306 306 306 306 306 306 306 306 306 306 305 304 304 305 306 306 306 306 306 306 307 307
303 307 308 308 308 308 308 308 308 308 308 306 300 300 299 299 299 299 300 305 305 305 304 304 304 304 304 304 303 303 303 303 302 303 303 303 303 304 304 303 303 302 302
303 306 307 307 306 306 307 307 307 307 307 306 306 305 304 303 305 305 305 304 304 304 304 303 303 302 302 301 300 300 301 301 301 301 300 300 300 300 300 300 300 300 300
305 303 302 305 305 306 306 306 306 306 306 306 305 300 300 305 304 304 304 303 303 302 302 301 300 299 300 300 299 299 300 299 299 299 298 298 297 296 296 297 297 298 298
306 305 302 305 306 306 306 306 306 306 306 306 305 303 299 301 303 303 303 303 302 301 300 298 298 298 298 297 297 297 296 297 297 296 295 295 295 294 294 295 295 296 296
306 306 305 305 305 305 305 306 305 306 306 306 306 305 304 304 303 303 302 302 302 302 301 301 301 300 299 298 297 296 296 295 294 294 293 293 293 293 293 293 293 294 294
307 306 306 306 306 306 306 305 306 305 306 306 306 306 305 305 304 303 303 302 302 302 302 301 301 300 299 298 298 297 296 294 293 293 293 293 293 293 293 293 293 294 294
309 309 309 308 308 306 307 306 306 306 306 305 306 306 306 306 305 305 304 303 302 302 302 301 301 300 299 298 297 297 295 294 293 293 293 293 293 293 293 293 293 294 295
311 311 309 309 309 309 308 307 307 307 307 307 307 307 306 306 306 305 305 304 303 303 302 302 301 300 299 298 298 296 294 294 294 293 293 293 293 293 293 293 294 295 296

GFSGL_850_thetae_114.txt.gz
Theta_e
350 347 347 346 346 349 348 347 348 347 340 350 351 352 347 344 345 348 346 349 349 348 344 346 350 347 340 345 345 346 345 343 342 344 344 344 347 346 347 347 348 350 348
348 346 348 346 347 348 347 348 350 350 345 346 347 347 349 349 350 346 342 351 350 349 347 349 344 348 347 351 350 353 349 349 348 351 349 347 345 348 349 349 350 348 345
348 350 349 350 349 346 347 346 347 351 347 350 349 349 347 346 348 349 346 344 349 350 346 350 350 349 348 349 345 348 347 347 347 347 344 349 349 352 350 349 348 346 347
351 351 352 350 352 349 348 347 345 348 348 349 350 347 348 350 349 349 350 346 351 348 351 349 347 347 349 348 350 346 349 349 348 349 351 350 347 348 348 345 350 349 350
349 348 349 351 349 349 351 349 345 348 345 346 347 349 350 349 349 350 348 347 348 347 349 351 351 350 349 350 347 344 342 342 340 344 341 341 346 345 345 343 347 346 344
343 342 346 348 346 345 347 349 349 346 346 347 348 349 347 350 344 345 346 343 351 345 345 350 350 347 347 343 340 341 342 343 342 342 343 344 344 345 347 348 346 346 349
343 342 340 341 342 343 344 347 349 347 349 348 349 349 348 345 342 341 344 343 341 345 345 342 343 343 341 343 343 343 344 348 352 349 348 347 349 347 346 345 345 348 349
343 342 342 342 346 346 347 348 346 345 343 341 342 340 342 340 340 341 342 341 342 343 343 343 342 343 341 342 342 342 342 346 348 348 347 346 343 344 346 347 347 349 347
344 342 342 341 340 340 342 344 344 342 344 343 341 340 340 340 340 341 341 342 343 343 343 343 343 342 342 340 339 338 336 336 336 335 337 342 344 346 346 346 347 348 346
341 342 342 341 341 341 337 340 340 339 336 335 331 331 335 337 339 340 340 344 343 341 337 336 335 334 332 327 325 324 323 323 324 335 338 342 338 339 339 339 341 340 338
341 341 341 341 340 340 339 338 337 336 336 337 337 337 337 337 337 338 339 339 339 337 337 333 332 326 323 323 322 321 320 317 321 332 333 333 334 334 332 332 327 329 329
337 339 338 337 335 336 336 337 337 337 336 335 336 335 335 335 333 333 333 333 334 334 331 330 326 324 321 313 312 311 310 326 328 330 329 329 329 327 326 323 325 325 325
333 333 333 332 332 333 334 335 333 334 334 331 328 326 326 331 331 329 328 328 326 327 327 325 324 311 309 317 322 324 323 327 326 324 324 324 322 321 321 322 322 321 320
323 323 323 323 325 326 326 329 329 329 329 328 327 325 323 323 324 322 318 314 311 310 309 308 307 318 319 318 319 321 321 321 319 321 321 317 319 319 319 318 315 313 312
315 316 316 317 320 323 324 324 326 326 325 324 323 322 319 314 309 307 306 305 304 304 304 311 309 311 312 308 306 309 311 310 306 304 304 305 306 309 311 312 311 311 311
312 314 317 318 317 317 319 319 317 322 321 320 319 314 312 310 303 302 302 302 302 304 310 314 309 306 305 307 308 306 305 304 304 304 303 303 303 304 305 305 306 307 308
315 315 315 315 314 312 308 310 309 311 313 312 308 304 302 302 301 301 302 302 307 309 310 309 308 308 308 307 306 306 306 305 303 302 303 305 305 304 303 304 304 303 303
312 311 311 312 312 312 310 308 304 302 302 301 301 301 301 300 301 301 303 307 307 307 307 307 307 306 305 305 304 303 302 304 302 302 303 302 302 302 302 302 302 302 302
309 309 310 310 310 310 310 310 310 310 309 305 300 300 300 300 300 300 304 307 307 306 306 305 304 304 303 301 300 300 300 301 301 300 300 300 300 299 299 298 298 298 299
309 308 309 309 308 309 309 308 309 309 309 309 309 307 304 305 307 307 304 306 306 305 305 305 303 301 300 299 299 299 301 301 300 299 299 298 297 297 297 297 297 297 297
306 306 306 308 306 307 307 307 308 308 308 308 307 306 304 306 307 306 306 305 305 304 303 302 300 300 300 299 298 298 298 298 298 297 296 296 296 296 295 295 295 295 295
307 307 304 304 305 306 307 307 307 307 307 307 307 306 302 304 305 305 305 304 304 302 301 299 300 299 299 298 298 297 297 297 296 296 295 295 295 295 295 294 294 294 294
307 307 306 303 307 307 307 306 307 306 307 307 307 307 306 303 305 304 304 304 303 303 303 302 302 302 301 300 299 298 297 297 296 295 295 295 294 294 294 294 294 294 294
308 307 307 307 306 306 306 306 306 306 306 306 307 307 306 305 305 304 304 304 303 303 303 303 302 302 301 300 300 299 298 297 295 294 294 294 294 294 294 293 293 293 294
309 309 308 308 308 307 307 307 307 306 306 306 307 307 307 307 306 306 305 304 304 303 303 303 302 302 301 300 300 299 298 296 294 294 294 293 293 294 295 293 293 294 294
312 311 309 309 309 308 308 308 308 307 307 307 307 307 307 307 307 307 306 306 305 304 303 303 303 303 302 301 300 299 298 297 295 294 293 293 293 294 294 294 294 295 296

GFSGL_850_thetae_117.txt.gz
Theta_e
335 340 342 341 342 347 346 347 345 346 347 342 346 349 349 349 348 348 347 346 350 346 344 346 348 348 346 343 343 343 343 343 342 339 343 343 344 346 347 350 350 348 348
342 346 341 343 342 342 345 346 345 345 345 339 348 352 351 346 343 343 344 345 350 348 346 342 345 343 346 347 342 341 345 346 349 346 343 344 348 350 349 349 346 345 349
345 348 345 347 344 346 344 344 342 346 345 343 345 345 346 346 346 347 348 342 346 348 347 345 348 348 348 347 348 342 346 346 345 346 341 347 349 352 348 346 343 339 341
345 349 346 348 347 348 348 347 345 341 347 347 348 348 348 347 347 348 348 347 345 343 346 349 346 345 347 347 345 348 344 345 343 341 346 346 343 344 343 341 339 341 341
344 347 347 347 347 348 347 347 347 346 344 343 348 348 346 347 347 346 347 345 345 343 348 348 347 346 347 347 346 343 339 338 338 339 339 340 342 343 345 346 345 343 342
343 345 346 347 347 347 347 348 348 346 347 344 347 346 347 347 345 344 345 343 343 338 342 339 345 346 344 344 341 339 342 342 343 345 346 345 346 347 344 343 344 345 348
346 345 345 342 342 344 346 346 345 344 346 346 346 346 348 346 345 343 343 344 343 341 344 341 341 341 343 342 342 343 342 344 346 346 346 344 340 342 345 345 345 347 347
344 343 342 342 341 341 342 342 343 344 346 344 345 347 344 345 343 340 340 343 342 341 340 341 342 340 342 342 342 341 340 341 343 342 340 342 344 346 346 345 346 346 346
344 343 342 341 341 341 345 343 344 343 346 345 340 336 337 341 341 341 341 340 341 342 342 342 342 342 341 340 338 334 329 326 327 337 338 338 341 341 340 340 339 338 338
344 343 341 339 339 340 337 340 342 340 341 338 336 334 331 333 338 341 340 340 342 341 338 337 337 335 332 329 326 325 323 322 331 335 340 335 336 335 333 331 328 329 327
343 341 341 340 340 340 340 339 338 338 338 337 336 334 333 334 336 339 340 340 340 339 338 334 331 325 323 321 320 318 316 315 325 331 331 331 330 329 330 327 323 324 324
341 341 340 339 340 340 338 339 338 337 336 337 336 337 336 336 336 335 336 335 335 333 332 332 329 323 319 317 312 312 311 321 324 328 329 329 328 328 325 320 320 321 322
338 339 338 338 338 337 337 337 336 335 335 334 334 334 333 333 333 332 332 331 330 330 329 326 323 321 316 312 314 315 321 321 323 321 320 318 318 318 315 314 314 311 310
333 334 334 334 333 333 334 334 333 332 330 328 327 327 327 326 326 326 324 322 319 316 314 310 309 310 313 316 317 317 316 313 312 311 310 309 307 307 307 306 305 305 305
321 322 325 326 327 329 330 330 329 329 328 327 326 326 324 316 311 310 309 308 307 306 306 306 307 311 312 310 307 306 306 305 304 303 303 303 303 303 303 303 303 303 303
314 314 316 317 322 323 324 324 324 325 326 324 324 321 316 314 310 304 303 303 304 308 311 312 310 305 305 305 304 304 303 303 303 302 302 302 303 303 302 302 302 302 302
316 318 316 314 314 312 315 319 319 316 321 320 319 316 309 304 302 302 302 304 306 308 308 306 306 306 306 305 304 304 303 302 302 302 302 302 301 301 301 300 300 300 300
315 315 315 315 313 311 308 306 308 308 310 311 308 303 302 301 301 301 304 307 308 309 309 308 306 306 305 304 303 301 301 301 301 300 300 300 299 299 299 298 298 298 298
313 312 312 312 312 311 310 310 309 309 308 301 301 301 301 300 301 304 307 307 306 306 305 305 304 303 302 301 300 300 300 300 299 299 299 298 298 298 298 297 297 297 296
309 310 310 310 311 311 310 310 310 310 309 308 305 302 300 301 301 301 303 306 306 305 304 304 303 301 299 299 299 299 299 299 298 298 297 297 297 297 297 296 296 296 295
306 308 309 309 309 309 309 309 309 309 309 309 308 307 305 307 308 306 306 305 305 305 304 303 301 299 299 299 298 297 297 297 297 296 296 296 296 296 296 296 296 296 295
305 306 307 308 307 307 308 307 308 308 308 308 307 307 306 303 306 306 305 305 304 303 302 300 299 299 300 299 298 298 297 297 296 296 296 295 294 294 295 296 296 296 296
308 307 307 305 304 305 306 307 307 307 307 307 307 307 307 306 302 305 305 304 304 303 302 302 301 301 300 300 299 299 298 298 297 295 295 295 294 294 295 296 296 294 293
307 307 307 307 304 307 307 307 306 307 307 306 307 307 307 306 305 305 305 304 304 304 303 303 303 302 302 301 301 300 299 298 296 295 294 294 293 293 295 296 293 294 295
306 308 308 307 307 307 306 306 307 306 306 306 306 307 307 307 307 305 305 305 305 304 303 303 303 303 302 302 302 301 299 299 299 298 296 294 293 293 294 296 295 295 295
309 309 308 309 308 308 308 308 307 307 307 306 307 306 306 307 307 307 306 306 306 305 304 304 303 303 303 303 303 302 301 300 300 299 299 297 293 293 294 296 296 296 297

GFSGL_850_thetae_120.txt.gz
Theta_e
337 340 340 341 345 345 346 348 346 345 347 348 345 345 345 347 348 350 345 340 343 342 340 341 344 347 346 344 343 343 344 343 342 339 344 345 346 349 348 348 347 346 346
341 338 338 340 342 343 345 346 346 344 346 347 344 347 347 348 348 347 348 345 347 346 345 342 340 343 342 340 345 343 345 347 345 345 344 343 347 350 351 347 345 343 340
342 341 341 340 338 339 343 342 342 342 344 344 344 347 345 350 348 345 343 345 345 348 345 346 345 347 345 347 347 345 341 345 345 342 342 344 345 346 342 341 340 341 341
343 343 346 342 345 343 346 346 344 343 339 341 344 345 344 347 344 347 347 348 342 343 344 345 348 346 347 346 346 344 345 343 343 340 336 339 340 341 342 342 340 340 340
343 343 349 348 348 346 345 347 348 347 346 345 346 346 345 346 346 345 345 346 345 343 343 345 346 346 345 344 346 345 341 339 340 341 342 343 344 345 343 342 342 342 344
345 344 344 346 346 346 346 347 346 347 346 347 344 345 346 346 344 344 344 345 344 344 343 345 344 344 344 343 341 339 339 340 341 340 342 344 342 340 341 345 345 344 345
345 344 344 343 343 343 344 345 344 346 347 346 345 345 344 344 343 343 343 344 344 343 340 339 338 338 342 342 341 342 342 341 341 344 343 340 341 344 344 345 344 345 343
344 342 344 342 341 344 342 342 342 344 345 345 345 344 341 343 345 343 342 342 343 342 340 340 340 342 342 341 341 341 340 340 340 338 339 342 343 344 343 341 339 338 335
342 343 344 344 343 341 341 341 341 342 343 343 345 344 342 338 337 341 340 339 342 340 340 341 342 342 341 340 339 335 330 328 330 336 341 341 340 339 336 334 335 333 329
344 344 343 342 341 340 342 342 341 340 343 344 344 343 340 338 334 335 337 340 340 341 342 341 340 339 337 335 330 326 322 328 334 338 339 337 337 333 331 330 326 322 318
344 343 341 340 339 339 338 337 337 340 339 337 336 335 337 334 338 340 340 340 340 338 336 334 333 331 329 327 323 320 318 320 329 336 336 332 329 328 327 323 320 318 319
342 342 339 340 339 339 339 338 337 335 336 335 335 334 334 335 335 334 339 339 339 337 337 334 333 328 325 325 320 315 315 320 322 325 328 328 327 324 319 316 316 314 314
340 340 340 339 339 339 338 338 337 337 336 336 335 335 335 335 334 333 334 333 332 329 330 328 327 324 323 317 315 317 319 321 321 321 319 318 314 311 310 309 306 307 307
336 337 337 337 337 337 336 335 336 336 335 333 333 332 330 330 329 329 329 326 326 327 325 321 320 315 312 313 315 316 315 312 310 308 306 304 304 304 303 303 303 303 303
333 333 333 334 333 334 334 334 333 331 328 329 328 327 324 319 314 316 316 315 312 310 310 310 311 313 314 314 309 306 305 304 303 303 303 303 303 302 302 302 302 302 302
327 327 327 327 328 328 329 329 327 327 327 326 324 322 321 316 313 307 304 304 306 308 309 310 309 308 308 306 305 304 303 303 302 302 302 302 301 301 301 301 301 301 301
313 314 315 315 316 318 320 323 323 323 324 323 321 321 318 311 306 302 302 304 309 309 311 310 307 305 305 304 304 303 302 301 301 301 301 300 300 300 300 300 299 299 299
317 318 316 315 313 311 308 312 317 318 313 313 312 315 310 303 301 302 306 306 307 308 307 307 306 305 304 303 302 301 300 300 300 299 299 299 299 299 299 299 298 298 298
314 315 315 313 314 311 310 306 305 306 306 307 306 304 301 301 301 304 307 307 307 307 306 306 305 303 302 301 300 299 299 299 299 298 298 298 298 298 297 297 297 297 297
313 311 311 312 312 311 311 310 309 309 309 302 300 300 300 300 302 306 307 307 306 306 305 304 303 302 300 299 299 299 298 298 298 297 297 297 296 296 296 296 297 297 297
307 311 310 310 309 310 310 310 309 310 309 308 308 305 302 302 301 303 303 304 303 304 304 303 302 300 299 299 298 298 297 297 297 296 296 296 296 295 294 295 296 297 297
307 307 308 309 309 309 309 308 308 309 309 309 308 307 307 303 305 306 306 305 304 304 303 301 300 299 299 299 298 298 298 298 297 296 295 295 295 294 294 295 297 297 297
304 305 306 307 307 307 306 308 307 307 307 307 307 307 307 306 305 304 304 305 304 304 303 302 301 300 300 300 300 300 299 298 297 297 296 295 294 293 293 295 297 297 295
304 306 306 306 306 304 304 306 307 307 307 307 307 307 307 306 306 305 304 304 304 304 304 303 302 302 302 302 302 301 301 299 300 300 299 298 296 294 293 294 296 296 296
306 305 307 307 307 307 306 306 306 306 306 307 306 306 307 307 306 306 306 305 305 305 305 305 304 304 304 303 303 303 302 302 301 301 300 299 299 296 293 293 296 296 297
311 306 306 308 307 308 307 308 308 307 307 307 306 306 306 306 307 306 306 306 305 306 306 306 305 305 305 304 303 303 302 302 302 301 300 300 299 297 294 293 294 296 297

GFSGL_850_thetae_123.txt.gz
Theta_e
342 342 342 343 343 344 342 346 345 343 345 347 347 346 346 343 344 347 344 344 343 345 346 344 344 346 346 345 344 344 345 345 343 344 343 345 342 343 348 348 347 345 343
343 340 339 345 343 345 346 344 346 345 344 345 347 343 343 344 344 345 346 346 343 345 347 343 343 345 345 343 345 344 344 345 346 344 344 343 342 341 346 345 340 340 341
345 343 340 340 343 344 345 345 345 344 342 345 345 347 343 345 347 346 347 346 344 344 346 345 342 343 343 345 346 346 343 344 344 344 342 341 339 342 340 339 341 341 343
347 346 342 338 341 341 341 343 346 343 343 345 345 342 345 347 347 348 344 343 347 343 346 345 344 345 349 347 347 345 343 344 341 341 336 338 339 340 341 341 340 341 344
348 346 342 340 343 344 344 344 344 344 345 345 345 345 345 346 345 344 343 345 345 347 343 342 342 346 344 344 343 345 344 339 339 340 340 342 342 342 341 340 342 343 344
348 348 340 344 346 347 348 345 345 345 345 345 344 344 345 345 344 343 344 345 345 340 343 343 343 345 344 344 344 342 340 340 341 341 342 343 341 339 343 343 343 342 342
345 347 343 341 343 344 345 344 344 345 345 344 345 345 343 342 343 344 343 344 345 345 345 344 342 341 339 343 343 341 341 341 341 341 342 340 339 343 343 343 340 336 335
345 345 343 344 344 343 342 340 339 339 342 344 344 345 346 345 341 343 343 343 343 343 343 342 340 339 340 341 341 342 340 340 339 338 337 338 341 341 340 337 335 332 328
341 340 343 342 343 342 341 340 342 342 341 341 343 344 345 345 340 343 342 343 343 343 342 340 340 340 341 341 340 339 337 335 332 332 336 339 338 337 336 333 332 329 319
343 343 340 338 342 343 341 341 341 341 341 343 342 344 344 344 343 339 339 339 338 339 338 341 340 338 336 333 328 327 325 326 330 333 336 336 337 336 332 330 328 320 313
344 343 343 341 342 340 340 340 339 340 339 339 342 343 342 342 340 338 335 335 334 336 339 334 333 329 325 324 323 321 321 329 334 336 336 332 329 328 327 324 317 311 310
343 342 341 341 340 338 337 337 337 338 338 337 337 337 337 336 336 337 340 339 338 334 335 332 329 331 325 324 323 317 319 323 327 329 328 327 325 321 315 311 309 307 306
341 341 340 339 340 339 339 337 336 335 335 334 334 334 333 334 334 335 336 337 337 337 337 335 332 329 330 331 320 319 319 321 323 322 322 319 313 308 305 304 303 303 303
339 340 340 340 339 339 338 337 337 336 335 335 334 333 332 331 330 329 330 332 333 328 328 326 323 322 318 317 316 317 318 317 314 310 308 304 303 303 303 302 302 302 302
335 335 337 337 336 337 335 335 334 334 334 331 328 326 323 322 322 323 324 324 324 319 321 318 316 315 315 314 313 310 307 305 303 303 303 302 302 302 301 301 301 301 301
332 332 332 332 333 332 331 331 330 329 327 325 324 322 321 316 313 309 308 310 310 311 311 312 312 313 312 309 306 304 303 303 302 302 301 301 301 300 300 300 300 300 300
323 325 325 325 325 325 325 325 327 327 327 326 324 323 320 315 310 303 304 305 309 310 310 310 310 307 305 304 304 303 302 301 300 300 300 299 299 299 299 299 299 299 299
315 316 315 314 312 310 309 313 317 320 320 320 319 316 312 307 303 302 303 310 310 311 310 309 306 306 305 304 302 301 300 300 299 299 299 298 298 298 298 298 298 298 298
316 316 315 314 314 310 309 305 309 315 313 312 312 312 312 311 310 310 311 308 306 308 308 307 306 304 303 302 300 299 299 299 298 298 298 298 297 297 297 297 297 297 297
313 312 312 312 312 311 310 309 309 308 307 303 302 302 302 301 301 304 306 307 307 306 305 304 304 303 301 299 299 299 298 298 298 297 297 297 296 296 296 296 296 297 297
310 309 312 310 311 311 311 310 310 309 309 308 305 300 300 300 303 305 306 307 306 305 304 303 302 302 299 299 298 298 298 297 297 297 296 296 296 295 295 295 296 297 297
309 308 309 309 309 309 309 309 309 309 309 308 308 306 306 305 303 303 304 305 305 304 304 303 301 300 299 299 299 298 298 298 298 297 296 295 295 294 294 294 296 297 297
306 306 307 307 308 308 308 307 308 308 308 309 308 308 307 307 306 305 306 305 304 304 304 303 301 300 300 300 300 300 299 298 299 300 298 298 297 295 294 293 295 297 297
306 304 305 306 306 306 306 305 306 307 307 306 307 307 307 307 306 306 306 304 304 304 304 304 303 302 302 302 302 301 302 301 301 301 300 299 298 298 296 293 293 296 296
308 305 306 306 307 307 306 304 306 306 306 306 306 306 306 306 306 306 306 305 304 304 305 305 305 305 304 303 303 303 302 302 302 301 301 300 299 298 297 294 293 294 296
309 309 307 306 307 308 308 307 307 307 307 307 307 306 306 306 306 306 306 306 306 306 305 305 306 306 306 305 304 303 303 302 302 302 301 301 299 298 298 296 294 293 293

GFSGL_850_thetae_126.txt.gz
Theta_e
342 343 341 343 342 345 341 343 345 345 344 345 345 347 347 345 346 344 342 344 343 342 344 346 345 344 345 344 344 343 342 342 344 344 344 344 344 341 342 346 343 340 340
341 342 339 341 343 345 344 343 344 346 344 344 346 347 346 347 344 345 346 347 344 341 343 345 345 342 344 346 345 345 344 344 344 346 345 344 341 341 342 340 339 341 343
342 343 341 341 342 343 342 345 346 345 345 344 344 346 344 343 345 345 346 345 346 347 344 346 345 343 342 342 344 345 346 345 345 344 343 340 338 339 341 342 342 344 345
344 345 344 340 337 342 341 344 346 345 345 343 344 344 345 346 345 346 347 346 344 343 344 345 347 345 345 344 346 346 346 344 345 342 339 341 342 342 342 341 341 344 343
345 345 346 344 341 339 341 342 342 344 344 343 342 345 344 342 345 347 345 345 343 344 345 344 342 342 344 346 345 344 344 345 340 340 341 342 341 341 339 341 342 342 342
345 346 346 346 344 340 342 341 343 344 344 344 345 344 342 343 344 345 344 344 343 345 345 347 345 343 343 345 343 344 344 341 340 341 340 341 340 339 341 342 340 337 336
346 346 346 347 343 342 342 345 345 345 345 344 344 344 344 343 341 344 343 343 344 345 345 344 343 344 343 343 341 343 342 340 341 341 341 341 339 341 341 339 335 334 331
345 345 346 347 343 343 345 344 344 343 343 342 344 344 344 344 345 343 342 343 343 343 343 344 343 340 340 339 340 340 340 340 340 338 337 337 339 339 337 334 331 330 325
345 345 346 345 344 342 343 343 342 340 340 341 341 341 342 344 344 344 344 342 343 343 342 342 341 341 340 341 340 340 339 338 335 332 334 336 336 336 334 331 329 326 318
345 344 341 341 343 343 342 342 341 340 340 340 340 343 340 344 344 343 343 342 342 342 341 341 340 338 338 336 334 331 328 327 328 330 332 334 335 335 334 331 326 317 309
339 343 344 341 343 338 341 341 340 340 340 340 341 342 342 342 342 342 341 340 338 337 337 335 335 337 333 326 324 322 323 324 328 330 332 334 333 330 328 324 314 307 305
340 341 343 341 341 338 334 338 338 337 338 338 340 339 340 340 340 339 337 337 336 336 336 335 336 334 321 320 319 319 326 327 330 330 330 326 325 324 318 310 305 304 303
341 341 335 336 334 332 336 337 337 336 337 337 336 336 336 335 335 334 337 338 337 335 336 336 334 332 329 328 327 321 323 323 324 324 323 320 316 309 304 303 303 302 302
339 336 337 335 335 338 338 337 337 335 335 334 333 333 334 334 334 335 335 336 335 334 331 328 326 325 325 323 321 320 320 321 320 318 314 308 303 302 302 301 301 301 300
338 338 338 338 337 337 336 337 336 335 333 332 330 328 328 327 328 327 327 329 329 328 324 320 319 318 317 316 315 315 313 311 308 305 303 302 301 301 301 300 300 300 300
334 334 336 335 335 334 334 334 334 332 329 326 323 317 314 310 311 317 321 322 320 319 320 317 316 314 313 312 309 306 304 303 302 302 301 300 300 300 300 299 299 299 299
327 328 327 327 327 327 327 327 328 327 326 324 322 323 320 317 313 305 304 306 309 312 314 313 311 310 308 306 304 303 302 301 300 300 299 299 299 299 298 298 298 298 298
316 316 316 314 312 311 313 318 322 325 325 324 323 321 317 313 313 313 310 306 307 309 311 311 309 306 305 304 303 301 300 300 299 299 298 298 298 298 298 298 298 298 298
317 316 314 313 311 309 308 305 312 317 317 316 316 314 312 305 303 304 307 307 307 307 307 306 306 305 304 302 301 300 299 299 298 298 298 297 297 297 297 297 297 297 297
312 313 313 312 313 310 309 309 307 307 306 304 304 306 308 309 308 309 308 307 307 307 306 306 304 303 302 301 299 299 299 298 298 297 297 297 297 296 296 296 296 297 297
311 310 311 311 311 311 310 310 309 309 309 308 304 300 300 300 301 302 304 306 307 306 305 304 303 302 301 299 299 299 298 298 298 298 297 296 296 295 295 295 296 297 297
314 311 309 309 310 310 310 310 309 309 309 308 307 305 303 303 302 303 305 306 305 304 304 303 302 301 300 299 298 298 298 298 298 297 297 297 296 295 295 294 295 296 297
311 308 307 307 308 309 308 308 308 308 308 309 308 308 307 307 306 305 305 305 305 304 304 303 302 300 299 299 299 299 299 298 299 300 299 298 298 297 296 294 293 295 296
308 306 305 305 305 306 307 307 307 306 307 307 308 308 308 307 306 306 306 305 304 304 304 304 303 301 301 300 300 301 301 301 301 301 300 300 298 297 297 295 294 293 294
309 307 305 305 306 306 306 304 304 304 305 306 306 306 306 306 307 306 306 306 305 304 304 305 305 304 304 302 303 302 302 301 302 302 302 301 300 298 297 297 296 295 293
312 309 307 306 306 307 307 307 306 306 306 306 306 306 306 306 306 306 306 306 306 305 305 305 305 305 305 304 304 303 303 302 302 302 302 302 302 301 299 298 297 297 295